Time,TemperatureF,DewpointF,PressureIn,WindDirection,WindDirectionDegrees,WindSpeedMPH,WindSpeedGustMPH,Humidity,HourlyPrecipIn,Conditions,Clouds,dailyrainin,SoftwareType,DateUTC
2013-02-22 00:00:00,63.9,56.2,30.03,SSE,158,0.0,0.0,76,0.00,,---,0.00,VWS V14.01,2013-02-22 05:00:00,
2013-02-22 00:01:00,64.2,56.1,30.03,SSE,158,0.0,0.0,75,0.00,,---,0.00,VWS V14.01,2013-02-22 05:01:00,
2013-02-22 00:02:00,64.2,56.5,30.03,SSE,158,0.0,0.0,76,0.00,,---,0.00,VWS V14.01,2013-02-22 05:02:00,
2013-02-22 00:03:00,64.2,56.5,30.03,SSE,158,0.0,0.0,76,0.00,,---,0.00,VWS V14.01,2013-02-22 05:03:00,
2013-02-22 00:04:00,64.0,56.3,30.03,SSE,158,0.0,0.0,76,0.00,,---,0.00,VWS V14.01,2013-02-22 05:04:00,
2013-02-22 00:05:00,63.9,56.2,30.03,SSE,158,0.0,0.0,76,0.00,,---,0.00,VWS V14.01,2013-02-22 05:05:00,
2013-02-22 00:06:00,64.0,56.3,30.03,SSE,158,0.0,0.0,76,0.00,,---,0.00,VWS V14.01,2013-02-22 05:06:00,
2013-02-22 00:07:00,64.0,56.3,30.03,SSE,158,0.0,0.0,76,0.00,,---,0.00,VWS V14.01,2013-02-22 05:07:00,
2013-02-22 00:08:00,63.9,56.2,30.03,SSE,158,0.0,0.0,76,0.00,,---,0.00,VWS V14.01,2013-02-22 05:08:00,
2013-02-22 00:09:00,63.9,56.2,30.03,SSE,158,0.0,0.0,76,0.00,,---,0.00,VWS V14.01,2013-02-22 05:09:00,
2013-02-22 00:10:00,63.9,56.2,30.03,SSE,158,0.0,0.0,76,0.00,,---,0.00,VWS V14.01,2013-02-22 05:10:00,
2013-02-22 00:11:00,63.7,56.0,30.03,SSE,158,0.0,0.0,76,0.00,,---,0.00,VWS V14.01,2013-02-22 05:11:00,
2013-02-22 00:12:00,63.9,55.8,30.03,SSE,158,0.0,0.0,75,0.00,,---,0.00,VWS V14.01,2013-02-22 05:12:00,
2013-02-22 00:13:00,63.9,56.2,30.03,SSE,158,0.0,0.0,76,0.00,,---,0.00,VWS V14.01,2013-02-22 05:13:00,
2013-02-22 00:14:00,63.9,56.2,30.03,SSE,158,0.0,0.0,76,0.00,,---,0.00,VWS V14.01,2013-02-22 05:14:00,
2013-02-22 00:15:00,63.9,56.2,30.03,SSE,158,0.0,0.0,76,0.00,,---,0.00,VWS V14.01,2013-02-22 05:15:00,
2013-02-22 00:16:00,63.5,55.8,30.03,SSE,158,0.0,0.0,76,0.00,,---,0.00,VWS V14.01,2013-02-22 05:16:00,
2013-02-22 00:17:00,63.7,56.0,30.03,SSE,158,0.0,0.0,76,0.00,,---,0.00,VWS V14.01,2013-02-22 05:17:00,
2013-02-22 00:18:00,63.7,56.0,30.03,SSE,158,0.0,0.0,76,0.00,,---,0.00,VWS V14.01,2013-02-22 05:18:00,
2013-02-22 00:19:00,63.7,56.0,30.03,SSE,158,0.0,0.0,76,0.00,,---,0.00,VWS V14.01,2013-02-22 05:19:00,
2013-02-22 00:20:00,63.5,56.2,30.03,SSE,158,0.0,0.0,77,0.00,,---,0.00,VWS V14.01,2013-02-22 05:20:00,
2013-02-22 00:21:00,63.5,55.8,30.03,SSE,158,0.0,0.0,76,0.00,,---,0.00,VWS V14.01,2013-02-22 05:21:00,
2013-02-22 00:22:00,63.5,55.8,30.03,SSE,158,0.0,0.0,76,0.00,,---,0.00,VWS V14.01,2013-02-22 05:22:00,
2013-02-22 00:23:00,63.5,55.8,30.03,SSE,158,0.0,0.0,76,0.00,,---,0.00,VWS V14.01,2013-02-22 05:23:00,
2013-02-22 00:24:00,63.5,55.8,30.03,SSE,158,0.0,0.0,76,0.00,,---,0.00,VWS V14.01,2013-02-22 05:24:00,
2013-02-22 00:25:00,64.2,57.2,30.03,SSE,158,0.0,0.0,78,0.00,,---,0.00,VWS V14.01,2013-02-22 05:25:00,
2013-02-22 00:26:00,63.5,56.2,30.03,SSE,158,0.0,0.0,77,0.00,,---,0.00,VWS V14.01,2013-02-22 05:26:00,
2013-02-22 00:27:00,63.5,56.2,30.03,SSE,158,0.0,0.0,77,0.00,,---,0.00,VWS V14.01,2013-02-22 05:27:00,
2013-02-22 00:28:00,63.5,56.2,30.03,SSE,158,0.0,0.0,77,0.00,,---,0.00,VWS V14.01,2013-02-22 05:28:00,
2013-02-22 00:29:00,63.5,56.2,30.03,SSE,158,0.0,0.0,77,0.00,,---,0.00,VWS V14.01,2013-02-22 05:29:00,
2013-02-22 00:30:00,64.6,57.6,30.03,SSE,158,0.0,0.0,78,0.00,,---,0.00,VWS V14.01,2013-02-22 05:30:00,
2013-02-22 00:31:00,63.5,56.2,30.03,SSE,158,0.0,0.0,77,0.00,,---,0.00,VWS V14.01,2013-02-22 05:31:00,
2013-02-22 00:32:00,63.5,56.2,30.03,SSE,158,0.0,0.0,77,0.00,,---,0.00,VWS V14.01,2013-02-22 05:32:00,
2013-02-22 00:33:00,63.5,56.2,30.03,SSE,158,0.0,0.0,77,0.00,,---,0.00,VWS V14.01,2013-02-22 05:33:00,
2013-02-22 00:34:00,63.7,56.3,30.03,SSE,158,0.0,0.0,77,0.00,,---,0.00,VWS V14.01,2013-02-22 05:34:00,
2013-02-22 00:35:00,64.8,57.8,30.03,SSE,158,0.0,0.0,78,0.00,,---,0.00,VWS V14.01,2013-02-22 05:35:00,
2013-02-22 00:36:00,64.2,57.2,30.03,SSE,158,0.0,0.0,78,0.00,,---,0.00,VWS V14.01,2013-02-22 05:36:00,
2013-02-22 00:37:00,64.2,57.2,30.03,SSE,158,0.0,0.0,78,0.00,,---,0.00,VWS V14.01,2013-02-22 05:37:00,
2013-02-22 00:38:00,64.4,57.4,30.03,SSE,158,0.0,0.0,78,0.00,,---,0.00,VWS V14.01,2013-02-22 05:38:00,
2013-02-22 00:39:00,64.6,57.6,30.03,SSE,158,0.0,0.9,78,0.00,,---,0.00,VWS V14.01,2013-02-22 05:39:00,
2013-02-22 00:40:00,64.6,57.6,30.03,SSE,158,0.0,0.0,78,0.00,,---,0.00,VWS V14.01,2013-02-22 05:40:00,
2013-02-22 00:41:00,64.9,58.3,30.03,SSE,158,0.0,0.0,79,0.00,,---,0.00,VWS V14.01,2013-02-22 05:41:00,
2013-02-22 00:42:00,64.9,58.3,30.03,SSE,158,0.0,0.0,79,0.00,,---,0.00,VWS V14.01,2013-02-22 05:42:00,
2013-02-22 00:43:00,64.8,57.8,30.03,SSE,158,0.0,0.0,78,0.00,,---,0.00,VWS V14.01,2013-02-22 05:43:00,
2013-02-22 00:44:00,64.8,57.8,30.03,SSE,158,0.0,0.0,78,0.00,,---,0.00,VWS V14.01,2013-02-22 05:44:00,
2013-02-22 00:45:00,64.6,57.6,30.03,SSE,158,0.0,0.0,78,0.00,,---,0.00,VWS V14.01,2013-02-22 05:45:00,
2013-02-22 00:46:00,64.8,57.8,30.03,SSE,158,0.0,0.0,78,0.00,,---,0.00,VWS V14.01,2013-02-22 05:46:00,
2013-02-22 00:47:00,64.6,57.6,30.03,SSE,158,0.0,0.0,78,0.00,,---,0.00,VWS V14.01,2013-02-22 05:47:00,
2013-02-22 00:48:00,64.6,57.6,30.03,SSE,158,0.0,0.0,78,0.00,,---,0.00,VWS V14.01,2013-02-22 05:48:00,
2013-02-22 00:49:00,64.6,57.6,30.03,SSE,158,0.0,0.0,78,0.00,,---,0.00,VWS V14.01,2013-02-22 05:49:00,
2013-02-22 00:50:00,64.6,57.6,30.00,SSE,158,0.0,0.0,78,0.00,,---,0.00,VWS V14.01,2013-02-22 05:50:00,
2013-02-22 00:51:00,64.6,57.6,30.03,SSE,158,0.0,0.0,78,0.00,,---,0.00,VWS V14.01,2013-02-22 05:51:00,
2013-02-22 00:52:00,64.6,57.6,30.03,SSE,158,0.0,0.0,78,0.00,,---,0.00,VWS V14.01,2013-02-22 05:52:00,
2013-02-22 00:53:00,64.6,57.6,30.03,SSE,158,0.0,0.0,78,0.00,,---,0.00,VWS V14.01,2013-02-22 05:53:00,
2013-02-22 00:54:00,64.6,57.6,30.03,SSE,158,0.0,0.0,78,0.00,,---,0.00,VWS V14.01,2013-02-22 05:54:00,
2013-02-22 00:55:00,64.8,57.8,30.00,SSE,158,0.0,0.0,78,0.00,,---,0.00,VWS V14.01,2013-02-22 05:55:00,
2013-02-22 00:56:00,64.6,57.6,30.03,SSE,158,0.0,0.0,78,0.00,,---,0.00,VWS V14.01,2013-02-22 05:56:00,
2013-02-22 00:57:00,64.6,57.6,30.03,SSE,158,0.0,0.0,78,0.00,,---,0.00,VWS V14.01,2013-02-22 05:57:00,
2013-02-22 00:58:00,64.6,57.6,30.00,SSE,158,0.0,0.0,78,0.00,,---,0.00,VWS V14.01,2013-02-22 05:58:00,
2013-02-22 00:59:00,64.6,57.6,30.00,SSE,158,0.0,0.0,78,0.00,,---,0.00,VWS V14.01,2013-02-22 05:59:00,
2013-02-22 01:00:00,64.8,57.8,30.00,SSE,158,0.0,0.0,78,0.00,,---,0.00,VWS V14.01,2013-02-22 06:00:00,
2013-02-22 01:01:00,64.8,57.8,30.00,SSE,158,0.0,0.0,78,0.00,,---,0.00,VWS V14.01,2013-02-22 06:01:00,
2013-02-22 01:02:00,64.8,57.8,30.00,SSE,158,0.0,0.0,78,0.00,,---,0.00,VWS V14.01,2013-02-22 06:02:00,
2013-02-22 01:03:00,64.8,57.8,30.00,SSE,158,0.0,0.0,78,0.00,,---,0.00,VWS V14.01,2013-02-22 06:03:00,
2013-02-22 01:04:00,64.8,57.8,30.00,SSE,158,0.0,0.0,78,0.00,,---,0.00,VWS V14.01,2013-02-22 06:04:00,
2013-02-22 01:05:00,64.8,57.8,30.00,SSE,158,0.0,0.0,78,0.00,,---,0.00,VWS V14.01,2013-02-22 06:05:00,
2013-02-22 01:06:00,64.8,57.8,30.00,SSE,158,0.0,0.0,78,0.00,,---,0.00,VWS V14.01,2013-02-22 06:06:00,
2013-02-22 01:07:00,64.8,57.8,30.00,SSE,158,0.0,0.0,78,0.00,,---,0.00,VWS V14.01,2013-02-22 06:07:00,
2013-02-22 01:08:00,64.8,57.8,30.00,SSE,158,0.0,0.0,78,0.00,,---,0.00,VWS V14.01,2013-02-22 06:08:00,
2013-02-22 01:09:00,64.8,57.8,30.00,SSE,158,0.0,0.0,78,0.00,,---,0.00,VWS V14.01,2013-02-22 06:09:00,
2013-02-22 01:10:00,64.8,57.8,30.00,SSE,158,0.0,0.0,78,0.00,,---,0.00,VWS V14.01,2013-02-22 06:10:00,
2013-02-22 01:11:00,64.9,57.9,30.00,SSE,158,0.0,0.0,78,0.00,,---,0.00,VWS V14.01,2013-02-22 06:11:00,
2013-02-22 01:12:00,64.9,57.9,30.00,SSE,158,0.0,0.0,78,0.00,,---,0.00,VWS V14.01,2013-02-22 06:12:00,
2013-02-22 01:13:00,64.9,57.9,30.00,SSE,158,0.0,0.0,78,0.00,,---,0.00,VWS V14.01,2013-02-22 06:13:00,
2013-02-22 01:14:00,64.8,57.8,30.00,SSE,158,0.0,0.0,78,0.00,,---,0.00,VWS V14.01,2013-02-22 06:14:00,
2013-02-22 01:15:00,64.4,57.4,30.00,SSE,158,0.0,0.0,78,0.00,,---,0.00,VWS V14.01,2013-02-22 06:15:00,
2013-02-22 01:16:00,64.8,57.8,30.00,SSE,158,0.0,0.0,78,0.00,,---,0.00,VWS V14.01,2013-02-22 06:16:00,
2013-02-22 01:17:00,64.8,57.8,30.00,SSE,158,0.0,0.0,78,0.00,,---,0.00,VWS V14.01,2013-02-22 06:17:00,
2013-02-22 01:18:00,64.6,57.6,30.00,SSE,158,0.0,0.0,78,0.00,,---,0.00,VWS V14.01,2013-02-22 06:18:00,
2013-02-22 01:19:00,64.8,57.8,30.00,SSE,158,0.0,0.0,78,0.00,,---,0.00,VWS V14.01,2013-02-22 06:19:00,
2013-02-22 01:20:00,64.2,57.2,30.00,SSE,158,0.0,0.0,78,0.00,,---,0.00,VWS V14.01,2013-02-22 06:20:00,
2013-02-22 01:21:00,64.8,57.8,30.00,SSE,158,0.0,0.0,78,0.00,,---,0.00,VWS V14.01,2013-02-22 06:21:00,
2013-02-22 01:22:00,64.6,57.6,30.00,SSE,158,0.0,0.0,78,0.00,,---,0.00,VWS V14.01,2013-02-22 06:22:00,
2013-02-22 01:23:00,64.6,57.6,30.00,SSE,158,0.0,0.0,78,0.00,,---,0.00,VWS V14.01,2013-02-22 06:23:00,
2013-02-22 01:24:00,64.6,57.6,30.00,SSE,158,0.0,0.0,78,0.00,,---,0.00,VWS V14.01,2013-02-22 06:24:00,
2013-02-22 01:25:00,64.0,57.0,30.00,SSE,158,0.0,0.0,78,0.00,,---,0.00,VWS V14.01,2013-02-22 06:25:00,
2013-02-22 01:26:00,64.4,57.4,30.00,SSE,158,0.0,0.0,78,0.00,,---,0.00,VWS V14.01,2013-02-22 06:26:00,
2013-02-22 01:27:00,64.4,57.4,30.00,SSE,158,0.0,0.0,78,0.00,,---,0.00,VWS V14.01,2013-02-22 06:27:00,
2013-02-22 01:28:00,64.4,57.4,30.00,SSE,158,0.0,0.0,78,0.00,,---,0.00,VWS V14.01,2013-02-22 06:28:00,
2013-02-22 01:29:00,64.4,57.4,30.00,SSE,158,0.0,0.0,78,0.00,,---,0.00,VWS V14.01,2013-02-22 06:29:00,
2013-02-22 01:30:00,63.9,56.9,30.00,SSE,158,0.0,0.0,78,0.00,,---,0.00,VWS V14.01,2013-02-22 06:30:00,
2013-02-22 01:31:00,64.2,57.2,30.00,SSE,158,0.0,0.0,78,0.00,,---,0.00,VWS V14.01,2013-02-22 06:31:00,
2013-02-22 01:32:00,64.2,57.2,30.00,SSE,158,0.0,0.0,78,0.00,,---,0.00,VWS V14.01,2013-02-22 06:32:00,
2013-02-22 01:33:00,64.0,57.0,30.00,SSE,158,0.0,0.0,78,0.00,,---,0.00,VWS V14.01,2013-02-22 06:33:00,
2013-02-22 01:34:00,64.0,57.0,30.00,SSE,158,0.0,0.0,78,0.00,,---,0.00,VWS V14.01,2013-02-22 06:34:00,
2013-02-22 01:35:00,64.0,57.4,30.00,SSE,158,0.0,0.0,79,0.00,,---,0.00,VWS V14.01,2013-02-22 06:35:00,
2013-02-22 01:36:00,64.0,57.0,30.00,SSE,158,0.0,0.0,78,0.00,,---,0.00,VWS V14.01,2013-02-22 06:36:00,
2013-02-22 01:37:00,64.0,57.0,30.00,SSE,158,0.0,0.0,78,0.00,,---,0.00,VWS V14.01,2013-02-22 06:37:00,
2013-02-22 01:38:00,64.0,57.0,30.00,SSE,158,0.0,0.0,78,0.00,,---,0.00,VWS V14.01,2013-02-22 06:38:00,
2013-02-22 01:39:00,64.0,57.0,30.00,SSE,158,0.0,0.0,78,0.00,,---,0.00,VWS V14.01,2013-02-22 06:39:00,
2013-02-22 01:40:00,64.0,57.4,30.00,SSE,158,0.0,0.0,79,0.00,,---,0.00,VWS V14.01,2013-02-22 06:40:00,
2013-02-22 01:41:00,63.9,56.9,30.00,SSE,158,0.0,0.0,78,0.00,,---,0.00,VWS V14.01,2013-02-22 06:41:00,
2013-02-22 01:42:00,63.9,56.9,30.00,SSE,158,0.0,0.0,78,0.00,,---,0.00,VWS V14.01,2013-02-22 06:42:00,
2013-02-22 01:43:00,63.9,56.9,30.00,SSE,158,0.0,0.0,78,0.00,,---,0.00,VWS V14.01,2013-02-22 06:43:00,
2013-02-22 01:44:00,63.9,56.9,30.00,SSE,158,0.0,0.0,78,0.00,,---,0.00,VWS V14.01,2013-02-22 06:44:00,
2013-02-22 01:45:00,64.4,57.8,30.00,SSE,158,0.0,0.0,79,0.00,,---,0.00,VWS V14.01,2013-02-22 06:45:00,
2013-02-22 01:46:00,64.0,57.4,30.00,SSE,158,0.0,0.0,79,0.00,,---,0.00,VWS V14.01,2013-02-22 06:46:00,
2013-02-22 01:47:00,64.0,57.4,30.00,SSE,158,0.0,0.0,79,0.00,,---,0.00,VWS V14.01,2013-02-22 06:47:00,
2013-02-22 01:48:00,64.0,57.4,30.00,SSE,158,0.0,0.0,79,0.00,,---,0.00,VWS V14.01,2013-02-22 06:48:00,
2013-02-22 01:49:00,64.0,57.4,30.00,SSE,158,0.0,0.0,79,0.00,,---,0.00,VWS V14.01,2013-02-22 06:49:00,
2013-02-22 01:50:00,64.4,57.8,30.00,SSE,158,0.0,0.0,79,0.00,,---,0.00,VWS V14.01,2013-02-22 06:50:00,
2013-02-22 01:51:00,64.0,57.4,30.00,SSE,158,0.0,0.0,79,0.00,,---,0.00,VWS V14.01,2013-02-22 06:51:00,
2013-02-22 01:52:00,64.2,57.6,30.00,SSE,158,0.0,0.0,79,0.00,,---,0.00,VWS V14.01,2013-02-22 06:52:00,
2013-02-22 01:53:00,64.2,57.6,30.00,SSE,158,0.0,0.0,79,0.00,,---,0.00,VWS V14.01,2013-02-22 06:53:00,
2013-02-22 01:54:00,64.2,57.6,30.00,SSE,158,0.0,0.0,79,0.00,,---,0.00,VWS V14.01,2013-02-22 06:54:00,
2013-02-22 01:55:00,64.4,57.8,30.00,SSE,158,0.0,0.0,79,0.00,,---,0.00,VWS V14.01,2013-02-22 06:55:00,
2013-02-22 01:56:00,64.4,57.8,30.00,SSE,158,0.0,0.0,79,0.00,,---,0.00,VWS V14.01,2013-02-22 06:56:00,
2013-02-22 01:57:00,64.4,57.8,30.00,SSE,158,0.0,0.0,79,0.00,,---,0.00,VWS V14.01,2013-02-22 06:57:00,
2013-02-22 01:58:00,64.4,57.8,30.00,SSE,158,0.0,0.0,79,0.00,,---,0.00,VWS V14.01,2013-02-22 06:58:00,
2013-02-22 01:59:00,64.4,57.8,30.00,SSE,158,0.0,0.0,79,0.00,,---,0.00,VWS V14.01,2013-02-22 06:59:00,
2013-02-22 02:00:00,64.2,57.6,30.00,SSE,158,0.0,0.0,79,0.00,,---,0.00,VWS V14.01,2013-02-22 07:00:00,
2013-02-22 02:01:00,64.4,57.8,30.00,SSE,158,0.0,0.0,79,0.00,,---,0.00,VWS V14.01,2013-02-22 07:01:00,
2013-02-22 02:02:00,64.4,57.8,30.00,SSE,158,0.0,0.0,79,0.00,,---,0.00,VWS V14.01,2013-02-22 07:02:00,
2013-02-22 02:03:00,64.4,57.8,30.00,SSE,158,0.0,0.0,79,0.00,,---,0.00,VWS V14.01,2013-02-22 07:03:00,
2013-02-22 02:04:00,64.4,57.8,30.00,SSE,158,0.0,0.0,79,0.00,,---,0.00,VWS V14.01,2013-02-22 07:04:00,
2013-02-22 02:05:00,64.0,57.4,30.00,SSE,158,0.0,0.0,79,0.00,,---,0.00,VWS V14.01,2013-02-22 07:05:00,
2013-02-22 02:06:00,64.4,57.8,30.00,SSE,158,0.0,0.0,79,0.00,,---,0.00,VWS V14.01,2013-02-22 07:06:00,
2013-02-22 02:07:00,64.4,57.8,30.00,SSE,158,0.0,0.0,79,0.00,,---,0.00,VWS V14.01,2013-02-22 07:07:00,
2013-02-22 02:08:00,64.2,57.9,30.00,SSE,158,0.0,0.0,80,0.00,,---,0.00,VWS V14.01,2013-02-22 07:08:00,
2013-02-22 02:09:00,64.2,57.6,30.00,SSE,158,0.0,0.0,79,0.00,,---,0.00,VWS V14.01,2013-02-22 07:09:00,
2013-02-22 02:10:00,63.7,57.0,30.00,SSE,158,0.0,0.0,79,0.00,,---,0.00,VWS V14.01,2013-02-22 07:10:00,
2013-02-22 02:11:00,64.2,57.6,30.00,SSE,158,0.0,0.0,79,0.00,,---,0.00,VWS V14.01,2013-02-22 07:11:00,
2013-02-22 02:12:00,64.2,57.6,30.00,SSE,158,0.0,0.0,79,0.00,,---,0.00,VWS V14.01,2013-02-22 07:12:00,
2013-02-22 02:13:00,64.0,57.4,30.00,SSE,158,0.0,0.0,79,0.00,,---,0.00,VWS V14.01,2013-02-22 07:13:00,
2013-02-22 02:14:00,64.0,57.4,30.00,SSE,158,0.0,0.0,79,0.00,,---,0.00,VWS V14.01,2013-02-22 07:14:00,
2013-02-22 02:15:00,63.5,56.9,30.00,SSE,158,0.0,0.0,79,0.00,,---,0.00,VWS V14.01,2013-02-22 07:15:00,
2013-02-22 02:16:00,64.0,57.4,30.00,SSE,158,0.0,0.0,79,0.00,,---,0.00,VWS V14.01,2013-02-22 07:16:00,
2013-02-22 02:17:00,64.0,57.4,30.00,SSE,158,0.0,0.0,79,0.00,,---,0.00,VWS V14.01,2013-02-22 07:17:00,
2013-02-22 02:18:00,63.7,57.0,30.00,SSE,158,0.0,0.0,79,0.00,,---,0.00,VWS V14.01,2013-02-22 07:18:00,
2013-02-22 02:19:00,63.7,57.0,30.00,SSE,158,0.0,0.0,79,0.00,,---,0.00,VWS V14.01,2013-02-22 07:19:00,
2013-02-22 02:20:00,63.3,56.7,30.00,SSE,158,0.0,0.0,79,0.00,,---,0.00,VWS V14.01,2013-02-22 07:20:00,
2013-02-22 02:21:00,63.7,57.0,30.00,SSE,158,0.0,0.0,79,0.00,,---,0.00,VWS V14.01,2013-02-22 07:21:00,
2013-02-22 02:22:00,63.7,57.0,30.00,SSE,158,0.0,0.0,79,0.00,,---,0.00,VWS V14.01,2013-02-22 07:22:00,
2013-02-22 02:23:00,63.5,56.9,30.00,SSE,158,0.0,0.0,79,0.00,,---,0.00,VWS V14.01,2013-02-22 07:23:00,
2013-02-22 02:24:00,63.5,56.9,30.00,SSE,158,0.0,0.0,79,0.00,,---,0.00,VWS V14.01,2013-02-22 07:24:00,
2013-02-22 02:25:00,63.5,56.9,30.00,SSE,158,0.0,0.0,79,0.00,,---,0.00,VWS V14.01,2013-02-22 07:25:00,
2013-02-22 02:26:00,63.5,56.9,30.00,SSE,158,0.0,0.0,79,0.00,,---,0.00,VWS V14.01,2013-02-22 07:26:00,
2013-02-22 02:27:00,63.5,56.9,30.00,SSE,158,0.0,0.0,79,0.00,,---,0.00,VWS V14.01,2013-02-22 07:27:00,
2013-02-22 02:28:00,63.3,56.7,30.00,SSE,158,0.0,0.0,79,0.00,,---,0.00,VWS V14.01,2013-02-22 07:28:00,
2013-02-22 02:29:00,63.3,56.7,30.00,SSE,158,0.0,0.0,79,0.00,,---,0.00,VWS V14.01,2013-02-22 07:29:00,
2013-02-22 02:30:00,63.3,56.7,30.00,SSE,158,0.0,0.0,79,0.00,,---,0.00,VWS V14.01,2013-02-22 07:30:00,
2013-02-22 02:31:00,63.3,56.7,30.00,SSE,158,0.0,0.0,79,0.00,,---,0.00,VWS V14.01,2013-02-22 07:31:00,
2013-02-22 02:32:00,63.1,56.5,30.00,SSE,158,0.0,0.0,79,0.00,,---,0.00,VWS V14.01,2013-02-22 07:32:00,
2013-02-22 02:33:00,63.1,56.5,30.00,SSE,158,0.0,0.0,79,0.00,,---,0.00,VWS V14.01,2013-02-22 07:33:00,
2013-02-22 02:34:00,63.1,56.5,30.00,SSE,158,0.0,0.0,79,0.00,,---,0.00,VWS V14.01,2013-02-22 07:34:00,
2013-02-22 02:35:00,63.1,56.5,30.00,SSE,158,0.0,0.0,79,0.00,,---,0.00,VWS V14.01,2013-02-22 07:35:00,
2013-02-22 02:36:00,63.0,56.3,30.00,SSE,158,0.0,0.0,79,0.00,,---,0.00,VWS V14.01,2013-02-22 07:36:00,
2013-02-22 02:37:00,63.0,56.3,30.00,SSE,158,0.0,0.0,79,0.00,,---,0.00,VWS V14.01,2013-02-22 07:37:00,
2013-02-22 02:38:00,63.0,56.7,30.00,SSE,158,0.0,0.0,80,0.00,,---,0.00,VWS V14.01,2013-02-22 07:38:00,
2013-02-22 02:39:00,63.0,56.7,30.00,SSE,158,0.0,0.0,80,0.00,,---,0.00,VWS V14.01,2013-02-22 07:39:00,
2013-02-22 02:40:00,62.8,56.5,30.00,SSE,158,0.0,0.0,80,0.00,,---,0.00,VWS V14.01,2013-02-22 07:40:00,
2013-02-22 02:41:00,62.8,56.5,30.00,SSE,158,0.0,0.0,80,0.00,,---,0.00,VWS V14.01,2013-02-22 07:41:00,
2013-02-22 02:42:00,62.6,56.3,30.00,SSE,158,0.0,0.0,80,0.00,,---,0.00,VWS V14.01,2013-02-22 07:42:00,
2013-02-22 02:43:00,62.6,56.3,30.00,SSE,158,0.0,0.0,80,0.00,,---,0.00,VWS V14.01,2013-02-22 07:43:00,
2013-02-22 02:44:00,62.6,56.3,30.00,SSE,158,0.0,0.0,80,0.00,,---,0.00,VWS V14.01,2013-02-22 07:44:00,
2013-02-22 02:45:00,62.6,56.3,30.00,SSE,158,0.0,0.0,80,0.00,,---,0.00,VWS V14.01,2013-02-22 07:45:00,
2013-02-22 02:46:00,62.6,56.3,30.00,SSE,158,0.0,0.0,80,0.00,,---,0.00,VWS V14.01,2013-02-22 07:46:00,
2013-02-22 02:47:00,62.6,56.3,30.00,SSE,158,0.0,0.0,80,0.00,,---,0.00,VWS V14.01,2013-02-22 07:47:00,
2013-02-22 02:48:00,62.6,56.3,30.00,SSE,158,0.0,0.0,80,0.00,,---,0.00,VWS V14.01,2013-02-22 07:48:00,
2013-02-22 02:49:00,62.4,56.5,30.00,SSE,158,0.0,0.0,81,0.00,,---,0.00,VWS V14.01,2013-02-22 07:49:00,
2013-02-22 02:50:00,62.4,56.5,30.00,SSE,158,0.0,0.0,81,0.00,,---,0.00,VWS V14.01,2013-02-22 07:50:00,
2013-02-22 02:51:00,62.4,56.5,30.00,SSE,158,0.0,0.0,81,0.00,,---,0.00,VWS V14.01,2013-02-22 07:51:00,
2013-02-22 02:52:00,62.4,56.5,30.00,SSE,158,0.0,0.0,81,0.00,,---,0.00,VWS V14.01,2013-02-22 07:52:00,
2013-02-22 02:53:00,62.4,56.5,30.00,SSE,158,0.0,0.0,81,0.00,,---,0.00,VWS V14.01,2013-02-22 07:53:00,
2013-02-22 02:54:00,62.4,56.5,30.00,SSE,158,0.0,0.0,81,0.00,,---,0.00,VWS V14.01,2013-02-22 07:54:00,
2013-02-22 02:55:00,62.2,56.3,30.00,SSE,158,0.0,0.0,81,0.00,,---,0.00,VWS V14.01,2013-02-22 07:55:00,
2013-02-22 02:56:00,62.1,56.2,30.00,SSE,158,0.0,0.0,81,0.00,,---,0.00,VWS V14.01,2013-02-22 07:56:00,
2013-02-22 02:57:00,62.2,56.3,30.00,SSE,158,0.0,0.0,81,0.00,,---,0.00,VWS V14.01,2013-02-22 07:57:00,
2013-02-22 02:58:00,62.2,56.3,30.00,SSE,158,0.0,0.0,81,0.00,,---,0.00,VWS V14.01,2013-02-22 07:58:00,
2013-02-22 02:59:00,62.2,56.3,30.00,SSE,158,0.0,0.0,81,0.00,,---,0.00,VWS V14.01,2013-02-22 07:59:00,
2013-02-22 03:00:00,62.2,56.3,30.00,SSE,158,0.0,0.0,81,0.00,,---,0.00,VWS V14.01,2013-02-22 08:00:00,
2013-02-22 03:01:00,61.9,56.0,30.00,SSE,158,0.0,0.0,81,0.00,,---,0.00,VWS V14.01,2013-02-22 08:01:00,
2013-02-22 03:02:00,62.2,56.3,30.00,SSE,158,0.0,0.0,81,0.00,,---,0.00,VWS V14.01,2013-02-22 08:02:00,
2013-02-22 03:03:00,62.2,56.3,30.00,SSE,158,0.0,0.0,81,0.00,,---,0.00,VWS V14.01,2013-02-22 08:03:00,
2013-02-22 03:04:00,62.1,56.2,30.00,SSE,158,0.0,0.0,81,0.00,,---,0.00,VWS V14.01,2013-02-22 08:04:00,
2013-02-22 03:05:00,62.1,56.2,30.00,SSE,158,0.0,0.0,81,0.00,,---,0.00,VWS V14.01,2013-02-22 08:05:00,
2013-02-22 03:06:00,61.7,55.8,30.00,SSE,158,0.0,0.0,81,0.00,,---,0.00,VWS V14.01,2013-02-22 08:06:00,
2013-02-22 03:07:00,62.1,56.2,30.00,SSE,158,0.0,0.0,81,0.00,,---,0.00,VWS V14.01,2013-02-22 08:07:00,
2013-02-22 03:08:00,62.1,56.2,30.00,SSE,158,0.0,0.0,81,0.00,,---,0.00,VWS V14.01,2013-02-22 08:08:00,
2013-02-22 03:09:00,62.1,56.2,30.00,SSE,158,0.0,0.0,81,0.00,,---,0.00,VWS V14.01,2013-02-22 08:09:00,
2013-02-22 03:10:00,61.9,56.0,30.00,SSE,158,0.0,0.0,81,0.00,,---,0.00,VWS V14.01,2013-02-22 08:10:00,
2013-02-22 03:11:00,61.7,56.2,30.00,SSE,158,0.0,0.0,82,0.00,,---,0.00,VWS V14.01,2013-02-22 08:11:00,
2013-02-22 03:12:00,61.9,56.0,30.00,SSE,158,0.0,0.0,81,0.00,,---,0.00,VWS V14.01,2013-02-22 08:12:00,
2013-02-22 03:13:00,61.9,56.0,30.00,SSE,158,0.0,0.0,81,0.00,,---,0.00,VWS V14.01,2013-02-22 08:13:00,
2013-02-22 03:14:00,61.9,56.0,30.00,SSE,158,0.0,0.0,81,0.00,,---,0.00,VWS V14.01,2013-02-22 08:14:00,
2013-02-22 03:15:00,61.9,56.0,30.00,SSE,158,0.0,0.0,81,0.00,,---,0.00,VWS V14.01,2013-02-22 08:15:00,
2013-02-22 03:16:00,61.7,56.2,30.00,SSE,158,0.0,0.0,82,0.00,,---,0.00,VWS V14.01,2013-02-22 08:16:00,
2013-02-22 03:17:00,61.7,55.8,30.00,SSE,158,0.0,0.0,81,0.00,,---,0.00,VWS V14.01,2013-02-22 08:17:00,
2013-02-22 03:18:00,61.7,55.8,30.00,SSE,158,0.0,0.0,81,0.00,,---,0.00,VWS V14.01,2013-02-22 08:18:00,
2013-02-22 03:19:00,61.7,55.8,30.00,SSE,158,0.0,0.0,81,0.00,,---,0.00,VWS V14.01,2013-02-22 08:19:00,
2013-02-22 03:20:00,61.7,56.2,30.00,SSE,158,0.0,0.0,82,0.00,,---,0.00,VWS V14.01,2013-02-22 08:20:00,
2013-02-22 03:21:00,61.5,56.0,30.00,SSE,158,0.0,0.0,82,0.00,,---,0.00,VWS V14.01,2013-02-22 08:21:00,
2013-02-22 03:22:00,61.7,56.2,30.00,SSE,158,0.0,0.0,82,0.00,,---,0.00,VWS V14.01,2013-02-22 08:22:00,
2013-02-22 03:23:00,61.5,56.0,30.00,SSE,158,0.0,0.0,82,0.00,,---,0.00,VWS V14.01,2013-02-22 08:23:00,
2013-02-22 03:24:00,61.5,56.0,30.00,SSE,158,0.0,0.0,82,0.00,,---,0.00,VWS V14.01,2013-02-22 08:24:00,
2013-02-22 03:25:00,61.5,56.0,30.00,SSE,158,0.0,0.0,82,0.00,,---,0.00,VWS V14.01,2013-02-22 08:25:00,
2013-02-22 03:26:00,61.5,56.0,30.00,SSE,158,0.0,0.0,82,0.00,,---,0.00,VWS V14.01,2013-02-22 08:26:00,
2013-02-22 03:27:00,61.5,56.0,30.00,SSE,158,0.0,0.0,82,0.00,,---,0.00,VWS V14.01,2013-02-22 08:27:00,
2013-02-22 03:28:00,61.5,56.0,30.00,SSE,158,0.0,0.0,82,0.00,,---,0.00,VWS V14.01,2013-02-22 08:28:00,
2013-02-22 03:29:00,61.5,56.0,30.00,SSE,158,0.0,0.0,82,0.00,,---,0.00,VWS V14.01,2013-02-22 08:29:00,
2013-02-22 03:30:00,61.7,56.2,30.00,SSE,158,0.0,0.0,82,0.00,,---,0.00,VWS V14.01,2013-02-22 08:30:00,
2013-02-22 03:31:00,61.3,55.8,30.00,SSE,158,0.0,0.0,82,0.00,,---,0.00,VWS V14.01,2013-02-22 08:31:00,
2013-02-22 03:32:00,61.5,56.0,30.00,SSE,158,0.0,0.0,82,0.00,,---,0.00,VWS V14.01,2013-02-22 08:32:00,
2013-02-22 03:33:00,61.5,56.0,30.00,SSE,158,0.0,0.0,82,0.00,,---,0.00,VWS V14.01,2013-02-22 08:33:00,
2013-02-22 03:34:00,61.5,56.0,30.00,SSE,158,0.0,0.0,82,0.00,,---,0.00,VWS V14.01,2013-02-22 08:34:00,
2013-02-22 03:35:00,61.5,56.0,30.00,SSE,158,0.0,0.0,82,0.00,,---,0.00,VWS V14.01,2013-02-22 08:35:00,
2013-02-22 03:36:00,61.3,56.1,30.00,SSE,158,0.0,0.0,83,0.00,,---,0.00,VWS V14.01,2013-02-22 08:36:00,
2013-02-22 03:37:00,61.3,55.8,30.00,SSE,158,0.0,0.0,82,0.00,,---,0.00,VWS V14.01,2013-02-22 08:37:00,
2013-02-22 03:38:00,61.3,55.8,30.00,SSE,158,0.0,0.0,82,0.00,,---,0.00,VWS V14.01,2013-02-22 08:38:00,
2013-02-22 03:39:00,61.3,55.8,30.00,SSE,158,0.0,0.0,82,0.00,,---,0.00,VWS V14.01,2013-02-22 08:39:00,
2013-02-22 03:40:00,61.3,55.8,30.00,SSE,158,0.0,0.0,82,0.00,,---,0.00,VWS V14.01,2013-02-22 08:40:00,
2013-02-22 03:41:00,61.3,56.1,30.00,SSE,158,0.0,0.0,83,0.00,,---,0.00,VWS V14.01,2013-02-22 08:41:00,
2013-02-22 03:42:00,61.3,55.8,30.00,SSE,158,0.0,0.0,82,0.00,,---,0.00,VWS V14.01,2013-02-22 08:42:00,
2013-02-22 03:43:00,61.3,55.8,30.00,SSE,158,0.0,0.0,82,0.00,,---,0.00,VWS V14.01,2013-02-22 08:43:00,
2013-02-22 03:44:00,61.3,55.8,30.00,SSE,158,0.0,0.0,82,0.00,,---,0.00,VWS V14.01,2013-02-22 08:44:00,
2013-02-22 03:45:00,61.3,55.8,30.00,SSE,158,0.0,0.0,82,0.00,,---,0.00,VWS V14.01,2013-02-22 08:45:00,
2013-02-22 03:46:00,61.3,56.1,30.00,SSE,158,0.0,0.0,83,0.00,,---,0.00,VWS V14.01,2013-02-22 08:46:00,
2013-02-22 03:47:00,61.3,56.1,30.00,SSE,158,0.0,0.0,83,0.00,,---,0.00,VWS V14.01,2013-02-22 08:47:00,
2013-02-22 03:48:00,61.3,56.1,30.00,SSE,158,0.0,0.0,83,0.00,,---,0.00,VWS V14.01,2013-02-22 08:48:00,
2013-02-22 03:49:00,61.3,56.1,30.00,SSE,158,0.0,0.0,83,0.00,,---,0.00,VWS V14.01,2013-02-22 08:49:00,
2013-02-22 03:50:00,61.3,56.1,30.00,SSE,158,0.0,0.0,83,0.00,,---,0.00,VWS V14.01,2013-02-22 08:50:00,
2013-02-22 03:51:00,61.3,56.1,30.00,SSE,158,0.0,0.0,83,0.00,,---,0.00,VWS V14.01,2013-02-22 08:51:00,
2013-02-22 03:52:00,61.3,56.1,30.00,SSE,158,0.0,0.0,83,0.00,,---,0.00,VWS V14.01,2013-02-22 08:52:00,
2013-02-22 03:53:00,61.2,56.0,30.00,SSE,158,0.0,0.0,83,0.00,,---,0.00,VWS V14.01,2013-02-22 08:53:00,
2013-02-22 03:54:00,61.2,56.0,30.00,SSE,158,0.0,0.0,83,0.00,,---,0.00,VWS V14.01,2013-02-22 08:54:00,
2013-02-22 03:55:00,61.3,56.1,30.00,SSE,158,0.0,0.0,83,0.00,,---,0.00,VWS V14.01,2013-02-22 08:55:00,
2013-02-22 03:56:00,61.3,56.1,30.00,SSE,158,0.0,0.0,83,0.00,,---,0.00,VWS V14.01,2013-02-22 08:56:00,
2013-02-22 03:57:00,61.3,56.1,30.00,SSE,158,0.0,0.0,83,0.00,,---,0.00,VWS V14.01,2013-02-22 08:57:00,
2013-02-22 03:58:00,61.3,56.1,30.00,SSE,158,0.0,0.0,83,0.00,,---,0.00,VWS V14.01,2013-02-22 08:58:00,
2013-02-22 03:59:00,61.3,56.1,30.00,SSE,158,0.0,0.0,83,0.00,,---,0.00,VWS V14.01,2013-02-22 08:59:00,
2013-02-22 04:00:00,61.3,56.1,30.00,SSE,158,0.0,0.0,83,0.00,,---,0.00,VWS V14.01,2013-02-22 09:00:00,
2013-02-22 04:01:00,61.3,56.1,30.00,SSE,158,0.0,0.0,83,0.00,,---,0.00,VWS V14.01,2013-02-22 09:01:00,
2013-02-22 04:02:00,61.2,56.0,30.00,SSE,158,0.0,0.0,83,0.00,,---,0.00,VWS V14.01,2013-02-22 09:02:00,
2013-02-22 04:03:00,61.3,56.1,30.00,SSE,158,0.0,0.0,83,0.00,,---,0.00,VWS V14.01,2013-02-22 09:03:00,
2013-02-22 04:04:00,61.3,56.1,30.00,SSE,158,0.0,0.0,83,0.00,,---,0.00,VWS V14.01,2013-02-22 09:04:00,
2013-02-22 04:05:00,61.3,56.1,30.00,SSE,158,0.0,0.0,83,0.00,,---,0.00,VWS V14.01,2013-02-22 09:05:00,
2013-02-22 04:06:00,61.3,56.1,30.00,SSE,158,0.0,0.0,83,0.00,,---,0.00,VWS V14.01,2013-02-22 09:06:00,
2013-02-22 04:07:00,61.3,56.1,30.00,SSE,158,0.0,0.0,83,0.00,,---,0.00,VWS V14.01,2013-02-22 09:07:00,
2013-02-22 04:08:00,61.2,56.0,30.00,SSE,158,0.0,0.0,83,0.00,,---,0.00,VWS V14.01,2013-02-22 09:08:00,
2013-02-22 04:09:00,61.2,56.0,30.00,SSE,158,0.0,0.0,83,0.00,,---,0.00,VWS V14.01,2013-02-22 09:09:00,
2013-02-22 04:10:00,61.2,56.0,30.00,SSE,158,0.0,0.0,83,0.00,,---,0.00,VWS V14.01,2013-02-22 09:10:00,
2013-02-22 04:11:00,61.2,56.0,30.00,SSE,158,0.0,0.0,83,0.00,,---,0.00,VWS V14.01,2013-02-22 09:11:00,
2013-02-22 04:12:00,61.3,56.1,30.00,SSE,158,0.0,0.0,83,0.00,,---,0.00,VWS V14.01,2013-02-22 09:12:00,
2013-02-22 04:13:00,61.2,56.0,30.00,SSE,158,0.0,0.0,83,0.00,,---,0.00,VWS V14.01,2013-02-22 09:13:00,
2013-02-22 04:14:00,61.3,56.1,30.00,SSE,158,0.0,0.0,83,0.00,,---,0.00,VWS V14.01,2013-02-22 09:14:00,
2013-02-22 04:15:00,61.3,56.1,30.00,SSE,158,0.0,0.0,83,0.00,,---,0.00,VWS V14.01,2013-02-22 09:15:00,
2013-02-22 04:16:00,61.3,56.1,30.00,SSE,158,0.0,0.0,83,0.00,,---,0.00,VWS V14.01,2013-02-22 09:16:00,
2013-02-22 04:17:00,61.2,56.0,30.00,SSE,158,0.0,0.0,83,0.00,,---,0.00,VWS V14.01,2013-02-22 09:17:00,
2013-02-22 04:18:00,61.3,56.5,30.00,SSE,158,0.0,0.0,84,0.00,,---,0.00,VWS V14.01,2013-02-22 09:18:00,
2013-02-22 04:19:00,61.3,56.5,30.00,SSE,158,0.0,0.0,84,0.00,,---,0.00,VWS V14.01,2013-02-22 09:19:00,
2013-02-22 04:20:00,61.3,56.1,30.00,SSE,158,0.0,0.0,83,0.00,,---,0.00,VWS V14.01,2013-02-22 09:20:00,
2013-02-22 04:21:00,61.3,56.1,30.00,SSE,158,0.0,0.0,83,0.00,,---,0.00,VWS V14.01,2013-02-22 09:21:00,
2013-02-22 04:22:00,61.2,56.3,30.00,SSE,158,0.0,0.0,84,0.00,,---,0.00,VWS V14.01,2013-02-22 09:22:00,
2013-02-22 04:23:00,61.2,56.0,30.00,SSE,158,0.0,0.0,83,0.00,,---,0.00,VWS V14.01,2013-02-22 09:23:00,
2013-02-22 04:24:00,61.2,56.0,30.00,SSE,158,0.0,0.0,83,0.00,,---,0.00,VWS V14.01,2013-02-22 09:24:00,
2013-02-22 04:25:00,61.2,56.0,30.00,SSE,158,0.0,0.0,83,0.00,,---,0.00,VWS V14.01,2013-02-22 09:25:00,
2013-02-22 04:26:00,61.2,56.0,30.00,SSE,158,0.0,0.0,83,0.00,,---,0.00,VWS V14.01,2013-02-22 09:26:00,
2013-02-22 04:27:00,61.0,56.1,30.00,SSE,158,0.0,0.0,84,0.00,,---,0.00,VWS V14.01,2013-02-22 09:27:00,
2013-02-22 04:28:00,61.2,56.0,30.00,SSE,158,0.0,0.0,83,0.00,,---,0.00,VWS V14.01,2013-02-22 09:28:00,
2013-02-22 04:29:00,61.2,56.3,30.00,SSE,158,0.0,0.0,84,0.00,,---,0.00,VWS V14.01,2013-02-22 09:29:00,
2013-02-22 04:30:00,61.2,56.3,30.00,SSE,158,0.0,0.0,84,0.00,,---,0.00,VWS V14.01,2013-02-22 09:30:00,
2013-02-22 04:31:00,60.8,55.9,30.00,SSE,158,0.0,0.0,84,0.00,,---,0.00,VWS V14.01,2013-02-22 09:31:00,
2013-02-22 04:32:00,61.0,56.1,30.00,SSE,158,0.0,0.0,84,0.00,,---,0.00,VWS V14.01,2013-02-22 09:32:00,
2013-02-22 04:33:00,61.0,56.1,30.00,SSE,158,0.0,0.0,84,0.00,,---,0.00,VWS V14.01,2013-02-22 09:33:00,
2013-02-22 04:34:00,61.0,56.1,30.00,SSE,158,0.0,0.0,84,0.00,,---,0.00,VWS V14.01,2013-02-22 09:34:00,
2013-02-22 04:35:00,61.0,56.1,30.00,SSE,158,0.0,0.0,84,0.00,,---,0.00,VWS V14.01,2013-02-22 09:35:00,
2013-02-22 04:36:00,60.6,55.8,30.00,SSE,158,0.0,0.0,84,0.00,,---,0.00,VWS V14.01,2013-02-22 09:36:00,
2013-02-22 04:37:00,61.0,56.1,30.00,SSE,158,0.0,0.0,84,0.00,,---,0.00,VWS V14.01,2013-02-22 09:37:00,
2013-02-22 04:38:00,61.0,56.1,30.00,SSE,158,0.0,0.0,84,0.00,,---,0.00,VWS V14.01,2013-02-22 09:38:00,
2013-02-22 04:39:00,60.8,55.9,30.00,SSE,158,0.0,0.0,84,0.00,,---,0.00,VWS V14.01,2013-02-22 09:39:00,
2013-02-22 04:40:00,60.8,55.9,30.00,SSE,158,0.0,0.0,84,0.00,,---,0.00,VWS V14.01,2013-02-22 09:40:00,
2013-02-22 04:41:00,60.4,55.6,30.00,SSE,158,0.0,0.0,84,0.00,,---,0.00,VWS V14.01,2013-02-22 09:41:00,
2013-02-22 04:42:00,60.8,55.9,30.00,SSE,158,0.0,0.0,84,0.00,,---,0.00,VWS V14.01,2013-02-22 09:42:00,
2013-02-22 04:43:00,60.6,55.8,30.00,SSE,158,0.0,0.0,84,0.00,,---,0.00,VWS V14.01,2013-02-22 09:43:00,
2013-02-22 04:44:00,60.6,55.8,30.00,SSE,158,0.0,0.0,84,0.00,,---,0.00,VWS V14.01,2013-02-22 09:44:00,
2013-02-22 04:45:00,60.6,55.8,30.00,SSE,158,0.0,0.0,84,0.00,,---,0.00,VWS V14.01,2013-02-22 09:45:00,
2013-02-22 04:46:00,60.4,55.9,30.00,SSE,158,0.0,0.0,85,0.00,,---,0.00,VWS V14.01,2013-02-22 09:46:00,
2013-02-22 04:47:00,60.6,55.8,30.00,SSE,158,0.0,0.0,84,0.00,,---,0.00,VWS V14.01,2013-02-22 09:47:00,
2013-02-22 04:48:00,60.4,55.6,30.00,SSE,158,0.0,0.0,84,0.00,,---,0.00,VWS V14.01,2013-02-22 09:48:00,
2013-02-22 04:49:00,60.4,55.6,30.00,SSE,158,0.0,0.0,84,0.00,,---,0.00,VWS V14.01,2013-02-22 09:49:00,
2013-02-22 04:50:00,60.4,55.6,30.00,SSE,158,0.0,0.0,84,0.00,,---,0.00,VWS V14.01,2013-02-22 09:50:00,
2013-02-22 04:51:00,60.3,55.7,30.03,SSE,158,0.0,0.0,85,0.00,,---,0.00,VWS V14.01,2013-02-22 09:51:00,
2013-02-22 04:52:00,60.4,55.6,30.00,SSE,158,0.0,0.0,84,0.00,,---,0.00,VWS V14.01,2013-02-22 09:52:00,
2013-02-22 04:53:00,60.4,55.6,30.00,SSE,158,0.0,0.0,84,0.00,,---,0.00,VWS V14.01,2013-02-22 09:53:00,
2013-02-22 04:54:00,60.4,55.9,30.00,SSE,158,0.0,0.0,85,0.00,,---,0.00,VWS V14.01,2013-02-22 09:54:00,
2013-02-22 04:55:00,60.4,55.9,30.00,SSE,158,0.0,0.0,85,0.00,,---,0.00,VWS V14.01,2013-02-22 09:55:00,
2013-02-22 04:56:00,60.4,56.2,30.03,SSE,158,0.0,0.0,86,0.00,,---,0.00,VWS V14.01,2013-02-22 09:56:00,
2013-02-22 04:57:00,60.4,55.9,30.00,SSE,158,0.0,0.0,85,0.00,,---,0.00,VWS V14.01,2013-02-22 09:57:00,
2013-02-22 04:58:00,60.4,55.9,30.03,SSE,158,0.0,0.0,85,0.00,,---,0.00,VWS V14.01,2013-02-22 09:58:00,
2013-02-22 04:59:00,60.4,55.9,30.03,SSE,158,0.0,0.0,85,0.00,,---,0.00,VWS V14.01,2013-02-22 09:59:00,
2013-02-22 05:00:00,60.3,55.7,30.03,SSE,158,0.0,0.0,85,0.00,,---,0.00,VWS V14.01,2013-02-22 10:00:00,
2013-02-22 05:01:00,60.3,55.7,30.03,SSE,158,0.0,0.0,85,0.00,,---,0.00,VWS V14.01,2013-02-22 10:01:00,
2013-02-22 05:02:00,60.6,56.7,30.03,SSE,158,0.0,0.0,87,0.00,,---,0.00,VWS V14.01,2013-02-22 10:02:00,
2013-02-22 05:03:00,60.4,55.9,30.03,SSE,158,0.0,0.0,85,0.00,,---,0.00,VWS V14.01,2013-02-22 10:03:00,
2013-02-22 05:04:00,60.4,56.2,30.03,SSE,158,0.0,0.0,86,0.00,,---,0.00,VWS V14.01,2013-02-22 10:04:00,
2013-02-22 05:05:00,60.4,56.2,30.03,SSE,158,0.0,0.0,86,0.00,,---,0.00,VWS V14.01,2013-02-22 10:05:00,
2013-02-22 05:06:00,60.4,56.2,30.03,SSE,158,0.0,0.0,86,0.00,,---,0.00,VWS V14.01,2013-02-22 10:06:00,
2013-02-22 05:07:00,60.8,56.9,30.00,SSE,158,0.0,0.0,87,0.00,,---,0.00,VWS V14.01,2013-02-22 10:07:00,
2013-02-22 05:08:00,60.6,56.4,30.03,SSE,158,0.0,0.0,86,0.00,,---,0.00,VWS V14.01,2013-02-22 10:08:00,
2013-02-22 05:09:00,60.6,56.7,30.03,SSE,158,0.0,0.0,87,0.00,,---,0.00,VWS V14.01,2013-02-22 10:09:00,
2013-02-22 05:10:00,60.6,56.7,30.03,SSE,158,0.0,0.0,87,0.00,,---,0.00,VWS V14.01,2013-02-22 10:10:00,
2013-02-22 05:11:00,60.6,56.7,30.03,SSE,158,0.0,0.0,87,0.00,,---,0.00,VWS V14.01,2013-02-22 10:11:00,
2013-02-22 05:12:00,61.7,58.1,30.00,SE,135,0.0,0.0,88,0.00,,---,0.00,VWS V14.01,2013-02-22 10:12:00,
2013-02-22 05:13:00,60.6,56.7,30.00,SSE,158,0.0,0.0,87,0.00,,---,0.00,VWS V14.01,2013-02-22 10:13:00,
2013-02-22 05:14:00,60.6,56.7,30.00,SSE,158,0.0,0.0,87,0.00,,---,0.00,VWS V14.01,2013-02-22 10:14:00,
2013-02-22 05:15:00,60.8,56.9,30.00,SSE,158,0.0,0.0,87,0.00,,---,0.00,VWS V14.01,2013-02-22 10:15:00,
2013-02-22 05:16:00,60.8,56.9,30.00,SSE,158,0.0,0.0,87,0.00,,---,0.00,VWS V14.01,2013-02-22 10:16:00,
2013-02-22 05:17:00,63.0,60.0,30.00,SSE,158,0.0,0.0,90,0.00,,---,0.00,VWS V14.01,2013-02-22 10:17:00,
2013-02-22 05:18:00,61.2,57.3,30.00,SSE,158,0.0,0.0,87,0.00,,---,0.00,VWS V14.01,2013-02-22 10:18:00,
2013-02-22 05:19:00,61.3,57.8,30.00,SSE,158,0.0,0.0,88,0.00,,---,0.00,VWS V14.01,2013-02-22 10:19:00,
2013-02-22 05:20:00,61.3,57.8,30.00,SSE,158,0.0,0.0,88,0.00,,---,0.00,VWS V14.01,2013-02-22 10:20:00,
2013-02-22 05:21:00,61.7,58.1,30.00,SE,135,0.0,0.0,88,0.00,,---,0.00,VWS V14.01,2013-02-22 10:21:00,
2013-02-22 05:22:00,63.3,60.7,30.00,SSE,158,0.0,0.0,91,0.00,,---,0.00,VWS V14.01,2013-02-22 10:22:00,
2013-02-22 05:23:00,62.2,59.0,30.00,SSE,158,0.0,0.9,89,0.00,,---,0.00,VWS V14.01,2013-02-22 10:23:00,
2013-02-22 05:24:00,62.6,59.3,30.00,SSE,158,0.0,0.0,89,0.00,,---,0.00,VWS V14.01,2013-02-22 10:24:00,
2013-02-22 05:25:00,63.0,59.7,30.00,SSE,158,0.0,0.0,89,0.00,,---,0.00,VWS V14.01,2013-02-22 10:25:00,
2013-02-22 05:26:00,63.0,60.0,30.00,SSE,158,0.0,0.0,90,0.00,,---,0.00,VWS V14.01,2013-02-22 10:26:00,
2013-02-22 05:27:00,63.5,60.8,30.00,SSE,158,0.0,0.0,91,0.00,,---,0.00,VWS V14.01,2013-02-22 10:27:00,
2013-02-22 05:28:00,63.1,60.5,30.00,SSE,158,0.0,0.0,91,0.00,,---,0.00,VWS V14.01,2013-02-22 10:28:00,
2013-02-22 05:29:00,63.1,60.5,30.00,SSE,158,0.0,0.0,91,0.00,,---,0.00,VWS V14.01,2013-02-22 10:29:00,
2013-02-22 05:30:00,63.1,60.5,30.00,SSE,158,0.0,0.0,91,0.00,,---,0.00,VWS V14.01,2013-02-22 10:30:00,
2013-02-22 05:31:00,63.3,60.7,30.00,SSE,158,0.0,0.0,91,0.00,,---,0.00,VWS V14.01,2013-02-22 10:31:00,
2013-02-22 05:32:00,63.7,61.0,30.00,SSE,158,0.0,0.9,91,0.00,,---,0.00,VWS V14.01,2013-02-22 10:32:00,
2013-02-22 05:33:00,63.3,60.7,30.00,SSE,158,0.0,0.0,91,0.00,,---,0.00,VWS V14.01,2013-02-22 10:33:00,
2013-02-22 05:34:00,63.5,60.8,30.00,SSE,158,0.0,0.0,91,0.00,,---,0.00,VWS V14.01,2013-02-22 10:34:00,
2013-02-22 05:35:00,63.5,60.8,30.00,SSE,158,0.0,0.0,91,0.00,,---,0.00,VWS V14.01,2013-02-22 10:35:00,
2013-02-22 05:36:00,63.7,61.0,30.03,SSE,158,0.0,0.0,91,0.00,,---,0.00,VWS V14.01,2013-02-22 10:36:00,
2013-02-22 05:37:00,63.5,60.8,30.00,SSE,158,0.0,0.0,91,0.00,,---,0.00,VWS V14.01,2013-02-22 10:37:00,
2013-02-22 05:38:00,63.5,60.8,30.00,SSE,158,0.0,0.0,91,0.00,,---,0.00,VWS V14.01,2013-02-22 10:38:00,
2013-02-22 05:39:00,63.5,60.8,30.00,SSE,158,0.0,0.0,91,0.00,,---,0.00,VWS V14.01,2013-02-22 10:39:00,
2013-02-22 05:40:00,63.5,60.8,30.00,SSE,158,0.0,0.0,91,0.00,,---,0.00,VWS V14.01,2013-02-22 10:40:00,
2013-02-22 05:41:00,63.5,60.5,30.03,SE,135,0.0,0.0,90,0.00,,---,0.00,VWS V14.01,2013-02-22 10:41:00,
2013-02-22 05:42:00,63.7,61.0,30.00,SSE,158,0.0,0.0,91,0.00,,---,0.00,VWS V14.01,2013-02-22 10:42:00,
2013-02-22 05:43:00,63.7,61.0,30.03,SSE,158,0.0,0.0,91,0.00,,---,0.00,VWS V14.01,2013-02-22 10:43:00,
2013-02-22 05:44:00,63.7,61.0,30.03,SSE,158,0.0,0.0,91,0.00,,---,0.00,VWS V14.01,2013-02-22 10:44:00,
2013-02-22 05:45:00,63.7,61.0,30.03,SSE,158,0.0,0.0,91,0.00,,---,0.00,VWS V14.01,2013-02-22 10:45:00,
2013-02-22 05:46:00,63.1,59.8,30.03,SE,135,0.0,0.0,89,0.00,,---,0.00,VWS V14.01,2013-02-22 10:46:00,
2013-02-22 05:47:00,63.7,61.0,30.03,SE,135,0.0,0.0,91,0.00,,---,0.00,VWS V14.01,2013-02-22 10:47:00,
2013-02-22 05:48:00,63.7,61.0,30.03,SE,135,0.0,0.0,91,0.00,,---,0.00,VWS V14.01,2013-02-22 10:48:00,
2013-02-22 05:49:00,63.7,61.0,30.03,SE,135,0.0,0.0,91,0.00,,---,0.00,VWS V14.01,2013-02-22 10:49:00,
2013-02-22 05:50:00,63.5,60.5,30.03,SE,135,0.0,0.0,90,0.00,,---,0.00,VWS V14.01,2013-02-22 10:50:00,
2013-02-22 05:51:00,62.8,59.2,30.03,SE,135,0.0,0.0,88,0.00,,---,0.00,VWS V14.01,2013-02-22 10:51:00,
2013-02-22 05:52:00,63.3,60.3,30.03,SE,135,0.0,0.0,90,0.00,,---,0.00,VWS V14.01,2013-02-22 10:52:00,
2013-02-22 05:53:00,63.1,59.8,30.03,SE,135,0.0,0.0,89,0.00,,---,0.00,VWS V14.01,2013-02-22 10:53:00,
2013-02-22 05:54:00,63.1,59.8,30.03,SE,135,0.0,0.0,89,0.00,,---,0.00,VWS V14.01,2013-02-22 10:54:00,
2013-02-22 05:55:00,63.1,59.8,30.03,SE,135,0.0,0.0,89,0.00,,---,0.00,VWS V14.01,2013-02-22 10:55:00,
2013-02-22 05:56:00,62.6,59.0,30.03,SE,135,0.0,0.0,88,0.00,,---,0.00,VWS V14.01,2013-02-22 10:56:00,
2013-02-22 05:57:00,63.0,59.4,30.03,SE,135,0.0,0.0,88,0.00,,---,0.00,VWS V14.01,2013-02-22 10:57:00,
2013-02-22 05:58:00,63.0,59.4,30.03,SE,135,0.0,0.0,88,0.00,,---,0.00,VWS V14.01,2013-02-22 10:58:00,
2013-02-22 05:59:00,62.8,59.2,30.03,SE,135,0.0,0.0,88,0.00,,---,0.00,VWS V14.01,2013-02-22 10:59:00,
2013-02-22 06:00:00,62.8,59.2,30.03,SE,135,0.0,0.0,88,0.00,,---,0.00,VWS V14.01,2013-02-22 11:00:00,
2013-02-22 06:01:00,62.4,58.8,30.03,SE,135,0.0,0.0,88,0.00,,---,0.00,VWS V14.01,2013-02-22 11:01:00,
2013-02-22 06:02:00,62.8,59.2,30.03,SE,135,0.0,0.0,88,0.00,,---,0.00,VWS V14.01,2013-02-22 11:02:00,
2013-02-22 06:03:00,62.8,59.2,30.03,SE,135,0.0,0.0,88,0.00,,---,0.00,VWS V14.01,2013-02-22 11:03:00,
2013-02-22 06:04:00,62.8,59.2,30.03,SE,135,0.0,0.0,88,0.00,,---,0.00,VWS V14.01,2013-02-22 11:04:00,
2013-02-22 06:05:00,62.6,59.0,30.03,SE,135,0.0,0.0,88,0.00,,---,0.00,VWS V14.01,2013-02-22 11:05:00,
2013-02-22 06:06:00,62.2,58.7,30.03,SE,135,0.0,0.0,88,0.00,,---,0.00,VWS V14.01,2013-02-22 11:06:00,
2013-02-22 06:07:00,62.4,58.8,30.03,SE,135,0.0,0.0,88,0.00,,---,0.00,VWS V14.01,2013-02-22 11:07:00,
2013-02-22 06:08:00,62.4,58.8,30.03,SE,135,0.0,0.0,88,0.00,,---,0.00,VWS V14.01,2013-02-22 11:08:00,
2013-02-22 06:09:00,62.4,58.8,30.03,SE,135,0.0,0.0,88,0.00,,---,0.00,VWS V14.01,2013-02-22 11:09:00,
2013-02-22 06:10:00,62.4,58.8,30.03,SE,135,0.0,0.0,88,0.00,,---,0.00,VWS V14.01,2013-02-22 11:10:00,
2013-02-22 06:11:00,62.2,58.7,30.03,SE,135,0.0,0.0,88,0.00,,---,0.00,VWS V14.01,2013-02-22 11:11:00,
2013-02-22 06:12:00,62.4,58.8,30.03,SE,135,0.0,0.0,88,0.00,,---,0.00,VWS V14.01,2013-02-22 11:12:00,
2013-02-22 06:13:00,62.4,58.8,30.03,SE,135,0.0,0.0,88,0.00,,---,0.00,VWS V14.01,2013-02-22 11:13:00,
2013-02-22 06:14:00,62.4,58.8,30.03,SE,135,0.0,0.0,88,0.00,,---,0.00,VWS V14.01,2013-02-22 11:14:00,
2013-02-22 06:15:00,62.4,58.8,30.03,SE,135,0.0,0.0,88,0.00,,---,0.00,VWS V14.01,2013-02-22 11:15:00,
2013-02-22 06:16:00,62.2,59.0,30.03,SE,135,0.0,0.0,89,0.00,,---,0.00,VWS V14.01,2013-02-22 11:16:00,
2013-02-22 06:17:00,62.2,58.7,30.03,SE,135,0.0,0.0,88,0.00,,---,0.00,VWS V14.01,2013-02-22 11:17:00,
2013-02-22 06:18:00,62.2,58.7,30.03,SE,135,0.0,0.0,88,0.00,,---,0.00,VWS V14.01,2013-02-22 11:18:00,
2013-02-22 06:19:00,62.2,58.7,30.03,SE,135,0.0,0.0,88,0.00,,---,0.00,VWS V14.01,2013-02-22 11:19:00,
2013-02-22 06:20:00,62.2,58.7,30.03,SE,135,0.0,0.0,88,0.00,,---,0.00,VWS V14.01,2013-02-22 11:20:00,
2013-02-22 06:21:00,62.2,59.0,30.03,SE,135,0.0,0.0,89,0.00,,---,0.00,VWS V14.01,2013-02-22 11:21:00,
2013-02-22 06:22:00,62.2,58.7,30.03,SE,135,0.0,0.0,88,0.00,,---,0.00,VWS V14.01,2013-02-22 11:22:00,
2013-02-22 06:23:00,62.2,58.7,30.03,SE,135,0.0,0.0,88,0.00,,---,0.00,VWS V14.01,2013-02-22 11:23:00,
2013-02-22 06:24:00,62.2,58.7,30.03,SE,135,0.0,0.0,88,0.00,,---,0.00,VWS V14.01,2013-02-22 11:24:00,
2013-02-22 06:25:00,62.2,58.7,30.03,SE,135,0.0,0.0,88,0.00,,---,0.00,VWS V14.01,2013-02-22 11:25:00,
2013-02-22 06:26:00,62.2,59.0,30.03,SE,135,0.0,0.0,89,0.00,,---,0.00,VWS V14.01,2013-02-22 11:26:00,
2013-02-22 06:27:00,62.2,59.0,30.03,SE,135,0.0,0.0,89,0.00,,---,0.00,VWS V14.01,2013-02-22 11:27:00,
2013-02-22 06:28:00,62.2,59.0,30.03,SE,135,0.0,0.0,89,0.00,,---,0.00,VWS V14.01,2013-02-22 11:28:00,
2013-02-22 06:29:00,62.1,58.8,30.03,SE,135,0.0,0.0,89,0.00,,---,0.00,VWS V14.01,2013-02-22 11:29:00,
2013-02-22 06:30:00,62.1,58.8,30.03,SE,135,0.0,0.0,89,0.00,,---,0.00,VWS V14.01,2013-02-22 11:30:00,
2013-02-22 06:31:00,62.6,59.3,30.03,SSE,158,0.0,0.0,89,0.00,,---,0.00,VWS V14.01,2013-02-22 11:31:00,
2013-02-22 06:32:00,62.2,59.0,30.03,SE,135,0.0,0.0,89,0.00,,---,0.00,VWS V14.01,2013-02-22 11:32:00,
2013-02-22 06:33:00,62.2,59.0,30.03,SE,135,0.0,0.0,89,0.00,,---,0.00,VWS V14.01,2013-02-22 11:33:00,
2013-02-22 06:34:00,62.2,59.0,30.03,SE,135,0.0,0.0,89,0.00,,---,0.00,VWS V14.01,2013-02-22 11:34:00,
2013-02-22 06:35:00,62.2,59.0,30.03,SE,135,0.0,0.0,89,0.00,,---,0.00,VWS V14.01,2013-02-22 11:35:00,
2013-02-22 06:36:00,62.8,59.5,30.03,SSE,158,0.0,0.0,89,0.00,,---,0.00,VWS V14.01,2013-02-22 11:36:00,
2013-02-22 06:37:00,62.2,59.0,30.03,SE,135,0.0,0.0,89,0.00,,---,0.00,VWS V14.01,2013-02-22 11:37:00,
2013-02-22 06:38:00,62.2,59.0,30.03,SE,135,0.0,0.0,89,0.00,,---,0.00,VWS V14.01,2013-02-22 11:38:00,
2013-02-22 06:39:00,62.2,59.0,30.03,SE,135,0.0,0.0,89,0.00,,---,0.00,VWS V14.01,2013-02-22 11:39:00,
2013-02-22 06:40:00,62.4,59.1,30.03,SSE,158,0.0,0.0,89,0.00,,---,0.00,VWS V14.01,2013-02-22 11:40:00,
2013-02-22 06:41:00,63.3,60.3,30.03,South,180,0.0,0.0,90,0.00,,---,0.00,VWS V14.01,2013-02-22 11:41:00,
2013-02-22 06:42:00,62.6,59.3,30.03,SSE,158,0.0,0.0,89,0.00,,---,0.00,VWS V14.01,2013-02-22 11:42:00,
2013-02-22 06:43:00,62.6,59.3,30.03,SSE,158,0.0,0.0,89,0.00,,---,0.00,VWS V14.01,2013-02-22 11:43:00,
2013-02-22 06:44:00,62.8,59.5,30.03,SSE,158,0.0,0.0,89,0.00,,---,0.00,VWS V14.01,2013-02-22 11:44:00,
2013-02-22 06:45:00,62.6,59.3,30.03,SSE,158,0.0,0.0,89,0.00,,---,0.00,VWS V14.01,2013-02-22 11:45:00,
2013-02-22 06:46:00,63.7,61.0,30.03,SSE,158,0.0,0.0,91,0.00,,---,0.00,VWS V14.01,2013-02-22 11:46:00,
2013-02-22 06:47:00,63.0,60.0,30.03,SE,135,0.0,0.0,90,0.00,,---,0.00,VWS V14.01,2013-02-22 11:47:00,
2013-02-22 06:48:00,63.0,60.0,30.03,SSE,158,0.0,0.0,90,0.00,,---,0.00,VWS V14.01,2013-02-22 11:48:00,
2013-02-22 06:49:00,63.1,60.2,30.03,SSE,158,0.0,0.0,90,0.00,,---,0.00,VWS V14.01,2013-02-22 11:49:00,
2013-02-22 06:50:00,63.1,60.2,30.03,SSE,158,0.0,0.0,90,0.00,,---,0.00,VWS V14.01,2013-02-22 11:50:00,
2013-02-22 06:51:00,64.0,62.0,30.03,SSE,158,0.0,0.0,93,0.00,,---,0.00,VWS V14.01,2013-02-22 11:51:00,
2013-02-22 06:52:00,63.5,60.8,30.03,SSE,158,0.0,2.2,91,0.00,,---,0.00,VWS V14.01,2013-02-22 11:52:00,
2013-02-22 06:53:00,63.5,60.8,30.03,SSE,158,0.0,0.0,91,0.00,,---,0.00,VWS V14.01,2013-02-22 11:53:00,
2013-02-22 06:54:00,63.7,61.0,30.03,SSE,158,0.0,0.0,91,0.00,,---,0.00,VWS V14.01,2013-02-22 11:54:00,
2013-02-22 06:55:00,63.7,61.0,30.03,SSE,158,0.0,0.0,91,0.00,,---,0.00,VWS V14.01,2013-02-22 11:55:00,
2013-02-22 06:56:00,64.2,62.2,30.03,SSE,158,0.9,0.9,93,0.00,,---,0.00,VWS V14.01,2013-02-22 11:56:00,
2013-02-22 06:57:00,63.7,61.0,30.03,SSE,158,0.0,0.0,91,0.00,,---,0.00,VWS V14.01,2013-02-22 11:57:00,
2013-02-22 06:58:00,63.9,61.5,30.03,SSE,158,0.0,2.0,92,0.00,,---,0.00,VWS V14.01,2013-02-22 11:58:00,
2013-02-22 06:59:00,63.9,61.5,30.03,SSE,158,0.0,0.9,92,0.00,,---,0.00,VWS V14.01,2013-02-22 11:59:00,
2013-02-22 07:00:00,64.0,61.7,30.03,SSE,158,0.0,1.3,92,0.00,,---,0.00,VWS V14.01,2013-02-22 12:00:00,
2013-02-22 07:01:00,64.4,62.3,30.03,SSE,158,0.0,0.0,93,0.00,,---,0.00,VWS V14.01,2013-02-22 12:01:00,
2013-02-22 07:02:00,64.2,62.2,30.03,SSE,158,1.6,3.6,93,0.00,,---,0.00,VWS V14.01,2013-02-22 12:02:00,
2013-02-22 07:03:00,64.2,62.2,30.03,SSE,158,0.0,1.6,93,0.00,,---,0.00,VWS V14.01,2013-02-22 12:03:00,
2013-02-22 07:04:00,64.2,62.2,30.03,SSE,158,0.0,0.0,93,0.00,,---,0.00,VWS V14.01,2013-02-22 12:04:00,
2013-02-22 07:05:00,64.2,62.2,30.03,SSE,158,0.0,3.1,93,0.00,,---,0.00,VWS V14.01,2013-02-22 12:05:00,
2013-02-22 07:06:00,64.8,62.7,30.03,SSE,158,4.3,4.3,93,0.00,,---,0.00,VWS V14.01,2013-02-22 12:06:00,
2013-02-22 07:07:00,64.4,62.3,30.03,SSE,158,0.0,0.9,93,0.00,,---,0.00,VWS V14.01,2013-02-22 12:07:00,
2013-02-22 07:08:00,64.4,62.3,30.03,SSE,158,0.0,2.0,93,0.00,,---,0.00,VWS V14.01,2013-02-22 12:08:00,
2013-02-22 07:09:00,64.4,62.3,30.03,SSE,158,0.0,1.6,93,0.00,,---,0.00,VWS V14.01,2013-02-22 12:09:00,
2013-02-22 07:10:00,64.6,62.5,30.03,SSE,158,0.0,0.0,93,0.00,,---,0.00,VWS V14.01,2013-02-22 12:10:00,
2013-02-22 07:11:00,64.8,63.0,30.03,SSE,158,1.1,3.6,94,0.00,,---,0.00,VWS V14.01,2013-02-22 12:11:00,
2013-02-22 07:12:00,64.6,62.5,30.03,SSE,158,2.9,3.1,93,0.00,,---,0.00,VWS V14.01,2013-02-22 12:12:00,
2013-02-22 07:13:00,64.6,62.5,30.03,SSE,158,0.0,3.6,93,0.00,,---,0.00,VWS V14.01,2013-02-22 12:13:00,
2013-02-22 07:14:00,64.6,62.5,30.03,SSE,158,0.0,0.0,93,0.00,,---,0.00,VWS V14.01,2013-02-22 12:14:00,
2013-02-22 07:15:00,64.8,62.7,30.03,SSE,158,1.6,3.8,93,0.00,,---,0.00,VWS V14.01,2013-02-22 12:15:00,
2013-02-22 07:16:00,64.9,62.9,30.03,SSE,158,3.8,3.8,93,0.00,,---,0.00,VWS V14.01,2013-02-22 12:16:00,
2013-02-22 07:17:00,64.8,63.0,30.03,SSE,158,2.7,4.3,94,0.00,,---,0.00,VWS V14.01,2013-02-22 12:17:00,
2013-02-22 07:18:00,64.8,63.0,30.03,SSE,158,1.1,2.7,94,0.00,,---,0.00,VWS V14.01,2013-02-22 12:18:00,
2013-02-22 07:19:00,64.8,63.0,30.03,SSE,158,0.0,1.1,94,0.00,,---,0.00,VWS V14.01,2013-02-22 12:19:00,
2013-02-22 07:20:00,64.8,63.0,30.03,SSE,158,0.0,2.2,94,0.00,,---,0.00,VWS V14.01,2013-02-22 12:20:00,
2013-02-22 07:21:00,65.1,63.0,30.00,SSE,158,0.0,3.4,93,0.00,,---,0.00,VWS V14.01,2013-02-22 12:21:00,
2013-02-22 07:22:00,64.8,62.7,30.03,SSE,158,0.0,1.1,93,0.00,,---,0.00,VWS V14.01,2013-02-22 12:22:00,
2013-02-22 07:23:00,64.9,62.9,30.03,SSE,158,0.0,0.0,93,0.00,,---,0.00,VWS V14.01,2013-02-22 12:23:00,
2013-02-22 07:24:00,64.9,62.9,30.03,SSE,158,0.0,0.0,93,0.00,,---,0.00,VWS V14.01,2013-02-22 12:24:00,
2013-02-22 07:25:00,64.9,62.9,30.03,SSE,158,1.6,4.9,93,0.00,,---,0.00,VWS V14.01,2013-02-22 12:25:00,
2013-02-22 07:26:00,65.1,63.0,30.00,SSE,158,0.0,0.0,93,0.00,,---,0.00,VWS V14.01,2013-02-22 12:26:00,
2013-02-22 07:27:00,65.1,63.0,30.03,SSE,158,0.0,2.9,93,0.00,,---,0.00,VWS V14.01,2013-02-22 12:27:00,
2013-02-22 07:28:00,65.1,63.0,30.00,SSE,158,0.0,0.0,93,0.00,,---,0.00,VWS V14.01,2013-02-22 12:28:00,
2013-02-22 07:29:00,65.1,63.0,30.00,SSE,158,0.0,0.0,93,0.00,,---,0.00,VWS V14.01,2013-02-22 12:29:00,
2013-02-22 07:30:00,65.1,63.0,30.00,SSE,158,0.0,2.5,93,0.00,,---,0.00,VWS V14.01,2013-02-22 12:30:00,
2013-02-22 07:31:00,65.5,63.1,30.00,SSE,158,0.0,0.0,92,0.00,,---,0.00,VWS V14.01,2013-02-22 12:31:00,
2013-02-22 07:32:00,65.1,63.0,30.00,SSE,158,0.0,0.0,93,0.00,,---,0.00,VWS V14.01,2013-02-22 12:32:00,
2013-02-22 07:33:00,65.1,63.0,30.00,SE,135,0.0,0.0,93,0.00,,---,0.00,VWS V14.01,2013-02-22 12:33:00,
2013-02-22 07:34:00,65.1,63.0,30.00,South,180,0.0,0.0,93,0.00,,---,0.00,VWS V14.01,2013-02-22 12:34:00,
2013-02-22 07:35:00,65.1,63.0,30.00,SSE,158,0.0,1.6,93,0.00,,---,0.00,VWS V14.01,2013-02-22 12:35:00,
2013-02-22 07:36:00,65.8,63.5,30.03,SSE,158,0.0,0.0,92,0.00,,---,0.00,VWS V14.01,2013-02-22 12:36:00,
2013-02-22 07:37:00,65.1,63.0,30.00,SE,135,0.0,0.0,93,0.00,,---,0.00,VWS V14.01,2013-02-22 12:37:00,
2013-02-22 07:38:00,65.3,63.2,30.00,SSE,158,0.0,0.9,93,0.00,,---,0.00,VWS V14.01,2013-02-22 12:38:00,
2013-02-22 07:39:00,65.3,63.2,30.00,SSE,158,0.0,0.0,93,0.00,,---,0.00,VWS V14.01,2013-02-22 12:39:00,
2013-02-22 07:40:00,65.5,63.4,30.00,SSE,158,0.0,0.0,93,0.00,,---,0.00,VWS V14.01,2013-02-22 12:40:00,
2013-02-22 07:41:00,66.0,63.3,30.03,SE,135,0.0,3.4,91,0.00,,---,0.00,VWS V14.01,2013-02-22 12:41:00,
2013-02-22 07:42:00,65.7,63.3,30.00,SSE,158,0.0,0.0,92,0.00,,---,0.00,VWS V14.01,2013-02-22 12:42:00,
2013-02-22 07:43:00,65.7,63.3,30.03,SSE,158,0.0,0.0,92,0.00,,---,0.00,VWS V14.01,2013-02-22 12:43:00,
2013-02-22 07:44:00,65.8,63.5,30.03,SSE,158,0.0,0.0,92,0.00,,---,0.00,VWS V14.01,2013-02-22 12:44:00,
2013-02-22 07:45:00,65.8,63.5,30.03,SSE,158,0.0,0.0,92,0.00,,---,0.00,VWS V14.01,2013-02-22 12:45:00,
2013-02-22 07:46:00,66.0,63.0,30.03,SSE,158,0.0,0.0,90,0.00,,---,0.00,VWS V14.01,2013-02-22 12:46:00,
2013-02-22 07:47:00,65.8,63.5,30.03,SSE,158,0.0,2.2,92,0.00,,---,0.00,VWS V14.01,2013-02-22 12:47:00,
2013-02-22 07:48:00,65.8,63.5,30.03,SSW,202,0.0,0.0,92,0.00,,---,0.00,VWS V14.01,2013-02-22 12:48:00,
2013-02-22 07:49:00,66.0,63.3,30.03,SSE,158,0.0,1.3,91,0.00,,---,0.00,VWS V14.01,2013-02-22 12:49:00,
2013-02-22 07:50:00,66.0,63.3,30.03,SE,135,3.4,3.4,91,0.00,,---,0.00,VWS V14.01,2013-02-22 12:50:00,
2013-02-22 07:51:00,66.2,62.9,30.03,SSE,158,0.0,3.6,89,0.00,,---,0.00,VWS V14.01,2013-02-22 12:51:00,
2013-02-22 07:52:00,66.0,63.3,30.03,SSE,158,2.7,2.9,91,0.00,,---,0.00,VWS V14.01,2013-02-22 12:52:00,
2013-02-22 07:53:00,66.0,63.0,30.03,SSE,158,0.0,3.8,90,0.00,,---,0.00,VWS V14.01,2013-02-22 12:53:00,
2013-02-22 07:54:00,66.0,63.0,30.03,SSW,202,2.5,2.5,90,0.00,,---,0.00,VWS V14.01,2013-02-22 12:54:00,
2013-02-22 07:55:00,66.0,63.0,30.03,SSE,158,0.0,2.5,90,0.00,,---,0.00,VWS V14.01,2013-02-22 12:55:00,
2013-02-22 07:56:00,66.6,62.9,30.03,SSE,158,0.0,0.0,88,0.00,,---,0.00,VWS V14.01,2013-02-22 12:56:00,
2013-02-22 07:57:00,66.0,63.0,30.03,SSE,158,0.0,0.0,90,0.00,,---,0.00,VWS V14.01,2013-02-22 12:57:00,
2013-02-22 07:58:00,66.0,63.0,30.03,SSE,158,0.0,0.0,90,0.00,,---,0.00,VWS V14.01,2013-02-22 12:58:00,
2013-02-22 07:59:00,66.0,63.0,30.03,SSE,158,0.0,5.6,90,0.00,,---,0.00,VWS V14.01,2013-02-22 12:59:00,
2013-02-22 08:00:00,66.2,62.9,30.03,SSE,158,3.6,3.6,89,0.00,,---,0.00,VWS V14.01,2013-02-22 13:00:00,
2013-02-22 08:01:00,66.6,62.6,30.03,South,180,0.0,0.0,87,0.00,,---,0.00,VWS V14.01,2013-02-22 13:01:00,
2013-02-22 08:02:00,66.4,63.0,30.03,SSE,158,2.7,2.7,89,0.00,,---,0.00,VWS V14.01,2013-02-22 13:02:00,
2013-02-22 08:03:00,66.4,63.0,30.03,SSE,158,0.0,2.7,89,0.00,,---,0.00,VWS V14.01,2013-02-22 13:03:00,
2013-02-22 08:04:00,66.4,63.0,30.03,SSE,158,0.0,0.0,89,0.00,,---,0.00,VWS V14.01,2013-02-22 13:04:00,
2013-02-22 08:05:00,66.4,62.7,30.03,SSE,158,0.0,0.0,88,0.00,,---,0.00,VWS V14.01,2013-02-22 13:05:00,
2013-02-22 08:06:00,66.7,62.4,30.03,SSE,158,0.0,5.6,86,0.00,,---,0.00,VWS V14.01,2013-02-22 13:06:00,
2013-02-22 08:07:00,66.6,62.9,30.03,SSE,158,2.5,2.5,88,0.00,,---,0.00,VWS V14.01,2013-02-22 13:07:00,
2013-02-22 08:08:00,66.6,62.9,30.03,SSE,158,0.0,4.3,88,0.00,,---,0.00,VWS V14.01,2013-02-22 13:08:00,
2013-02-22 08:09:00,66.6,62.6,30.03,SSE,158,0.0,1.6,87,0.00,,---,0.00,VWS V14.01,2013-02-22 13:09:00,
2013-02-22 08:10:00,66.6,62.6,30.03,SSE,158,0.0,1.1,87,0.00,,---,0.00,VWS V14.01,2013-02-22 13:10:00,
2013-02-22 08:11:00,66.9,62.3,30.03,SSE,158,0.0,0.9,85,0.00,,---,0.00,VWS V14.01,2013-02-22 13:11:00,
2013-02-22 08:12:00,66.6,62.6,30.03,SSW,202,0.0,0.0,87,0.00,,---,0.00,VWS V14.01,2013-02-22 13:12:00,
2013-02-22 08:13:00,66.7,62.8,30.03,SSW,202,0.0,0.0,87,0.00,,---,0.00,VWS V14.01,2013-02-22 13:13:00,
2013-02-22 08:14:00,66.6,62.6,30.03,SSE,158,0.0,3.8,87,0.00,,---,0.00,VWS V14.01,2013-02-22 13:14:00,
2013-02-22 08:15:00,66.7,62.8,30.03,SSE,158,4.0,4.0,87,0.00,,---,0.00,VWS V14.01,2013-02-22 13:15:00,
2013-02-22 08:16:00,67.3,62.3,30.03,SE,135,0.0,0.0,84,0.00,,---,0.00,VWS V14.01,2013-02-22 13:16:00,
2013-02-22 08:17:00,66.7,62.4,30.03,SSE,158,0.0,4.0,86,0.00,,---,0.00,VWS V14.01,2013-02-22 13:17:00,
2013-02-22 08:18:00,66.9,62.6,30.03,SSE,158,0.0,0.0,86,0.00,,---,0.00,VWS V14.01,2013-02-22 13:18:00,
2013-02-22 08:19:00,66.9,62.6,30.03,SSE,158,0.0,0.0,86,0.00,,---,0.00,VWS V14.01,2013-02-22 13:19:00,
2013-02-22 08:20:00,66.9,62.3,30.03,SSE,158,0.0,0.0,85,0.00,,---,0.00,VWS V14.01,2013-02-22 13:20:00,
2013-02-22 08:21:00,67.5,61.8,30.03,South,180,2.2,7.4,82,0.00,,---,0.00,VWS V14.01,2013-02-22 13:21:00,
2013-02-22 08:22:00,67.1,62.5,30.03,SSE,158,2.9,4.3,85,0.00,,---,0.00,VWS V14.01,2013-02-22 13:22:00,
2013-02-22 08:23:00,67.1,62.5,30.03,SSE,158,6.0,6.0,85,0.00,,---,0.00,VWS V14.01,2013-02-22 13:23:00,
2013-02-22 08:24:00,67.1,62.1,30.03,SSE,158,0.0,6.9,84,0.00,,---,0.00,VWS V14.01,2013-02-22 13:24:00,
2013-02-22 08:25:00,67.3,62.3,30.03,SSE,158,0.0,0.9,84,0.00,,---,0.00,VWS V14.01,2013-02-22 13:25:00,
2013-02-22 08:26:00,67.6,62.0,30.03,SSE,158,2.2,3.8,82,0.00,,---,0.00,VWS V14.01,2013-02-22 13:26:00,
2013-02-22 08:27:00,67.3,62.3,30.03,SSE,158,0.0,2.9,84,0.00,,---,0.00,VWS V14.01,2013-02-22 13:27:00,
2013-02-22 08:28:00,67.3,62.3,30.03,SSE,158,0.0,3.4,84,0.00,,---,0.00,VWS V14.01,2013-02-22 13:28:00,
2013-02-22 08:29:00,67.3,62.0,30.03,SSE,158,0.0,6.3,83,0.00,,---,0.00,VWS V14.01,2013-02-22 13:29:00,
2013-02-22 08:30:00,67.3,61.6,30.03,SSE,158,2.9,2.9,82,0.00,,---,0.00,VWS V14.01,2013-02-22 13:30:00,
2013-02-22 08:31:00,67.8,61.8,30.03,SSE,158,3.8,6.5,81,0.00,,---,0.00,VWS V14.01,2013-02-22 13:31:00,
2013-02-22 08:32:00,67.5,61.8,30.03,SSE,158,2.7,4.7,82,0.00,,---,0.00,VWS V14.01,2013-02-22 13:32:00,
2013-02-22 08:33:00,67.5,61.8,30.03,SSE,158,0.0,6.0,82,0.00,,---,0.00,VWS V14.01,2013-02-22 13:33:00,
2013-02-22 08:34:00,67.5,61.8,30.03,SSE,158,4.3,4.3,82,0.00,,---,0.00,VWS V14.01,2013-02-22 13:34:00,
2013-02-22 08:35:00,67.6,62.0,30.03,South,180,3.8,5.8,82,0.00,,---,0.00,VWS V14.01,2013-02-22 13:35:00,
2013-02-22 08:36:00,68.0,61.6,30.03,SSE,158,5.4,5.4,80,0.00,,---,0.00,VWS V14.01,2013-02-22 13:36:00,
2013-02-22 08:37:00,67.6,61.6,30.03,SSE,158,1.6,6.3,81,0.00,,---,0.00,VWS V14.01,2013-02-22 13:37:00,
2013-02-22 08:38:00,67.6,61.6,30.03,SE,135,4.3,5.4,81,0.00,,---,0.00,VWS V14.01,2013-02-22 13:38:00,
2013-02-22 08:39:00,67.8,61.8,30.03,SSE,158,5.4,5.4,81,0.00,,---,0.00,VWS V14.01,2013-02-22 13:39:00,
2013-02-22 08:40:00,67.8,61.8,30.03,SSE,158,6.5,6.5,81,0.00,,---,0.00,VWS V14.01,2013-02-22 13:40:00,
2013-02-22 08:41:00,68.2,61.4,30.03,SSE,158,2.5,5.6,79,0.00,,---,0.00,VWS V14.01,2013-02-22 13:41:00,
2013-02-22 08:42:00,67.8,61.8,30.03,SSW,202,4.0,4.0,81,0.00,,---,0.00,VWS V14.01,2013-02-22 13:42:00,
2013-02-22 08:43:00,67.8,61.8,30.03,SSE,158,0.0,4.0,81,0.00,,---,0.00,VWS V14.01,2013-02-22 13:43:00,
2013-02-22 08:44:00,67.8,61.8,30.03,East,90,3.4,3.8,81,0.00,,---,0.00,VWS V14.01,2013-02-22 13:44:00,
2013-02-22 08:45:00,68.0,61.6,30.03,SSE,158,3.6,3.6,80,0.00,,---,0.00,VWS V14.01,2013-02-22 13:45:00,
2013-02-22 08:46:00,68.9,62.1,30.03,SSE,158,2.9,2.9,79,0.00,,---,0.00,VWS V14.01,2013-02-22 13:46:00,
2013-02-22 08:47:00,68.0,61.2,30.03,SSW,202,3.1,11.0,79,0.00,,---,0.00,VWS V14.01,2013-02-22 13:47:00,
2013-02-22 08:48:00,68.0,61.2,30.03,ESE,112,4.3,4.3,79,0.00,,---,0.00,VWS V14.01,2013-02-22 13:48:00,
2013-02-22 08:49:00,68.0,61.2,30.03,SSE,158,4.7,6.0,79,0.00,,---,0.00,VWS V14.01,2013-02-22 13:49:00,
2013-02-22 08:50:00,68.2,61.4,30.03,SSW,202,5.6,5.6,79,0.00,,---,0.00,VWS V14.01,2013-02-22 13:50:00,
2013-02-22 08:51:00,69.3,61.8,30.06,SSE,158,3.4,4.3,77,0.00,,---,0.00,VWS V14.01,2013-02-22 13:51:00,
2013-02-22 08:52:00,68.2,61.4,30.03,SSW,202,2.7,7.4,79,0.00,,---,0.00,VWS V14.01,2013-02-22 13:52:00,
2013-02-22 08:53:00,68.4,61.6,30.03,South,180,4.0,4.3,79,0.00,,---,0.00,VWS V14.01,2013-02-22 13:53:00,
2013-02-22 08:54:00,68.7,62.0,30.03,South,180,2.2,4.0,79,0.00,,---,0.00,VWS V14.01,2013-02-22 13:54:00,
2013-02-22 08:55:00,68.9,62.1,30.03,SSE,158,0.0,2.2,79,0.00,,---,0.00,VWS V14.01,2013-02-22 13:55:00,
2013-02-22 08:56:00,70.0,61.3,30.06,SE,135,2.7,2.9,74,0.00,,---,0.00,VWS V14.01,2013-02-22 13:56:00,
2013-02-22 08:57:00,68.9,62.1,30.03,South,180,2.7,2.7,79,0.00,,---,0.00,VWS V14.01,2013-02-22 13:57:00,
2013-02-22 08:58:00,69.1,61.9,30.06,SSE,158,2.9,2.9,78,0.00,,---,0.00,VWS V14.01,2013-02-22 13:58:00,
2013-02-22 08:59:00,69.1,61.9,30.06,SSW,202,2.7,2.9,78,0.00,,---,0.00,VWS V14.01,2013-02-22 13:59:00,
2013-02-22 09:00:00,69.1,61.9,30.06,SSE,158,4.3,4.3,78,0.00,,---,0.00,VWS V14.01,2013-02-22 14:00:00,
2013-02-22 09:01:00,70.0,60.2,30.06,SSE,158,6.3,6.3,71,0.00,,---,0.00,VWS V14.01,2013-02-22 14:01:00,
2013-02-22 09:02:00,69.4,61.5,30.06,SSE,158,2.0,4.9,76,0.00,,---,0.00,VWS V14.01,2013-02-22 14:02:00,
2013-02-22 09:03:00,69.6,61.3,30.06,SSE,158,6.7,6.7,75,0.00,,---,0.00,VWS V14.01,2013-02-22 14:03:00,
2013-02-22 09:04:00,69.6,61.0,30.06,SSE,158,3.8,6.7,74,0.00,,---,0.00,VWS V14.01,2013-02-22 14:04:00,
2013-02-22 09:05:00,69.8,61.2,30.06,SSE,158,2.9,3.8,74,0.00,,---,0.00,VWS V14.01,2013-02-22 14:05:00,
2013-02-22 09:06:00,69.8,59.2,30.06,SSE,158,8.7,8.7,69,0.00,,---,0.00,VWS V14.01,2013-02-22 14:06:00,
2013-02-22 09:07:00,69.8,60.4,30.06,SSW,202,3.6,10.7,72,0.00,,---,0.00,VWS V14.01,2013-02-22 14:07:00,
2013-02-22 09:08:00,69.8,60.0,30.06,SSE,158,3.6,7.8,71,0.00,,---,0.00,VWS V14.01,2013-02-22 14:08:00,
2013-02-22 09:09:00,69.8,60.0,30.06,South,180,4.5,6.3,71,0.00,,---,0.00,VWS V14.01,2013-02-22 14:09:00,
2013-02-22 09:10:00,70.0,60.2,30.06,SSE,158,5.4,5.4,71,0.00,,---,0.00,VWS V14.01,2013-02-22 14:10:00,
2013-02-22 09:11:00,70.0,59.3,30.06,SSE,158,6.5,12.3,69,0.00,,---,0.00,VWS V14.01,2013-02-22 14:11:00,
2013-02-22 09:12:00,70.0,59.8,30.06,SSW,202,4.3,9.0,70,0.00,,---,0.00,VWS V14.01,2013-02-22 14:12:00,
2013-02-22 09:13:00,69.8,59.6,30.06,SSE,158,5.4,8.5,70,0.00,,---,0.00,VWS V14.01,2013-02-22 14:13:00,
2013-02-22 09:14:00,70.0,59.8,30.06,SE,135,3.6,8.1,70,0.00,,---,0.00,VWS V14.01,2013-02-22 14:14:00,
2013-02-22 09:15:00,70.0,59.8,30.06,SSE,158,8.5,9.8,70,0.00,,---,0.00,VWS V14.01,2013-02-22 14:15:00,
2013-02-22 09:16:00,70.3,59.7,30.06,SSE,158,2.2,6.0,69,0.00,,---,0.00,VWS V14.01,2013-02-22 14:16:00,
2013-02-22 09:17:00,69.6,59.0,30.06,SSE,158,7.2,9.8,69,0.00,,---,0.00,VWS V14.01,2013-02-22 14:17:00,
2013-02-22 09:18:00,69.8,59.2,30.06,South,180,4.9,8.5,69,0.00,,---,0.00,VWS V14.01,2013-02-22 14:18:00,
2013-02-22 09:19:00,69.8,59.2,30.06,SSE,158,1.3,6.5,69,0.00,,---,0.00,VWS V14.01,2013-02-22 14:19:00,
2013-02-22 09:20:00,70.0,59.3,30.06,South,180,12.3,12.3,69,0.00,,---,0.00,VWS V14.01,2013-02-22 14:20:00,
2013-02-22 09:21:00,70.3,59.7,30.06,SSE,158,0.0,3.4,69,0.00,,---,0.00,VWS V14.01,2013-02-22 14:21:00,
2013-02-22 09:22:00,70.0,59.3,30.06,SSE,158,0.0,7.2,69,0.00,,---,0.00,VWS V14.01,2013-02-22 14:22:00,
2013-02-22 09:23:00,70.2,59.5,30.06,SSE,158,3.1,3.1,69,0.00,,---,0.00,VWS V14.01,2013-02-22 14:23:00,
2013-02-22 09:24:00,70.3,59.7,30.06,SSE,158,6.3,6.3,69,0.00,,---,0.00,VWS V14.01,2013-02-22 14:24:00,
2013-02-22 09:25:00,70.3,59.7,30.06,SSW,202,6.0,8.5,69,0.00,,---,0.00,VWS V14.01,2013-02-22 14:25:00,
2013-02-22 09:26:00,71.4,60.7,30.06,SE,135,2.7,2.7,69,0.00,,---,0.00,VWS V14.01,2013-02-22 14:26:00,
2013-02-22 09:27:00,70.2,59.1,30.06,SSE,158,8.5,10.7,68,0.00,,---,0.00,VWS V14.01,2013-02-22 14:27:00,
2013-02-22 09:28:00,70.2,59.1,30.06,SSE,158,7.2,8.5,68,0.00,,---,0.00,VWS V14.01,2013-02-22 14:28:00,
2013-02-22 09:29:00,70.2,59.1,30.06,SSW,202,5.4,11.0,68,0.00,,---,0.00,VWS V14.01,2013-02-22 14:29:00,
2013-02-22 09:30:00,70.2,59.5,30.06,SSE,158,3.1,9.6,69,0.00,,---,0.00,VWS V14.01,2013-02-22 14:30:00,
2013-02-22 09:31:00,71.6,59.7,30.06,SSE,158,8.5,8.5,66,0.00,,---,0.00,VWS V14.01,2013-02-22 14:31:00,
2013-02-22 09:32:00,70.3,59.7,30.06,SSW,202,0.9,8.5,69,0.00,,---,0.00,VWS V14.01,2013-02-22 14:32:00,
2013-02-22 09:33:00,70.7,60.0,30.06,South,180,2.7,3.6,69,0.00,,---,0.00,VWS V14.01,2013-02-22 14:33:00,
2013-02-22 09:34:00,70.9,60.6,30.06,SSE,158,0.0,2.7,70,0.00,,---,0.00,VWS V14.01,2013-02-22 14:34:00,
2013-02-22 09:35:00,71.2,60.6,30.06,SSE,158,2.7,3.4,69,0.00,,---,0.00,VWS V14.01,2013-02-22 14:35:00,
2013-02-22 09:36:00,72.1,59.7,30.06,SSW,202,1.1,3.4,65,0.00,,---,0.00,VWS V14.01,2013-02-22 14:36:00,
2013-02-22 09:37:00,71.4,60.3,30.06,SSE,158,2.0,4.7,68,0.00,,---,0.00,VWS V14.01,2013-02-22 14:37:00,
2013-02-22 09:38:00,71.4,59.9,30.06,SSW,202,2.5,7.6,67,0.00,,---,0.00,VWS V14.01,2013-02-22 14:38:00,
2013-02-22 09:39:00,71.6,59.7,30.06,South,180,3.1,3.1,66,0.00,,---,0.00,VWS V14.01,2013-02-22 14:39:00,
2013-02-22 09:40:00,71.6,59.7,30.06,South,180,3.4,4.9,66,0.00,,---,0.00,VWS V14.01,2013-02-22 14:40:00,
2013-02-22 09:41:00,72.9,59.5,30.06,SE,135,2.5,3.4,63,0.00,,---,0.00,VWS V14.01,2013-02-22 14:41:00,
2013-02-22 09:42:00,71.6,59.2,30.06,SSW,202,1.3,5.4,65,0.00,,---,0.00,VWS V14.01,2013-02-22 14:42:00,
2013-02-22 09:43:00,71.8,59.8,30.06,South,180,6.3,6.3,66,0.00,,---,0.00,VWS V14.01,2013-02-22 14:43:00,
2013-02-22 09:44:00,71.8,59.4,30.06,South,180,2.7,6.3,65,0.00,,---,0.00,VWS V14.01,2013-02-22 14:44:00,
2013-02-22 09:45:00,72.0,59.6,30.06,SSE,158,3.4,4.3,65,0.00,,---,0.00,VWS V14.01,2013-02-22 14:45:00,
2013-02-22 09:46:00,72.9,59.1,30.06,South,180,2.9,6.3,62,0.00,,---,0.00,VWS V14.01,2013-02-22 14:46:00,
2013-02-22 09:47:00,72.5,60.1,30.06,South,180,4.5,4.5,65,0.00,,---,0.00,VWS V14.01,2013-02-22 14:47:00,
2013-02-22 09:48:00,72.7,59.8,30.06,SSW,202,0.9,6.3,64,0.00,,---,0.00,VWS V14.01,2013-02-22 14:48:00,
2013-02-22 09:49:00,72.9,60.0,30.06,SE,135,0.0,3.4,64,0.00,,---,0.00,VWS V14.01,2013-02-22 14:49:00,
2013-02-22 09:50:00,72.9,60.0,30.06,SSE,158,3.4,3.4,64,0.00,,---,0.00,VWS V14.01,2013-02-22 14:50:00,
2013-02-22 09:51:00,73.0,58.8,30.06,South,180,5.4,6.0,61,0.00,,---,0.00,VWS V14.01,2013-02-22 14:51:00,
2013-02-22 09:52:00,72.9,59.1,30.06,WNW,292,5.4,7.8,62,0.00,,---,0.00,VWS V14.01,2013-02-22 14:52:00,
2013-02-22 09:53:00,72.7,58.5,30.06,SSE,158,1.1,5.4,61,0.00,,---,0.00,VWS V14.01,2013-02-22 14:53:00,
2013-02-22 09:54:00,72.9,59.5,30.06,SE,135,2.9,2.9,63,0.00,,---,0.00,VWS V14.01,2013-02-22 14:54:00,
2013-02-22 09:55:00,72.9,59.1,30.06,SSE,158,2.0,5.6,62,0.00,,---,0.00,VWS V14.01,2013-02-22 14:55:00,
2013-02-22 09:56:00,73.0,58.8,30.06,SSE,158,2.9,3.8,61,0.00,,---,0.00,VWS V14.01,2013-02-22 14:56:00,
2013-02-22 09:57:00,72.9,59.1,30.06,SSW,202,0.0,3.1,62,0.00,,---,0.00,VWS V14.01,2013-02-22 14:57:00,
2013-02-22 09:58:00,73.2,59.4,30.06,SE,135,5.4,5.4,62,0.00,,---,0.00,VWS V14.01,2013-02-22 14:58:00,
2013-02-22 09:59:00,73.0,59.3,30.06,SSE,158,1.3,5.4,62,0.00,,---,0.00,VWS V14.01,2013-02-22 14:59:00,
2013-02-22 10:00:00,73.0,58.8,30.06,SSE,158,6.0,6.0,61,0.00,,---,0.00,VWS V14.01,2013-02-22 15:00:00,
2013-02-22 10:01:00,73.8,59.5,30.06,WSW,248,0.0,0.0,61,0.00,,---,0.00,VWS V14.01,2013-02-22 15:01:00,
2013-02-22 10:02:00,72.9,58.6,30.06,SSE,158,2.5,6.5,61,0.00,,---,0.00,VWS V14.01,2013-02-22 15:02:00,
2013-02-22 10:03:00,72.7,58.5,30.06,South,180,2.5,6.0,61,0.00,,---,0.00,VWS V14.01,2013-02-22 15:03:00,
2013-02-22 10:04:00,72.9,58.6,30.06,SSW,202,1.3,4.5,61,0.00,,---,0.00,VWS V14.01,2013-02-22 15:04:00,
2013-02-22 10:05:00,73.0,58.8,30.06,SSE,158,0.0,3.1,61,0.00,,---,0.00,VWS V14.01,2013-02-22 15:05:00,
2013-02-22 10:06:00,74.1,58.4,30.06,SSE,158,5.4,5.4,58,0.00,,---,0.00,VWS V14.01,2013-02-22 15:06:00,
2013-02-22 10:07:00,73.2,59.0,30.06,SSE,158,2.9,4.3,61,0.00,,---,0.00,VWS V14.01,2013-02-22 15:07:00,
2013-02-22 10:08:00,73.2,59.0,30.06,SSE,158,5.4,6.5,61,0.00,,---,0.00,VWS V14.01,2013-02-22 15:08:00,
2013-02-22 10:09:00,73.6,59.3,30.06,SSE,158,0.0,5.4,61,0.00,,---,0.00,VWS V14.01,2013-02-22 15:09:00,
2013-02-22 10:10:00,73.8,59.5,30.06,ESE,112,0.0,2.7,61,0.00,,---,0.00,VWS V14.01,2013-02-22 15:10:00,
2013-02-22 10:11:00,74.1,57.9,30.06,SSW,202,0.0,2.5,57,0.00,,---,0.00,VWS V14.01,2013-02-22 15:11:00,
2013-02-22 10:12:00,73.8,58.5,30.06,SSW,202,6.5,6.5,59,0.00,,---,0.00,VWS V14.01,2013-02-22 15:12:00,
2013-02-22 10:13:00,74.1,58.9,30.06,SSE,158,4.3,6.5,59,0.00,,---,0.00,VWS V14.01,2013-02-22 15:13:00,
2013-02-22 10:14:00,73.9,58.2,30.06,SE,135,0.0,4.7,58,0.00,,---,0.00,VWS V14.01,2013-02-22 15:14:00,
2013-02-22 10:15:00,74.1,58.9,30.06,SSE,158,3.1,3.1,59,0.00,,---,0.00,VWS V14.01,2013-02-22 15:15:00,
2013-02-22 10:16:00,75.4,58.1,30.06,SSE,158,4.9,4.9,55,0.00,,---,0.00,VWS V14.01,2013-02-22 15:16:00,
2013-02-22 10:17:00,73.9,57.8,30.06,SSE,158,6.5,6.5,57,0.00,,---,0.00,VWS V14.01,2013-02-22 15:17:00,
2013-02-22 10:18:00,74.1,57.9,30.06,SSE,158,3.1,6.5,57,0.00,,---,0.00,VWS V14.01,2013-02-22 15:18:00,
2013-02-22 10:19:00,74.1,57.9,30.06,SSE,158,5.6,5.6,57,0.00,,---,0.00,VWS V14.01,2013-02-22 15:19:00,
2013-02-22 10:20:00,74.1,57.9,30.06,SSE,158,0.9,5.6,57,0.00,,---,0.00,VWS V14.01,2013-02-22 15:20:00,
2013-02-22 10:21:00,76.5,58.1,30.06,SSE,158,0.9,3.1,53,0.00,,---,0.00,VWS V14.01,2013-02-22 15:21:00,
2013-02-22 10:22:00,74.8,58.6,30.06,SSW,202,4.7,4.7,57,0.00,,---,0.00,VWS V14.01,2013-02-22 15:22:00,
2013-02-22 10:23:00,75.0,58.8,30.06,SSE,158,2.0,4.7,57,0.00,,---,0.00,VWS V14.01,2013-02-22 15:23:00,
2013-02-22 10:24:00,75.0,57.8,30.06,SSW,202,2.9,6.0,55,0.00,,---,0.00,VWS V14.01,2013-02-22 15:24:00,
2013-02-22 10:25:00,75.4,58.1,30.06,SSE,158,3.4,3.4,55,0.00,,---,0.00,VWS V14.01,2013-02-22 15:25:00,
2013-02-22 10:26:00,76.6,56.1,30.06,SSE,158,4.3,6.0,49,0.00,,---,0.00,VWS V14.01,2013-02-22 15:26:00,
2013-02-22 10:27:00,75.9,58.6,30.06,SSE,158,0.0,2.5,55,0.00,,---,0.00,VWS V14.01,2013-02-22 15:27:00,
2013-02-22 10:28:00,76.1,58.8,30.06,SSE,158,5.4,5.4,55,0.00,,---,0.00,VWS V14.01,2013-02-22 15:28:00,
2013-02-22 10:29:00,76.1,57.2,30.06,SSE,158,0.0,5.4,52,0.00,,---,0.00,VWS V14.01,2013-02-22 15:29:00,
2013-02-22 10:30:00,76.3,57.9,30.06,SSW,202,3.1,3.1,53,0.00,,---,0.00,VWS V14.01,2013-02-22 15:30:00,
2013-02-22 10:31:00,77.0,55.2,30.06,SSE,158,5.4,5.4,47,0.00,,---,0.00,VWS V14.01,2013-02-22 15:31:00,
2013-02-22 10:32:00,76.3,56.3,30.06,SSW,202,5.4,6.5,50,0.00,,---,0.00,VWS V14.01,2013-02-22 15:32:00,
2013-02-22 10:33:00,76.5,56.5,30.06,SSE,158,0.0,5.4,50,0.00,,---,0.00,VWS V14.01,2013-02-22 15:33:00,
2013-02-22 10:34:00,76.8,57.3,30.06,ESE,112,1.6,2.9,51,0.00,,---,0.00,VWS V14.01,2013-02-22 15:34:00,
2013-02-22 10:35:00,76.6,56.1,30.06,SE,135,5.8,5.8,49,0.00,,---,0.00,VWS V14.01,2013-02-22 15:35:00,
2013-02-22 10:36:00,77.2,55.4,30.06,SE,135,1.6,2.5,47,0.00,,---,0.00,VWS V14.01,2013-02-22 15:36:00,
2013-02-22 10:37:00,77.0,57.0,30.06,SSE,158,5.8,5.8,50,0.00,,---,0.00,VWS V14.01,2013-02-22 15:37:00,
2013-02-22 10:38:00,76.8,55.7,30.06,SSE,158,1.6,5.8,48,0.00,,---,0.00,VWS V14.01,2013-02-22 15:38:00,
2013-02-22 10:39:00,77.0,55.2,30.06,SE,135,3.6,3.6,47,0.00,,---,0.00,VWS V14.01,2013-02-22 15:39:00,
2013-02-22 10:40:00,77.0,55.2,30.06,ESE,112,2.9,3.6,47,0.00,,---,0.00,VWS V14.01,2013-02-22 15:40:00,
2013-02-22 10:41:00,77.7,55.3,30.06,South,180,5.4,5.4,46,0.00,,---,0.00,VWS V14.01,2013-02-22 15:41:00,
2013-02-22 10:42:00,76.8,55.7,30.06,SSE,158,3.6,7.6,48,0.00,,---,0.00,VWS V14.01,2013-02-22 15:42:00,
2013-02-22 10:43:00,76.6,54.9,30.06,SSE,158,0.0,6.3,47,0.00,,---,0.00,VWS V14.01,2013-02-22 15:43:00,
2013-02-22 10:44:00,77.0,55.8,30.06,SE,135,2.2,4.0,48,0.00,,---,0.00,VWS V14.01,2013-02-22 15:44:00,
2013-02-22 10:45:00,77.2,55.4,30.06,SSE,158,2.5,6.3,47,0.00,,---,0.00,VWS V14.01,2013-02-22 15:45:00,
2013-02-22 10:46:00,77.7,55.3,30.06,SSE,158,5.6,5.6,46,0.00,,---,0.00,VWS V14.01,2013-02-22 15:46:00,
2013-02-22 10:47:00,77.7,56.5,30.06,SSW,202,0.0,5.8,48,0.00,,---,0.00,VWS V14.01,2013-02-22 15:47:00,
2013-02-22 10:48:00,77.7,55.3,30.06,SSE,158,4.3,6.3,46,0.00,,---,0.00,VWS V14.01,2013-02-22 15:48:00,
2013-02-22 10:49:00,77.5,55.2,30.06,South,180,2.7,4.3,46,0.00,,---,0.00,VWS V14.01,2013-02-22 15:49:00,
2013-02-22 10:50:00,77.7,55.3,30.06,SSE,158,2.5,2.9,46,0.00,,---,0.00,VWS V14.01,2013-02-22 15:50:00,
2013-02-22 10:51:00,78.4,55.4,30.03,ESE,112,1.3,1.3,45,0.00,,---,0.00,VWS V14.01,2013-02-22 15:51:00,
2013-02-22 10:52:00,77.5,54.5,30.06,SSW,202,1.6,9.8,45,0.00,,---,0.00,VWS V14.01,2013-02-22 15:52:00,
2013-02-22 10:53:00,77.4,55.0,30.06,SSE,158,2.9,3.1,46,0.00,,---,0.00,VWS V14.01,2013-02-22 15:53:00,
2013-02-22 10:54:00,77.5,55.2,30.06,SSE,158,3.4,5.6,46,0.00,,---,0.00,VWS V14.01,2013-02-22 15:54:00,
2013-02-22 10:55:00,77.7,55.3,30.06,SSE,158,5.6,5.6,46,0.00,,---,0.00,VWS V14.01,2013-02-22 15:55:00,
2013-02-22 10:56:00,80.1,56.8,30.03,ESE,112,0.0,2.5,45,0.00,,---,0.00,VWS V14.01,2013-02-22 15:56:00,
2013-02-22 10:57:00,77.9,54.9,30.06,South,180,4.9,4.9,45,0.00,,---,0.00,VWS V14.01,2013-02-22 15:57:00,
2013-02-22 10:58:00,77.9,54.9,30.03,SSW,202,2.2,4.9,45,0.00,,---,0.00,VWS V14.01,2013-02-22 15:58:00,
2013-02-22 10:59:00,78.4,56.0,30.03,SSE,158,5.4,7.8,46,0.00,,---,0.00,VWS V14.01,2013-02-22 15:59:00,
2013-02-22 11:00:00,78.1,54.4,30.03,SE,135,0.0,5.4,44,0.00,,---,0.00,VWS V14.01,2013-02-22 16:00:00,
2013-02-22 11:01:00,81.3,56.7,30.03,South,180,1.6,1.6,43,0.00,,---,0.00,VWS V14.01,2013-02-22 16:01:00,
2013-02-22 11:02:00,79.2,56.6,30.03,ESE,112,0.0,2.7,46,0.00,,---,0.00,VWS V14.01,2013-02-22 16:02:00,
2013-02-22 11:03:00,79.5,57.0,30.03,East,90,0.0,2.5,46,0.00,,---,0.00,VWS V14.01,2013-02-22 16:03:00,
2013-02-22 11:04:00,79.9,56.7,30.03,SSE,158,1.3,1.3,45,0.00,,---,0.00,VWS V14.01,2013-02-22 16:04:00,
2013-02-22 11:05:00,80.1,56.8,30.03,South,180,2.5,3.4,45,0.00,,---,0.00,VWS V14.01,2013-02-22 16:05:00,
2013-02-22 11:06:00,81.1,55.2,30.03,SSE,158,0.0,2.5,41,0.00,,---,0.00,VWS V14.01,2013-02-22 16:06:00,
2013-02-22 11:07:00,80.2,57.0,30.03,ESE,112,0.0,3.8,45,0.00,,---,0.00,VWS V14.01,2013-02-22 16:07:00,
2013-02-22 11:08:00,80.6,56.7,30.03,ESE,112,0.0,2.5,44,0.00,,---,0.00,VWS V14.01,2013-02-22 16:08:00,
2013-02-22 11:09:00,80.8,56.9,30.03,SSW,202,0.0,1.1,44,0.00,,---,0.00,VWS V14.01,2013-02-22 16:09:00,
2013-02-22 11:10:00,81.3,56.7,30.03,SSE,158,0.0,3.4,43,0.00,,---,0.00,VWS V14.01,2013-02-22 16:10:00,
2013-02-22 11:11:00,82.4,56.4,30.03,East,90,0.0,1.6,41,0.00,,---,0.00,VWS V14.01,2013-02-22 16:11:00,
2013-02-22 11:12:00,81.0,55.7,30.03,ENE,68,0.0,3.6,42,0.00,,---,0.00,VWS V14.01,2013-02-22 16:12:00,
2013-02-22 11:13:00,81.1,55.9,30.03,SW,225,2.7,2.7,42,0.00,,---,0.00,VWS V14.01,2013-02-22 16:13:00,
2013-02-22 11:14:00,81.0,55.1,30.03,East,90,0.0,2.7,41,0.00,,---,0.00,VWS V14.01,2013-02-22 16:14:00,
2013-02-22 11:15:00,81.1,55.2,30.03,SE,135,1.6,2.5,41,0.00,,---,0.00,VWS V14.01,2013-02-22 16:15:00,
2013-02-22 11:16:00,81.5,53.5,30.03,SSE,158,2.7,5.4,38,0.00,,---,0.00,VWS V14.01,2013-02-22 16:16:00,
2013-02-22 11:17:00,81.5,56.2,30.03,East,90,0.0,1.3,42,0.00,,---,0.00,VWS V14.01,2013-02-22 16:17:00,
2013-02-22 11:18:00,81.9,55.9,30.03,SSE,158,0.0,0.0,41,0.00,,---,0.00,VWS V14.01,2013-02-22 16:18:00,
2013-02-22 11:19:00,82.2,56.9,30.03,SE,135,0.0,0.0,42,0.00,,---,0.00,VWS V14.01,2013-02-22 16:19:00,
2013-02-22 11:20:00,82.4,56.4,30.03,East,90,1.6,1.6,41,0.00,,---,0.00,VWS V14.01,2013-02-22 16:20:00,
2013-02-22 11:21:00,82.0,54.7,30.03,SSE,158,0.0,2.2,39,0.00,,---,0.00,VWS V14.01,2013-02-22 16:21:00,
2013-02-22 11:22:00,82.0,55.4,30.03,SSE,158,4.7,4.7,40,0.00,,---,0.00,VWS V14.01,2013-02-22 16:22:00,
2013-02-22 11:23:00,81.9,55.2,30.03,SE,135,2.7,4.7,40,0.00,,---,0.00,VWS V14.01,2013-02-22 16:23:00,
2013-02-22 11:24:00,82.0,55.4,30.03,SSW,202,0.0,3.8,40,0.00,,---,0.00,VWS V14.01,2013-02-22 16:24:00,
2013-02-22 11:25:00,81.5,53.5,30.03,South,180,5.4,7.6,38,0.00,,---,0.00,VWS V14.01,2013-02-22 16:25:00,
2013-02-22 11:26:00,82.4,54.3,30.03,SSE,158,2.5,2.5,38,0.00,,---,0.00,VWS V14.01,2013-02-22 16:26:00,
2013-02-22 11:27:00,81.5,54.2,30.03,NNE,22,0.0,1.6,39,0.00,,---,0.00,VWS V14.01,2013-02-22 16:27:00,
2013-02-22 11:28:00,81.9,55.2,30.03,ESE,112,0.9,0.9,40,0.00,,---,0.00,VWS V14.01,2013-02-22 16:28:00,
2013-02-22 11:29:00,81.9,54.5,30.03,SSE,158,2.9,2.9,39,0.00,,---,0.00,VWS V14.01,2013-02-22 16:29:00,
2013-02-22 11:30:00,82.0,54.7,30.03,East,90,2.2,2.9,39,0.00,,---,0.00,VWS V14.01,2013-02-22 16:30:00,
2013-02-22 11:31:00,82.9,54.8,30.03,ESE,112,0.0,0.0,38,0.00,,---,0.00,VWS V14.01,2013-02-22 16:31:00,
2013-02-22 11:32:00,82.2,54.1,30.03,SE,135,1.6,2.7,38,0.00,,---,0.00,VWS V14.01,2013-02-22 16:32:00,
2013-02-22 11:33:00,82.2,54.1,30.03,SSE,158,1.3,3.1,38,0.00,,---,0.00,VWS V14.01,2013-02-22 16:33:00,
2013-02-22 11:34:00,82.4,54.3,30.03,ESE,112,0.0,3.4,38,0.00,,---,0.00,VWS V14.01,2013-02-22 16:34:00,
2013-02-22 11:35:00,82.4,54.3,30.03,SSW,202,1.1,2.0,38,0.00,,---,0.00,VWS V14.01,2013-02-22 16:35:00,
2013-02-22 11:36:00,83.5,53.8,30.06,SE,135,1.3,1.3,36,0.00,,---,0.00,VWS V14.01,2013-02-22 16:36:00,
2013-02-22 11:37:00,82.4,54.3,30.03,South,180,2.5,2.5,38,0.00,,---,0.00,VWS V14.01,2013-02-22 16:37:00,
2013-02-22 11:38:00,82.6,54.4,30.03,WSW,248,2.9,2.9,38,0.00,,---,0.00,VWS V14.01,2013-02-22 16:38:00,
2013-02-22 11:39:00,82.8,53.9,30.03,SE,135,2.2,2.9,37,0.00,,---,0.00,VWS V14.01,2013-02-22 16:39:00,
2013-02-22 11:40:00,82.9,54.8,30.03,NNE,22,0.0,2.7,38,0.00,,---,0.00,VWS V14.01,2013-02-22 16:40:00,
2013-02-22 11:41:00,84.6,53.9,30.06,SE,135,0.0,1.1,35,0.00,,---,0.00,VWS V14.01,2013-02-22 16:41:00,
2013-02-22 11:42:00,83.1,54.2,30.03,South,180,1.1,3.1,37,0.00,,---,0.00,VWS V14.01,2013-02-22 16:42:00,
2013-02-22 11:43:00,83.3,54.3,30.06,SSE,158,1.1,2.2,37,0.00,,---,0.00,VWS V14.01,2013-02-22 16:43:00,
2013-02-22 11:44:00,83.3,53.6,30.06,ENE,68,2.9,3.1,36,0.00,,---,0.00,VWS V14.01,2013-02-22 16:44:00,
2013-02-22 11:45:00,83.5,53.8,30.06,East,90,0.0,2.9,36,0.00,,---,0.00,VWS V14.01,2013-02-22 16:45:00,
2013-02-22 11:46:00,85.1,53.6,30.06,SSW,202,0.0,0.0,34,0.00,,---,0.00,VWS V14.01,2013-02-22 16:46:00,
2013-02-22 11:47:00,83.8,54.8,30.06,SSW,202,0.0,0.0,37,0.00,,---,0.00,VWS V14.01,2013-02-22 16:47:00,
2013-02-22 11:48:00,84.2,53.6,30.06,WSW,248,1.3,2.9,35,0.00,,---,0.00,VWS V14.01,2013-02-22 16:48:00,
2013-02-22 11:49:00,84.2,52.8,30.06,ENE,68,0.9,4.0,34,0.00,,---,0.00,VWS V14.01,2013-02-22 16:49:00,
2013-02-22 11:50:00,84.6,53.9,30.06,NNE,22,1.1,1.1,35,0.00,,---,0.00,VWS V14.01,2013-02-22 16:50:00,
2013-02-22 11:51:00,84.6,51.5,30.03,ESE,112,0.0,1.6,32,0.00,,---,0.00,VWS V14.01,2013-02-22 16:51:00,
2013-02-22 11:52:00,84.7,53.3,30.06,ENE,68,0.0,2.9,34,0.00,,---,0.00,VWS V14.01,2013-02-22 16:52:00,
2013-02-22 11:53:00,84.7,53.3,30.06,WSW,248,0.0,2.7,34,0.00,,---,0.00,VWS V14.01,2013-02-22 16:53:00,
2013-02-22 11:54:00,84.7,52.5,30.06,ESE,112,0.0,0.0,33,0.00,,---,0.00,VWS V14.01,2013-02-22 16:54:00,
2013-02-22 11:55:00,85.1,53.6,30.06,SE,135,0.0,0.0,34,0.00,,---,0.00,VWS V14.01,2013-02-22 16:55:00,
2013-02-22 11:56:00,84.7,51.6,30.03,ENE,68,2.5,3.4,32,0.00,,---,0.00,VWS V14.01,2013-02-22 16:56:00,
2013-02-22 11:57:00,85.1,52.8,30.06,SSW,202,1.3,3.1,33,0.00,,---,0.00,VWS V14.01,2013-02-22 16:57:00,
2013-02-22 11:58:00,84.9,51.8,30.03,SSW,202,2.9,4.7,32,0.00,,---,0.00,VWS V14.01,2013-02-22 16:58:00,
2013-02-22 11:59:00,84.7,51.6,30.03,East,90,2.5,2.9,32,0.00,,---,0.00,VWS V14.01,2013-02-22 16:59:00,
2013-02-22 12:00:00,84.6,51.5,30.03,ESE,112,1.6,2.5,32,0.00,,---,0.00,VWS V14.01,2013-02-22 17:00:00,
2013-02-22 12:01:00,84.9,50.9,30.03,SSW,202,1.1,6.5,31,0.00,,---,0.00,VWS V14.01,2013-02-22 17:01:00,
2013-02-22 12:02:00,84.7,52.5,30.03,ESE,112,3.6,3.6,33,0.00,,---,0.00,VWS V14.01,2013-02-22 17:02:00,
2013-02-22 12:03:00,84.7,52.5,30.03,WSW,248,0.0,3.6,33,0.00,,---,0.00,VWS V14.01,2013-02-22 17:03:00,
2013-02-22 12:04:00,84.9,52.6,30.03,ENE,68,0.0,1.3,33,0.00,,---,0.00,VWS V14.01,2013-02-22 17:04:00,
2013-02-22 12:05:00,84.7,51.6,30.03,NNE,22,3.4,3.4,32,0.00,,---,0.00,VWS V14.01,2013-02-22 17:05:00,
2013-02-22 12:06:00,84.9,51.8,30.06,SW,225,0.0,1.3,32,0.00,,---,0.00,VWS V14.01,2013-02-22 17:06:00,
2013-02-22 12:07:00,85.1,52.0,30.03,SSW,202,0.0,0.9,32,0.00,,---,0.00,VWS V14.01,2013-02-22 17:07:00,
2013-02-22 12:08:00,84.9,51.8,30.03,WNW,292,0.0,3.8,32,0.00,,---,0.00,VWS V14.01,2013-02-22 17:08:00,
2013-02-22 12:09:00,84.9,51.8,30.03,SSW,202,1.1,1.6,32,0.00,,---,0.00,VWS V14.01,2013-02-22 17:09:00,
2013-02-22 12:10:00,84.9,50.9,30.03,SSW,202,6.5,6.5,31,0.00,,---,0.00,VWS V14.01,2013-02-22 17:10:00,
2013-02-22 12:11:00,85.5,51.4,30.06,SE,135,0.0,1.3,31,0.00,,---,0.00,VWS V14.01,2013-02-22 17:11:00,
2013-02-22 12:12:00,84.9,51.8,30.03,SSW,202,3.4,3.4,32,0.00,,---,0.00,VWS V14.01,2013-02-22 17:12:00,
2013-02-22 12:13:00,85.1,52.0,30.06,SE,135,0.0,3.4,32,0.00,,---,0.00,VWS V14.01,2013-02-22 17:13:00,
2013-02-22 12:14:00,85.1,51.1,30.06,SE,135,2.0,2.2,31,0.00,,---,0.00,VWS V14.01,2013-02-22 17:14:00,
2013-02-22 12:15:00,84.9,50.9,30.06,South,180,1.3,2.7,31,0.00,,---,0.00,VWS V14.01,2013-02-22 17:15:00,
2013-02-22 12:16:00,86.4,52.2,30.06,SE,135,0.0,0.0,31,0.00,,---,0.00,VWS V14.01,2013-02-22 17:16:00,
2013-02-22 12:17:00,84.7,50.8,30.06,SW,225,0.0,5.4,31,0.00,,---,0.00,VWS V14.01,2013-02-22 17:17:00,
2013-02-22 12:18:00,85.3,52.1,30.06,WSW,248,3.1,3.1,32,0.00,,---,0.00,VWS V14.01,2013-02-22 17:18:00,
2013-02-22 12:19:00,85.3,51.2,30.06,SSE,158,2.2,3.1,31,0.00,,---,0.00,VWS V14.01,2013-02-22 17:19:00,
2013-02-22 12:20:00,85.5,51.4,30.06,ESE,112,1.3,2.2,31,0.00,,---,0.00,VWS V14.01,2013-02-22 17:20:00,
2013-02-22 12:21:00,85.5,51.4,30.03,SSW,202,1.6,1.6,31,0.00,,---,0.00,VWS V14.01,2013-02-22 17:21:00,
2013-02-22 12:22:00,85.6,51.6,30.06,SE,135,0.0,2.2,31,0.00,,---,0.00,VWS V14.01,2013-02-22 17:22:00,
2013-02-22 12:23:00,85.8,51.7,30.06,SSE,158,3.4,3.4,31,0.00,,---,0.00,VWS V14.01,2013-02-22 17:23:00,
2013-02-22 12:24:00,85.8,51.7,30.06,ESE,112,0.0,3.4,31,0.00,,---,0.00,VWS V14.01,2013-02-22 17:24:00,
2013-02-22 12:25:00,86.4,52.2,30.06,SSW,202,0.0,2.5,31,0.00,,---,0.00,VWS V14.01,2013-02-22 17:25:00,
2013-02-22 12:26:00,86.7,51.6,30.03,WSW,248,0.0,0.0,30,0.00,,---,0.00,VWS V14.01,2013-02-22 17:26:00,
2013-02-22 12:27:00,86.0,51.0,30.06,South,180,2.9,6.9,30,0.00,,---,0.00,VWS V14.01,2013-02-22 17:27:00,
2013-02-22 12:28:00,85.6,50.7,30.03,ESE,112,3.6,3.6,30,0.00,,---,0.00,VWS V14.01,2013-02-22 17:28:00,
2013-02-22 12:29:00,85.5,50.5,30.03,SE,135,1.3,5.8,30,0.00,,---,0.00,VWS V14.01,2013-02-22 17:29:00,
2013-02-22 12:30:00,85.5,51.4,30.03,South,180,1.6,3.6,31,0.00,,---,0.00,VWS V14.01,2013-02-22 17:30:00,
2013-02-22 12:31:00,85.6,49.8,30.03,SSE,158,7.4,7.4,29,0.00,,---,0.00,VWS V14.01,2013-02-22 17:31:00,
2013-02-22 12:32:00,85.8,50.8,30.03,SSE,158,0.0,2.5,30,0.00,,---,0.00,VWS V14.01,2013-02-22 17:32:00,
2013-02-22 12:33:00,86.2,51.1,30.03,NNW,338,2.7,2.7,30,0.00,,---,0.00,VWS V14.01,2013-02-22 17:33:00,
2013-02-22 12:34:00,86.5,51.5,30.03,SSW,202,0.0,2.7,30,0.00,,---,0.00,VWS V14.01,2013-02-22 17:34:00,
2013-02-22 12:35:00,86.7,51.6,30.03,WSW,248,0.0,2.5,30,0.00,,---,0.00,VWS V14.01,2013-02-22 17:35:00,
2013-02-22 12:36:00,84.9,49.2,30.03,SSE,158,2.7,2.7,29,0.00,,---,0.00,VWS V14.01,2013-02-22 17:36:00,
2013-02-22 12:37:00,86.5,50.5,30.03,SSE,158,1.6,6.9,29,0.00,,---,0.00,VWS V14.01,2013-02-22 17:37:00,
2013-02-22 12:38:00,86.0,50.1,30.03,SSW,202,3.6,10.7,29,0.00,,---,0.00,VWS V14.01,2013-02-22 17:38:00,
2013-02-22 12:39:00,85.6,49.8,30.03,South,180,2.5,5.6,29,0.00,,---,0.00,VWS V14.01,2013-02-22 17:39:00,
2013-02-22 12:40:00,85.6,49.8,30.03,SSE,158,7.4,7.4,29,0.00,,---,0.00,VWS V14.01,2013-02-22 17:40:00,
2013-02-22 12:41:00,83.8,49.1,30.03,SSE,158,3.4,3.4,30,0.00,,---,0.00,VWS V14.01,2013-02-22 17:41:00,
2013-02-22 12:42:00,84.7,49.0,30.03,SW,225,2.5,7.6,29,0.00,,---,0.00,VWS V14.01,2013-02-22 17:42:00,
2013-02-22 12:43:00,84.9,49.2,30.03,SE,135,1.3,3.6,29,0.00,,---,0.00,VWS V14.01,2013-02-22 17:43:00,
2013-02-22 12:44:00,84.9,49.2,30.03,ENE,68,3.6,3.6,29,0.00,,---,0.00,VWS V14.01,2013-02-22 17:44:00,
2013-02-22 12:45:00,84.9,49.2,30.03,SSE,158,2.7,3.6,29,0.00,,---,0.00,VWS V14.01,2013-02-22 17:45:00,
2013-02-22 12:46:00,84.0,49.3,30.03,SE,135,7.4,7.4,30,0.00,,---,0.00,VWS V14.01,2013-02-22 17:46:00,
2013-02-22 12:47:00,85.3,50.4,30.03,SSW,202,2.9,7.2,30,0.00,,---,0.00,VWS V14.01,2013-02-22 17:47:00,
2013-02-22 12:48:00,84.2,48.5,30.03,SSE,158,4.9,7.2,29,0.00,,---,0.00,VWS V14.01,2013-02-22 17:48:00,
2013-02-22 12:49:00,83.8,49.1,30.03,SSE,158,2.2,7.8,30,0.00,,---,0.00,VWS V14.01,2013-02-22 17:49:00,
2013-02-22 12:50:00,83.8,49.1,30.03,SSE,158,3.4,3.4,30,0.00,,---,0.00,VWS V14.01,2013-02-22 17:50:00,
2013-02-22 12:51:00,82.9,49.2,30.03,ESE,112,1.6,2.2,31,0.00,,---,0.00,VWS V14.01,2013-02-22 17:51:00,
2013-02-22 12:52:00,84.2,49.4,30.03,ESE,112,2.2,2.7,30,0.00,,---,0.00,VWS V14.01,2013-02-22 17:52:00,
2013-02-22 12:53:00,84.6,49.8,30.03,SSW,202,2.7,3.1,30,0.00,,---,0.00,VWS V14.01,2013-02-22 17:53:00,
2013-02-22 12:54:00,84.4,49.6,30.03,SSE,158,6.5,9.0,30,0.00,,---,0.00,VWS V14.01,2013-02-22 17:54:00,
2013-02-22 12:55:00,84.4,49.6,30.03,SSE,158,3.1,6.5,30,0.00,,---,0.00,VWS V14.01,2013-02-22 17:55:00,
2013-02-22 12:56:00,81.9,49.1,30.03,SSE,158,1.6,1.6,32,0.00,,---,0.00,VWS V14.01,2013-02-22 17:56:00,
2013-02-22 12:57:00,82.8,48.2,30.03,SSE,158,6.3,7.2,30,0.00,,---,0.00,VWS V14.01,2013-02-22 17:57:00,
2013-02-22 12:58:00,82.8,48.2,30.03,SSE,158,3.8,7.4,30,0.00,,---,0.00,VWS V14.01,2013-02-22 17:58:00,
2013-02-22 12:59:00,82.9,48.3,30.03,East,90,1.3,3.8,30,0.00,,---,0.00,VWS V14.01,2013-02-22 17:59:00,
2013-02-22 13:00:00,82.9,49.2,30.03,South,180,2.2,4.3,31,0.00,,---,0.00,VWS V14.01,2013-02-22 18:00:00,
2013-02-22 13:01:00,82.4,49.6,30.03,SSE,158,2.0,2.0,32,0.00,,---,0.00,VWS V14.01,2013-02-22 18:01:00,
2013-02-22 13:02:00,83.1,49.4,30.03,South,180,6.0,6.0,31,0.00,,---,0.00,VWS V14.01,2013-02-22 18:02:00,
2013-02-22 13:03:00,82.0,48.5,30.03,SSE,158,7.4,8.7,31,0.00,,---,0.00,VWS V14.01,2013-02-22 18:03:00,
2013-02-22 13:04:00,81.9,48.3,30.03,ESE,112,1.6,7.4,31,0.00,,---,0.00,VWS V14.01,2013-02-22 18:04:00,
2013-02-22 13:05:00,81.9,49.1,30.03,SSE,158,1.6,3.6,32,0.00,,---,0.00,VWS V14.01,2013-02-22 18:05:00,
2013-02-22 13:06:00,82.9,50.1,30.03,SSE,158,9.0,9.0,32,0.00,,---,0.00,VWS V14.01,2013-02-22 18:06:00,
2013-02-22 13:07:00,82.0,49.3,30.03,SSE,158,2.9,3.1,32,0.00,,---,0.00,VWS V14.01,2013-02-22 18:07:00,
2013-02-22 13:08:00,82.0,49.3,30.03,SSW,202,1.3,4.7,32,0.00,,---,0.00,VWS V14.01,2013-02-22 18:08:00,
2013-02-22 13:09:00,82.0,49.3,30.03,SSE,158,2.7,2.7,32,0.00,,---,0.00,VWS V14.01,2013-02-22 18:09:00,
2013-02-22 13:10:00,82.4,48.8,30.03,SSE,158,2.0,2.7,31,0.00,,---,0.00,VWS V14.01,2013-02-22 18:10:00,
2013-02-22 13:11:00,83.8,50.0,30.03,SSE,158,1.1,1.6,31,0.00,,---,0.00,VWS V14.01,2013-02-22 18:11:00,
2013-02-22 13:12:00,82.4,49.6,30.03,SSE,158,2.7,7.6,32,0.00,,---,0.00,VWS V14.01,2013-02-22 18:12:00,
2013-02-22 13:13:00,82.4,49.6,30.03,SSE,158,3.8,3.8,32,0.00,,---,0.00,VWS V14.01,2013-02-22 18:13:00,
2013-02-22 13:14:00,82.4,49.6,30.03,East,90,5.4,5.4,32,0.00,,---,0.00,VWS V14.01,2013-02-22 18:14:00,
2013-02-22 13:15:00,82.9,50.1,30.03,SSE,158,9.0,9.0,32,0.00,,---,0.00,VWS V14.01,2013-02-22 18:15:00,
2013-02-22 13:16:00,82.9,49.2,30.03,SSE,158,1.1,2.2,31,0.00,,---,0.00,VWS V14.01,2013-02-22 18:16:00,
2013-02-22 13:17:00,82.0,48.5,30.03,SSW,202,1.1,7.2,31,0.00,,---,0.00,VWS V14.01,2013-02-22 18:17:00,
2013-02-22 13:18:00,82.4,48.8,30.03,SE,135,0.0,2.9,31,0.00,,---,0.00,VWS V14.01,2013-02-22 18:18:00,
2013-02-22 13:19:00,83.1,49.4,30.03,SE,135,0.0,1.6,31,0.00,,---,0.00,VWS V14.01,2013-02-22 18:19:00,
2013-02-22 13:20:00,83.8,50.0,30.03,SSE,158,1.1,1.6,31,0.00,,---,0.00,VWS V14.01,2013-02-22 18:20:00,
2013-02-22 13:21:00,81.9,48.3,30.03,SW,225,3.4,4.3,31,0.00,,---,0.00,VWS V14.01,2013-02-22 18:21:00,
2013-02-22 13:22:00,83.8,50.0,30.03,SSE,158,2.7,2.7,31,0.00,,---,0.00,VWS V14.01,2013-02-22 18:22:00,
2013-02-22 13:23:00,83.8,50.0,30.03,SSE,158,4.0,4.3,31,0.00,,---,0.00,VWS V14.01,2013-02-22 18:23:00,
2013-02-22 13:24:00,83.8,50.0,30.03,SSE,158,1.3,4.3,31,0.00,,---,0.00,VWS V14.01,2013-02-22 18:24:00,
2013-02-22 13:25:00,82.9,49.2,30.03,SE,135,2.2,4.3,31,0.00,,---,0.00,VWS V14.01,2013-02-22 18:25:00,
2013-02-22 13:26:00,82.9,49.2,30.03,SSW,202,3.1,3.1,31,0.00,,---,0.00,VWS V14.01,2013-02-22 18:26:00,
2013-02-22 13:27:00,82.6,48.9,30.03,SSE,158,6.0,6.0,31,0.00,,---,0.00,VWS V14.01,2013-02-22 18:27:00,
2013-02-22 13:28:00,82.0,48.5,30.03,SSE,158,3.1,6.0,31,0.00,,---,0.00,VWS V14.01,2013-02-22 18:28:00,
2013-02-22 13:29:00,81.9,48.3,30.03,ESE,112,2.5,6.9,31,0.00,,---,0.00,VWS V14.01,2013-02-22 18:29:00,
2013-02-22 13:30:00,83.1,48.5,30.03,SSE,158,3.1,3.1,30,0.00,,---,0.00,VWS V14.01,2013-02-22 18:30:00,
2013-02-22 13:31:00,82.4,48.8,30.03,SSE,158,2.5,3.4,31,0.00,,---,0.00,VWS V14.01,2013-02-22 18:31:00,
2013-02-22 13:32:00,82.8,49.1,30.03,SE,135,2.0,3.8,31,0.00,,---,0.00,VWS V14.01,2013-02-22 18:32:00,
2013-02-22 13:33:00,83.5,50.5,30.03,South,180,6.5,7.8,32,0.00,,---,0.00,VWS V14.01,2013-02-22 18:33:00,
2013-02-22 13:34:00,82.9,49.2,30.03,ESE,112,6.0,6.5,31,0.00,,---,0.00,VWS V14.01,2013-02-22 18:34:00,
2013-02-22 13:35:00,83.8,50.0,30.03,SSE,158,1.3,2.2,31,0.00,,---,0.00,VWS V14.01,2013-02-22 18:35:00,
2013-02-22 13:36:00,83.1,48.5,30.03,SSW,202,4.7,4.7,30,0.00,,---,0.00,VWS V14.01,2013-02-22 18:36:00,
2013-02-22 13:37:00,83.3,49.5,30.03,SSE,158,0.0,4.7,31,0.00,,---,0.00,VWS V14.01,2013-02-22 18:37:00,
2013-02-22 13:38:00,83.5,49.7,30.03,South,180,2.5,2.5,31,0.00,,---,0.00,VWS V14.01,2013-02-22 18:38:00,
2013-02-22 13:39:00,83.5,48.8,30.03,SSW,202,3.1,3.1,30,0.00,,---,0.00,VWS V14.01,2013-02-22 18:39:00,
2013-02-22 13:40:00,83.7,49.0,30.03,SSW,202,2.5,6.3,30,0.00,,---,0.00,VWS V14.01,2013-02-22 18:40:00,
2013-02-22 13:41:00,82.9,49.2,30.03,SSE,158,2.5,3.1,31,0.00,,---,0.00,VWS V14.01,2013-02-22 18:41:00,
2013-02-22 13:42:00,82.8,49.1,30.03,SE,135,2.7,2.7,31,0.00,,---,0.00,VWS V14.01,2013-02-22 18:42:00,
2013-02-22 13:43:00,82.8,49.1,30.03,SSE,158,2.0,2.7,31,0.00,,---,0.00,VWS V14.01,2013-02-22 18:43:00,
2013-02-22 13:44:00,83.1,49.4,30.03,WSW,248,1.6,2.7,31,0.00,,---,0.00,VWS V14.01,2013-02-22 18:44:00,
2013-02-22 13:45:00,83.3,48.7,30.03,WSW,248,2.2,5.4,30,0.00,,---,0.00,VWS V14.01,2013-02-22 18:45:00,
2013-02-22 13:46:00,84.4,50.5,30.03,SSE,158,2.5,2.5,31,0.00,,---,0.00,VWS V14.01,2013-02-22 18:46:00,
2013-02-22 13:47:00,84.6,49.8,30.03,WSW,248,2.5,6.5,30,0.00,,---,0.00,VWS V14.01,2013-02-22 18:47:00,
2013-02-22 13:48:00,84.7,49.9,30.03,SSE,158,4.7,4.7,30,0.00,,---,0.00,VWS V14.01,2013-02-22 18:48:00,
2013-02-22 13:49:00,83.7,49.0,30.03,SSE,158,6.3,6.7,30,0.00,,---,0.00,VWS V14.01,2013-02-22 18:49:00,
2013-02-22 13:50:00,85.5,50.5,30.00,SSW,202,3.6,3.6,30,0.00,,---,0.00,VWS V14.01,2013-02-22 18:50:00,
2013-02-22 13:51:00,83.5,48.8,30.03,South,180,4.3,4.3,30,0.00,,---,0.00,VWS V14.01,2013-02-22 18:51:00,
2013-02-22 13:52:00,83.3,48.7,30.03,WSW,248,1.1,4.3,30,0.00,,---,0.00,VWS V14.01,2013-02-22 18:52:00,
2013-02-22 13:53:00,83.5,48.8,30.03,SSE,158,2.7,2.7,30,0.00,,---,0.00,VWS V14.01,2013-02-22 18:53:00,
2013-02-22 13:54:00,83.5,48.8,30.03,South,180,5.4,8.1,30,0.00,,---,0.00,VWS V14.01,2013-02-22 18:54:00,
2013-02-22 13:55:00,86.0,50.1,30.00,SW,225,1.3,2.5,29,0.00,,---,0.00,VWS V14.01,2013-02-22 18:55:00,
2013-02-22 13:56:00,84.2,49.4,30.03,South,180,3.1,3.1,30,0.00,,---,0.00,VWS V14.01,2013-02-22 18:56:00,
2013-02-22 13:57:00,84.4,49.6,30.03,South,180,2.2,4.0,30,0.00,,---,0.00,VWS V14.01,2013-02-22 18:57:00,
2013-02-22 13:58:00,84.6,48.8,30.00,SSE,158,4.3,4.3,29,0.00,,---,0.00,VWS V14.01,2013-02-22 18:58:00,
2013-02-22 13:59:00,84.9,50.1,30.00,SW,225,0.0,4.3,30,0.00,,---,0.00,VWS V14.01,2013-02-22 18:59:00,
2013-02-22 14:00:00,85.6,49.8,30.00,SSW,202,0.0,2.2,29,0.00,,---,0.00,VWS V14.01,2013-02-22 19:00:00,
2013-02-22 14:01:00,85.6,49.8,30.00,WSW,248,2.5,2.7,29,0.00,,---,0.00,VWS V14.01,2013-02-22 19:01:00,
2013-02-22 14:02:00,85.8,49.9,30.00,SSW,202,1.6,3.8,29,0.00,,---,0.00,VWS V14.01,2013-02-22 19:02:00,
2013-02-22 14:03:00,86.2,50.2,30.00,SSE,158,2.7,2.7,29,0.00,,---,0.00,VWS V14.01,2013-02-22 19:03:00,
2013-02-22 14:04:00,85.8,49.9,30.00,SSW,202,1.1,4.7,29,0.00,,---,0.00,VWS V14.01,2013-02-22 19:04:00,
2013-02-22 14:05:00,84.7,49.0,30.00,WSW,248,0.0,1.6,29,0.00,,---,0.00,VWS V14.01,2013-02-22 19:05:00,
2013-02-22 14:06:00,86.4,50.4,30.00,SSW,202,2.7,2.7,29,0.00,,---,0.00,VWS V14.01,2013-02-22 19:06:00,
2013-02-22 14:07:00,86.5,50.5,30.00,WSW,248,0.0,2.7,29,0.00,,---,0.00,VWS V14.01,2013-02-22 19:07:00,
2013-02-22 14:08:00,86.4,50.4,30.00,SSW,202,2.9,2.9,29,0.00,,---,0.00,VWS V14.01,2013-02-22 19:08:00,
2013-02-22 14:09:00,86.0,50.1,30.00,WSW,248,2.2,2.9,29,0.00,,---,0.00,VWS V14.01,2013-02-22 19:09:00,
2013-02-22 14:10:00,85.6,50.7,30.00,SW,225,0.0,1.6,30,0.00,,---,0.00,VWS V14.01,2013-02-22 19:10:00,
2013-02-22 14:11:00,85.6,49.8,30.00,WSW,248,0.0,2.5,29,0.00,,---,0.00,VWS V14.01,2013-02-22 19:11:00,
2013-02-22 14:12:00,85.1,49.3,30.00,SSE,158,4.9,4.9,29,0.00,,---,0.00,VWS V14.01,2013-02-22 19:12:00,
2013-02-22 14:13:00,84.9,49.2,30.00,SSE,158,6.0,6.0,29,0.00,,---,0.00,VWS V14.01,2013-02-22 19:13:00,
2013-02-22 14:14:00,84.6,48.8,30.00,West,270,1.6,6.0,29,0.00,,---,0.00,VWS V14.01,2013-02-22 19:14:00,
2013-02-22 14:15:00,84.6,48.8,30.00,SSE,158,4.3,6.3,29,0.00,,---,0.00,VWS V14.01,2013-02-22 19:15:00,
2013-02-22 14:16:00,84.7,49.0,30.00,South,180,0.0,2.0,29,0.00,,---,0.00,VWS V14.01,2013-02-22 19:16:00,
2013-02-22 14:17:00,84.9,49.2,30.00,South,180,2.5,2.5,29,0.00,,---,0.00,VWS V14.01,2013-02-22 19:17:00,
2013-02-22 14:18:00,84.9,49.2,30.00,WSW,248,0.0,2.5,29,0.00,,---,0.00,VWS V14.01,2013-02-22 19:18:00,
2013-02-22 14:19:00,85.3,50.4,30.00,SW,225,0.9,2.0,30,0.00,,---,0.00,VWS V14.01,2013-02-22 19:19:00,
2013-02-22 14:20:00,85.1,50.2,30.00,SSW,202,1.6,3.1,30,0.00,,---,0.00,VWS V14.01,2013-02-22 19:20:00,
2013-02-22 14:21:00,86.0,50.1,30.00,SSE,158,11.9,11.9,29,0.00,,---,0.00,VWS V14.01,2013-02-22 19:21:00,
2013-02-22 14:22:00,85.3,49.5,30.00,SW,225,3.1,11.9,29,0.00,,---,0.00,VWS V14.01,2013-02-22 19:22:00,
2013-02-22 14:23:00,85.5,49.6,30.00,SSE,158,4.0,4.0,29,0.00,,---,0.00,VWS V14.01,2013-02-22 19:23:00,
2013-02-22 14:24:00,84.7,49.0,30.00,SSE,158,2.7,10.7,29,0.00,,---,0.00,VWS V14.01,2013-02-22 19:24:00,
2013-02-22 14:25:00,86.2,50.2,30.00,SSE,158,2.0,2.5,29,0.00,,---,0.00,VWS V14.01,2013-02-22 19:25:00,
2013-02-22 14:26:00,84.6,49.8,30.00,SSE,158,7.6,7.6,30,0.00,,---,0.00,VWS V14.01,2013-02-22 19:26:00,
2013-02-22 14:27:00,84.2,48.5,30.00,South,180,1.3,7.6,29,0.00,,---,0.00,VWS V14.01,2013-02-22 19:27:00,
2013-02-22 14:28:00,84.2,48.5,30.00,SSW,202,1.1,2.0,29,0.00,,---,0.00,VWS V14.01,2013-02-22 19:28:00,
2013-02-22 14:29:00,84.7,49.9,30.00,WSW,248,2.5,2.9,30,0.00,,---,0.00,VWS V14.01,2013-02-22 19:29:00,
2013-02-22 14:30:00,86.0,50.1,30.00,SSE,158,2.5,2.5,29,0.00,,---,0.00,VWS V14.01,2013-02-22 19:30:00,
2013-02-22 14:31:00,85.1,50.2,30.00,WSW,248,1.3,3.6,30,0.00,,---,0.00,VWS V14.01,2013-02-22 19:31:00,
2013-02-22 14:32:00,85.6,50.7,30.00,SW,225,0.9,1.6,30,0.00,,---,0.00,VWS V14.01,2013-02-22 19:32:00,
2013-02-22 14:33:00,86.2,51.1,30.00,SSE,158,3.8,3.8,30,0.00,,---,0.00,VWS V14.01,2013-02-22 19:33:00,
2013-02-22 14:34:00,86.4,50.4,30.00,SSW,202,2.5,3.8,29,0.00,,---,0.00,VWS V14.01,2013-02-22 19:34:00,
2013-02-22 14:35:00,86.0,50.1,29.97,SSW,202,1.6,3.6,29,0.00,,---,0.00,VWS V14.01,2013-02-22 19:35:00,
2013-02-22 14:36:00,86.5,50.5,30.00,South,180,0.9,3.4,29,0.00,,---,0.00,VWS V14.01,2013-02-22 19:36:00,
2013-02-22 14:37:00,86.4,50.4,30.00,SSW,202,1.6,2.9,29,0.00,,---,0.00,VWS V14.01,2013-02-22 19:37:00,
2013-02-22 14:38:00,86.4,50.4,30.00,WSW,248,1.6,6.0,29,0.00,,---,0.00,VWS V14.01,2013-02-22 19:38:00,
2013-02-22 14:39:00,86.2,50.2,30.00,WSW,248,1.6,1.6,29,0.00,,---,0.00,VWS V14.01,2013-02-22 19:39:00,
2013-02-22 14:40:00,86.5,50.5,29.97,SSE,158,2.9,4.9,29,0.00,,---,0.00,VWS V14.01,2013-02-22 19:40:00,
2013-02-22 14:41:00,85.6,49.8,30.00,SSW,202,4.7,7.8,29,0.00,,---,0.00,VWS V14.01,2013-02-22 19:41:00,
2013-02-22 14:42:00,85.3,49.5,30.00,WSW,248,3.1,5.4,29,0.00,,---,0.00,VWS V14.01,2013-02-22 19:42:00,
2013-02-22 14:43:00,85.3,49.5,29.97,SSW,202,4.0,4.3,29,0.00,,---,0.00,VWS V14.01,2013-02-22 19:43:00,
2013-02-22 14:44:00,85.5,49.6,29.97,WSW,248,3.6,4.0,29,0.00,,---,0.00,VWS V14.01,2013-02-22 19:44:00,
2013-02-22 14:45:00,87.1,50.1,29.97,SW,225,4.0,4.0,28,0.00,,---,0.00,VWS V14.01,2013-02-22 19:45:00,
2013-02-22 14:46:00,86.2,50.2,29.97,SSW,202,2.0,4.3,29,0.00,,---,0.00,VWS V14.01,2013-02-22 19:46:00,
2013-02-22 14:47:00,86.4,50.4,29.97,SSW,202,3.6,4.0,29,0.00,,---,0.00,VWS V14.01,2013-02-22 19:47:00,
2013-02-22 14:48:00,86.4,50.4,29.97,ESE,112,2.7,3.6,29,0.00,,---,0.00,VWS V14.01,2013-02-22 19:48:00,
2013-02-22 14:49:00,86.5,50.5,29.97,SSE,158,4.9,4.9,29,0.00,,---,0.00,VWS V14.01,2013-02-22 19:49:00,
2013-02-22 14:50:00,87.3,50.2,29.97,WSW,248,2.5,2.7,28,0.00,,---,0.00,VWS V14.01,2013-02-22 19:50:00,
2013-02-22 14:51:00,86.2,49.3,29.97,South,180,8.1,8.1,28,0.00,,---,0.00,VWS V14.01,2013-02-22 19:51:00,
2013-02-22 14:52:00,86.4,50.4,29.97,SSW,202,2.0,8.1,29,0.00,,---,0.00,VWS V14.01,2013-02-22 19:52:00,
2013-02-22 14:53:00,86.9,50.8,29.97,SSW,202,1.1,2.0,29,0.00,,---,0.00,VWS V14.01,2013-02-22 19:53:00,
2013-02-22 14:54:00,87.1,51.0,29.97,WSW,248,3.6,3.6,29,0.00,,---,0.00,VWS V14.01,2013-02-22 19:54:00,
2013-02-22 14:55:00,87.8,50.7,29.97,SSW,202,1.3,3.1,28,0.00,,---,0.00,VWS V14.01,2013-02-22 19:55:00,
2013-02-22 14:56:00,87.1,50.1,29.97,SSE,158,2.9,3.6,28,0.00,,---,0.00,VWS V14.01,2013-02-22 19:56:00,
2013-02-22 14:57:00,86.9,49.9,29.97,SSW,202,2.2,2.9,28,0.00,,---,0.00,VWS V14.01,2013-02-22 19:57:00,
2013-02-22 14:58:00,87.1,50.1,29.97,SSW,202,2.5,2.9,28,0.00,,---,0.00,VWS V14.01,2013-02-22 19:58:00,
2013-02-22 14:59:00,87.1,50.1,29.97,SSW,202,2.7,2.7,28,0.00,,---,0.00,VWS V14.01,2013-02-22 19:59:00,
2013-02-22 15:00:00,87.1,50.1,29.97,SSW,202,3.4,4.3,28,0.00,,---,0.00,VWS V14.01,2013-02-22 20:00:00,
2013-02-22 15:01:00,87.4,50.4,29.97,SW,225,2.0,3.6,28,0.00,,---,0.00,VWS V14.01,2013-02-22 20:01:00,
2013-02-22 15:02:00,87.6,50.5,29.97,WSW,248,2.0,3.4,28,0.00,,---,0.00,VWS V14.01,2013-02-22 20:02:00,
2013-02-22 15:03:00,87.8,50.7,29.97,WSW,248,3.6,3.6,28,0.00,,---,0.00,VWS V14.01,2013-02-22 20:03:00,
2013-02-22 15:04:00,87.6,50.5,29.97,SSW,202,3.1,3.6,28,0.00,,---,0.00,VWS V14.01,2013-02-22 20:04:00,
2013-02-22 15:05:00,86.7,48.8,29.97,SSW,202,3.6,5.6,27,0.00,,---,0.00,VWS V14.01,2013-02-22 20:05:00,
2013-02-22 15:06:00,88.0,50.8,29.97,SW,225,1.3,2.9,28,0.00,,---,0.00,VWS V14.01,2013-02-22 20:06:00,
2013-02-22 15:07:00,88.0,50.8,29.97,SSW,202,4.0,4.0,28,0.00,,---,0.00,VWS V14.01,2013-02-22 20:07:00,
2013-02-22 15:08:00,87.1,49.1,29.97,SSW,202,3.6,4.3,27,0.00,,---,0.00,VWS V14.01,2013-02-22 20:08:00,
2013-02-22 15:09:00,87.1,50.1,29.97,South,180,3.1,3.8,28,0.00,,---,0.00,VWS V14.01,2013-02-22 20:09:00,
2013-02-22 15:10:00,86.4,49.4,29.97,South,180,2.2,3.4,28,0.00,,---,0.00,VWS V14.01,2013-02-22 20:10:00,
2013-02-22 15:11:00,87.1,50.1,29.97,SSE,158,6.5,6.5,28,0.00,,---,0.00,VWS V14.01,2013-02-22 20:11:00,
2013-02-22 15:12:00,87.1,50.1,29.97,SSE,158,1.6,6.5,28,0.00,,---,0.00,VWS V14.01,2013-02-22 20:12:00,
2013-02-22 15:13:00,87.1,50.1,29.97,WSW,248,3.1,3.1,28,0.00,,---,0.00,VWS V14.01,2013-02-22 20:13:00,
2013-02-22 15:14:00,87.1,50.1,29.97,SSW,202,3.8,3.8,28,0.00,,---,0.00,VWS V14.01,2013-02-22 20:14:00,
2013-02-22 15:15:00,85.8,49.9,29.97,SW,225,2.0,5.8,29,0.00,,---,0.00,VWS V14.01,2013-02-22 20:15:00,
2013-02-22 15:16:00,86.7,49.8,29.97,SW,225,2.9,2.9,28,0.00,,---,0.00,VWS V14.01,2013-02-22 20:16:00,
2013-02-22 15:17:00,86.7,49.8,29.97,East,90,4.5,4.5,28,0.00,,---,0.00,VWS V14.01,2013-02-22 20:17:00,
2013-02-22 15:18:00,86.4,49.4,29.97,SSE,158,2.2,4.5,28,0.00,,---,0.00,VWS V14.01,2013-02-22 20:18:00,
2013-02-22 15:19:00,86.4,49.4,29.97,South,180,3.4,3.8,28,0.00,,---,0.00,VWS V14.01,2013-02-22 20:19:00,
2013-02-22 15:20:00,86.7,49.8,29.97,SSW,202,0.0,2.5,28,0.00,,---,0.00,VWS V14.01,2013-02-22 20:20:00,
2013-02-22 15:21:00,86.5,49.6,29.97,SW,225,3.4,3.4,28,0.00,,---,0.00,VWS V14.01,2013-02-22 20:21:00,
2013-02-22 15:22:00,86.5,49.6,29.97,South,180,3.1,3.4,28,0.00,,---,0.00,VWS V14.01,2013-02-22 20:22:00,
2013-02-22 15:23:00,86.4,49.4,29.97,SSW,202,3.8,3.8,28,0.00,,---,0.00,VWS V14.01,2013-02-22 20:23:00,
2013-02-22 15:24:00,86.4,49.4,29.97,South,180,5.8,5.8,28,0.00,,---,0.00,VWS V14.01,2013-02-22 20:24:00,
2013-02-22 15:25:00,86.5,49.6,29.97,West,270,8.5,10.3,28,0.00,,---,0.00,VWS V14.01,2013-02-22 20:25:00,
2013-02-22 15:26:00,86.0,49.1,29.97,SSE,158,0.0,0.0,28,0.00,,---,0.00,VWS V14.01,2013-02-22 20:26:00,
2013-02-22 15:27:00,86.4,49.4,29.97,WSW,248,2.5,2.5,28,0.00,,---,0.00,VWS V14.01,2013-02-22 20:27:00,
2013-02-22 15:28:00,86.5,49.6,29.97,SSW,202,2.0,2.9,28,0.00,,---,0.00,VWS V14.01,2013-02-22 20:28:00,
2013-02-22 15:29:00,86.5,49.6,29.97,WSW,248,1.3,2.0,28,0.00,,---,0.00,VWS V14.01,2013-02-22 20:29:00,
2013-02-22 15:30:00,86.0,49.1,29.97,SW,225,2.7,2.7,28,0.00,,---,0.00,VWS V14.01,2013-02-22 20:30:00,
2013-02-22 15:31:00,86.9,49.9,29.97,WSW,248,2.2,2.2,28,0.00,,---,0.00,VWS V14.01,2013-02-22 20:31:00,
2013-02-22 15:32:00,87.1,50.1,29.97,SSW,202,0.0,2.9,28,0.00,,---,0.00,VWS V14.01,2013-02-22 20:32:00,
2013-02-22 15:33:00,87.1,50.1,29.97,SE,135,1.6,3.1,28,0.00,,---,0.00,VWS V14.01,2013-02-22 20:33:00,
2013-02-22 15:34:00,87.1,50.1,29.97,SSE,158,10.3,10.3,28,0.00,,---,0.00,VWS V14.01,2013-02-22 20:34:00,
2013-02-22 15:35:00,85.1,49.3,29.97,SSE,158,1.1,4.3,29,0.00,,---,0.00,VWS V14.01,2013-02-22 20:35:00,
2013-02-22 15:36:00,86.5,49.6,29.97,SSW,202,2.0,3.4,28,0.00,,---,0.00,VWS V14.01,2013-02-22 20:36:00,
2013-02-22 15:37:00,86.4,49.4,29.97,SSE,158,1.3,2.9,28,0.00,,---,0.00,VWS V14.01,2013-02-22 20:37:00,
2013-02-22 15:38:00,86.2,49.3,29.97,SSW,202,4.0,4.0,28,0.00,,---,0.00,VWS V14.01,2013-02-22 20:38:00,
2013-02-22 15:39:00,86.0,49.1,29.97,WSW,248,2.5,4.0,28,0.00,,---,0.00,VWS V14.01,2013-02-22 20:39:00,
2013-02-22 15:40:00,85.6,49.8,29.97,SSW,202,2.5,2.5,29,0.00,,---,0.00,VWS V14.01,2013-02-22 20:40:00,
2013-02-22 15:41:00,86.0,49.1,29.97,SSW,202,2.5,2.7,28,0.00,,---,0.00,VWS V14.01,2013-02-22 20:41:00,
2013-02-22 15:42:00,85.8,49.9,29.97,SSW,202,2.5,3.1,29,0.00,,---,0.00,VWS V14.01,2013-02-22 20:42:00,
2013-02-22 15:43:00,85.6,49.8,29.97,SSW,202,3.1,3.1,29,0.00,,---,0.00,VWS V14.01,2013-02-22 20:43:00,
2013-02-22 15:44:00,85.5,49.6,29.97,SSW,202,4.3,4.3,29,0.00,,---,0.00,VWS V14.01,2013-02-22 20:44:00,
2013-02-22 15:45:00,84.9,49.2,29.97,SSW,202,2.5,2.7,29,0.00,,---,0.00,VWS V14.01,2013-02-22 20:45:00,
2013-02-22 15:46:00,85.1,49.3,29.97,SSW,202,0.0,1.1,29,0.00,,---,0.00,VWS V14.01,2013-02-22 20:46:00,
2013-02-22 15:47:00,85.5,49.6,29.97,SSW,202,1.6,1.6,29,0.00,,---,0.00,VWS V14.01,2013-02-22 20:47:00,
2013-02-22 15:48:00,85.6,49.8,29.97,South,180,3.1,3.1,29,0.00,,---,0.00,VWS V14.01,2013-02-22 20:48:00,
2013-02-22 15:49:00,85.6,49.8,29.97,SSW,202,2.5,4.3,29,0.00,,---,0.00,VWS V14.01,2013-02-22 20:49:00,
2013-02-22 15:50:00,85.3,49.5,29.97,South,180,1.6,1.6,29,0.00,,---,0.00,VWS V14.01,2013-02-22 20:50:00,
2013-02-22 15:51:00,85.6,49.8,29.97,SW,225,4.0,4.0,29,0.00,,---,0.00,VWS V14.01,2013-02-22 20:51:00,
2013-02-22 15:52:00,85.5,49.6,29.97,SW,225,4.0,4.0,29,0.00,,---,0.00,VWS V14.01,2013-02-22 20:52:00,
2013-02-22 15:53:00,85.3,49.5,29.97,SSW,202,2.7,4.0,29,0.00,,---,0.00,VWS V14.01,2013-02-22 20:53:00,
2013-02-22 15:54:00,85.1,49.3,29.97,SSW,202,2.7,2.7,29,0.00,,---,0.00,VWS V14.01,2013-02-22 20:54:00,
2013-02-22 15:55:00,84.4,48.7,29.97,SSW,202,4.3,4.3,29,0.00,,---,0.00,VWS V14.01,2013-02-22 20:55:00,
2013-02-22 15:56:00,84.9,49.2,29.97,SSW,202,2.5,2.5,29,0.00,,---,0.00,VWS V14.01,2013-02-22 20:56:00,
2013-02-22 15:57:00,85.1,49.3,29.97,SW,225,1.6,2.5,29,0.00,,---,0.00,VWS V14.01,2013-02-22 20:57:00,
2013-02-22 15:58:00,85.3,49.5,29.97,SW,225,1.3,1.6,29,0.00,,---,0.00,VWS V14.01,2013-02-22 20:58:00,
2013-02-22 15:59:00,85.3,49.5,29.97,South,180,1.6,1.6,29,0.00,,---,0.00,VWS V14.01,2013-02-22 20:59:00,
2013-02-22 16:00:00,83.8,48.2,29.97,SSE,158,5.4,5.4,29,0.00,,---,0.00,VWS V14.01,2013-02-22 21:00:00,
2013-02-22 16:01:00,85.1,49.3,29.97,South,180,1.6,1.6,29,0.00,,---,0.00,VWS V14.01,2013-02-22 21:01:00,
2013-02-22 16:02:00,84.9,49.2,29.97,South,180,1.6,1.6,29,0.00,,---,0.00,VWS V14.01,2013-02-22 21:02:00,
2013-02-22 16:03:00,84.6,48.8,29.97,SSE,158,3.4,3.4,29,0.00,,---,0.00,VWS V14.01,2013-02-22 21:03:00,
2013-02-22 16:04:00,84.6,48.8,29.97,SSE,158,3.4,3.4,29,0.00,,---,0.00,VWS V14.01,2013-02-22 21:04:00,
2013-02-22 16:05:00,82.4,47.9,29.94,ESE,112,2.7,2.7,30,0.00,,---,0.00,VWS V14.01,2013-02-22 21:05:00,
2013-02-22 16:06:00,84.2,48.5,29.97,SSW,202,2.5,4.3,29,0.00,,---,0.00,VWS V14.01,2013-02-22 21:06:00,
2013-02-22 16:07:00,84.2,48.5,29.97,SSW,202,2.5,2.5,29,0.00,,---,0.00,VWS V14.01,2013-02-22 21:07:00,
2013-02-22 16:08:00,83.8,48.2,29.97,SSE,158,2.5,2.7,29,0.00,,---,0.00,VWS V14.01,2013-02-22 21:08:00,
2013-02-22 16:09:00,83.8,48.2,29.97,SSE,158,2.5,2.5,29,0.00,,---,0.00,VWS V14.01,2013-02-22 21:09:00,
2013-02-22 16:10:00,81.9,48.3,29.94,West,270,1.6,1.6,31,0.00,,---,0.00,VWS V14.01,2013-02-22 21:10:00,
2013-02-22 16:11:00,83.1,47.6,29.97,ESE,112,2.7,5.4,29,0.00,,---,0.00,VWS V14.01,2013-02-22 21:11:00,
2013-02-22 16:12:00,83.3,47.8,29.97,ESE,112,2.7,2.7,29,0.00,,---,0.00,VWS V14.01,2013-02-22 21:12:00,
2013-02-22 16:13:00,82.9,48.3,29.94,ESE,112,2.7,2.7,30,0.00,,---,0.00,VWS V14.01,2013-02-22 21:13:00,
2013-02-22 16:14:00,82.4,47.9,29.94,ESE,112,2.7,2.7,30,0.00,,---,0.00,VWS V14.01,2013-02-22 21:14:00,
2013-02-22 16:15:00,81.7,49.0,29.94,WSW,248,2.7,2.7,32,0.00,,---,0.00,VWS V14.01,2013-02-22 21:15:00,
2013-02-22 16:16:00,82.4,47.9,29.94,ESE,112,2.7,2.7,30,0.00,,---,0.00,VWS V14.01,2013-02-22 21:16:00,
2013-02-22 16:17:00,82.0,47.6,29.94,SSE,158,2.9,2.9,30,0.00,,---,0.00,VWS V14.01,2013-02-22 21:17:00,
2013-02-22 16:18:00,82.0,47.6,29.94,SW,225,4.9,4.9,30,0.00,,---,0.00,VWS V14.01,2013-02-22 21:18:00,
2013-02-22 16:19:00,81.7,48.1,29.94,SSW,202,0.0,4.9,31,0.00,,---,0.00,VWS V14.01,2013-02-22 21:19:00,
2013-02-22 16:20:00,81.7,49.8,29.94,ESE,112,1.6,3.4,33,0.00,,---,0.00,VWS V14.01,2013-02-22 21:20:00,
2013-02-22 16:21:00,81.9,48.3,29.94,South,180,4.7,4.7,31,0.00,,---,0.00,VWS V14.01,2013-02-22 21:21:00,
2013-02-22 16:22:00,81.7,48.1,29.94,SSW,202,5.4,5.4,31,0.00,,---,0.00,VWS V14.01,2013-02-22 21:22:00,
2013-02-22 16:23:00,81.5,48.8,29.94,WSW,248,1.1,5.4,32,0.00,,---,0.00,VWS V14.01,2013-02-22 21:23:00,
2013-02-22 16:24:00,81.7,49.0,29.94,WSW,248,1.3,1.3,32,0.00,,---,0.00,VWS V14.01,2013-02-22 21:24:00,
2013-02-22 16:25:00,81.9,50.0,29.94,SSE,158,0.0,1.6,33,0.00,,---,0.00,VWS V14.01,2013-02-22 21:25:00,
2013-02-22 16:26:00,81.3,48.7,29.94,North,0,7.2,7.2,32,0.00,,---,0.00,VWS V14.01,2013-02-22 21:26:00,
2013-02-22 16:27:00,81.3,48.7,29.94,South,180,1.6,7.2,32,0.00,,---,0.00,VWS V14.01,2013-02-22 21:27:00,
2013-02-22 16:28:00,81.5,48.8,29.94,SSW,202,0.9,1.6,32,0.00,,---,0.00,VWS V14.01,2013-02-22 21:28:00,
2013-02-22 16:29:00,81.7,49.8,29.94,WSW,248,3.4,3.4,33,0.00,,---,0.00,VWS V14.01,2013-02-22 21:29:00,
2013-02-22 16:30:00,81.7,50.6,29.94,SSW,202,0.0,0.0,34,0.00,,---,0.00,VWS V14.01,2013-02-22 21:30:00,
2013-02-22 16:31:00,81.9,50.0,29.94,SSW,202,3.1,3.1,33,0.00,,---,0.00,VWS V14.01,2013-02-22 21:31:00,
2013-02-22 16:32:00,81.7,49.8,29.94,SE,135,3.8,3.8,33,0.00,,---,0.00,VWS V14.01,2013-02-22 21:32:00,
2013-02-22 16:33:00,81.7,49.8,29.94,WSW,248,2.2,3.8,33,0.00,,---,0.00,VWS V14.01,2013-02-22 21:33:00,
2013-02-22 16:34:00,81.7,49.8,29.94,ENE,68,0.0,2.2,33,0.00,,---,0.00,VWS V14.01,2013-02-22 21:34:00,
2013-02-22 16:35:00,81.1,50.9,29.97,SW,225,2.2,3.4,35,0.00,,---,0.00,VWS V14.01,2013-02-22 21:35:00,
2013-02-22 16:36:00,81.9,50.8,29.94,SSE,158,2.5,3.4,34,0.00,,---,0.00,VWS V14.01,2013-02-22 21:36:00,
2013-02-22 16:37:00,81.7,50.6,29.94,South,180,1.6,2.5,34,0.00,,---,0.00,VWS V14.01,2013-02-22 21:37:00,
2013-02-22 16:38:00,81.9,50.8,29.94,SSW,202,2.5,2.5,34,0.00,,---,0.00,VWS V14.01,2013-02-22 21:38:00,
2013-02-22 16:39:00,81.9,50.8,29.94,SSW,202,0.0,2.5,34,0.00,,---,0.00,VWS V14.01,2013-02-22 21:39:00,
2013-02-22 16:40:00,80.2,51.6,29.97,SW,225,1.6,1.6,37,0.00,,---,0.00,VWS V14.01,2013-02-22 21:40:00,
2013-02-22 16:41:00,81.7,50.6,29.94,SSW,202,2.7,4.7,34,0.00,,---,0.00,VWS V14.01,2013-02-22 21:41:00,
2013-02-22 16:42:00,81.3,50.3,29.94,WSW,248,0.0,2.7,34,0.00,,---,0.00,VWS V14.01,2013-02-22 21:42:00,
2013-02-22 16:43:00,81.3,51.1,29.97,SSW,202,1.3,1.3,35,0.00,,---,0.00,VWS V14.01,2013-02-22 21:43:00,
2013-02-22 16:44:00,81.3,51.1,29.97,SW,225,0.9,1.6,35,0.00,,---,0.00,VWS V14.01,2013-02-22 21:44:00,
2013-02-22 16:45:00,80.1,51.5,29.97,SSW,202,2.5,2.5,37,0.00,,---,0.00,VWS V14.01,2013-02-22 21:45:00,
2013-02-22 16:46:00,80.4,51.0,29.97,SSW,202,10.3,10.3,36,0.00,,---,0.00,VWS V14.01,2013-02-22 21:46:00,
2013-02-22 16:47:00,80.4,51.0,29.97,SSW,202,2.5,10.3,36,0.00,,---,0.00,VWS V14.01,2013-02-22 21:47:00,
2013-02-22 16:48:00,80.4,51.0,29.97,SSW,202,0.9,2.5,36,0.00,,---,0.00,VWS V14.01,2013-02-22 21:48:00,
2013-02-22 16:49:00,80.4,51.0,29.97,SW,225,1.6,1.6,36,0.00,,---,0.00,VWS V14.01,2013-02-22 21:49:00,
2013-02-22 16:50:00,79.5,51.7,29.97,SSW,202,3.1,4.5,38,0.00,,---,0.00,VWS V14.01,2013-02-22 21:50:00,
2013-02-22 16:51:00,80.1,51.5,29.97,SW,225,1.6,1.6,37,0.00,,---,0.00,VWS V14.01,2013-02-22 21:51:00,
2013-02-22 16:52:00,80.1,51.5,29.97,SW,225,1.6,1.6,37,0.00,,---,0.00,VWS V14.01,2013-02-22 21:52:00,
2013-02-22 16:53:00,80.1,51.5,29.97,SSW,202,1.3,1.6,37,0.00,,---,0.00,VWS V14.01,2013-02-22 21:53:00,
2013-02-22 16:54:00,80.1,51.5,29.97,SW,225,1.3,2.0,37,0.00,,---,0.00,VWS V14.01,2013-02-22 21:54:00,
2013-02-22 16:55:00,79.3,51.5,29.97,WSW,248,0.9,2.0,38,0.00,,---,0.00,VWS V14.01,2013-02-22 21:55:00,
2013-02-22 16:56:00,80.1,51.5,29.97,SSW,202,2.7,3.1,37,0.00,,---,0.00,VWS V14.01,2013-02-22 21:56:00,
2013-02-22 16:57:00,79.9,51.3,29.97,SSW,202,1.3,3.1,37,0.00,,---,0.00,VWS V14.01,2013-02-22 21:57:00,
2013-02-22 16:58:00,79.9,52.0,29.97,WSW,248,4.5,4.5,38,0.00,,---,0.00,VWS V14.01,2013-02-22 21:58:00,
2013-02-22 16:59:00,79.7,51.9,29.97,WSW,248,4.5,4.5,38,0.00,,---,0.00,VWS V14.01,2013-02-22 21:59:00,
2013-02-22 17:00:00,79.2,51.4,29.97,SW,225,0.9,2.2,38,0.00,,---,0.00,VWS V14.01,2013-02-22 22:00:00,
2013-02-22 17:01:00,79.5,51.7,29.97,SSW,202,2.5,3.1,38,0.00,,---,0.00,VWS V14.01,2013-02-22 22:01:00,
2013-02-22 17:02:00,79.5,51.7,29.97,SW,225,1.3,2.5,38,0.00,,---,0.00,VWS V14.01,2013-02-22 22:02:00,
2013-02-22 17:03:00,79.5,51.7,29.97,WSW,248,2.0,2.0,38,0.00,,---,0.00,VWS V14.01,2013-02-22 22:03:00,
2013-02-22 17:04:00,79.3,51.5,29.97,SSW,202,2.0,2.0,38,0.00,,---,0.00,VWS V14.01,2013-02-22 22:04:00,
2013-02-22 17:05:00,78.8,51.8,29.97,SSW,202,2.5,2.7,39,0.00,,---,0.00,VWS V14.01,2013-02-22 22:05:00,
2013-02-22 17:06:00,79.3,51.5,29.97,WSW,248,1.3,1.3,38,0.00,,---,0.00,VWS V14.01,2013-02-22 22:06:00,
2013-02-22 17:07:00,79.3,51.5,29.97,SW,225,1.1,1.3,38,0.00,,---,0.00,VWS V14.01,2013-02-22 22:07:00,
2013-02-22 17:08:00,79.3,51.5,29.97,SSE,158,2.7,2.7,38,0.00,,---,0.00,VWS V14.01,2013-02-22 22:08:00,
2013-02-22 17:09:00,79.3,51.5,29.97,SSW,202,2.2,2.7,38,0.00,,---,0.00,VWS V14.01,2013-02-22 22:09:00,
2013-02-22 17:10:00,78.4,52.1,29.97,SSW,202,1.1,2.0,40,0.00,,---,0.00,VWS V14.01,2013-02-22 22:10:00,
2013-02-22 17:11:00,79.2,52.1,29.97,SSW,202,2.5,2.5,39,0.00,,---,0.00,VWS V14.01,2013-02-22 22:11:00,
2013-02-22 17:12:00,79.2,52.1,29.97,SW,225,1.3,2.5,39,0.00,,---,0.00,VWS V14.01,2013-02-22 22:12:00,
2013-02-22 17:13:00,79.0,51.9,29.97,SSW,202,2.7,2.9,39,0.00,,---,0.00,VWS V14.01,2013-02-22 22:13:00,
2013-02-22 17:14:00,79.0,51.9,29.97,SSW,202,2.7,3.4,39,0.00,,---,0.00,VWS V14.01,2013-02-22 22:14:00,
2013-02-22 17:15:00,78.1,51.8,29.97,NNE,22,2.2,3.4,40,0.00,,---,0.00,VWS V14.01,2013-02-22 22:15:00,
2013-02-22 17:16:00,78.6,51.6,29.97,SSW,202,2.0,2.5,39,0.00,,---,0.00,VWS V14.01,2013-02-22 22:16:00,
2013-02-22 17:17:00,78.6,51.6,29.97,SSE,158,2.9,2.9,39,0.00,,---,0.00,VWS V14.01,2013-02-22 22:17:00,
2013-02-22 17:18:00,78.6,51.6,29.97,WSW,248,2.9,2.9,39,0.00,,---,0.00,VWS V14.01,2013-02-22 22:18:00,
2013-02-22 17:19:00,78.4,52.1,29.97,WSW,248,0.0,2.9,40,0.00,,---,0.00,VWS V14.01,2013-02-22 22:19:00,
2013-02-22 17:20:00,77.9,52.3,29.97,SW,225,2.5,5.6,41,0.00,,---,0.00,VWS V14.01,2013-02-22 22:20:00,
2013-02-22 17:21:00,78.3,52.0,29.97,SSW,202,0.0,4.0,40,0.00,,---,0.00,VWS V14.01,2013-02-22 22:21:00,
2013-02-22 17:22:00,78.3,52.0,29.97,SSW,202,2.0,2.0,40,0.00,,---,0.00,VWS V14.01,2013-02-22 22:22:00,
2013-02-22 17:23:00,78.3,52.0,29.97,SSW,202,2.0,2.7,40,0.00,,---,0.00,VWS V14.01,2013-02-22 22:23:00,
2013-02-22 17:24:00,78.3,52.0,29.97,South,180,3.4,3.4,40,0.00,,---,0.00,VWS V14.01,2013-02-22 22:24:00,
2013-02-22 17:25:00,77.9,52.3,29.97,SSW,202,1.6,1.6,41,0.00,,---,0.00,VWS V14.01,2013-02-22 22:25:00,
2013-02-22 17:26:00,78.1,51.8,29.97,SSE,158,0.0,2.5,40,0.00,,---,0.00,VWS V14.01,2013-02-22 22:26:00,
2013-02-22 17:27:00,77.9,52.3,29.97,WSW,248,1.3,7.4,41,0.00,,---,0.00,VWS V14.01,2013-02-22 22:27:00,
2013-02-22 17:28:00,78.1,52.5,29.97,WSW,248,2.9,2.9,41,0.00,,---,0.00,VWS V14.01,2013-02-22 22:28:00,
2013-02-22 17:29:00,77.9,52.3,29.97,South,180,2.9,2.9,41,0.00,,---,0.00,VWS V14.01,2013-02-22 22:29:00,
2013-02-22 17:30:00,77.9,52.3,29.97,WSW,248,4.0,4.0,41,0.00,,---,0.00,VWS V14.01,2013-02-22 22:30:00,
2013-02-22 17:31:00,77.9,52.3,29.97,SSW,202,2.5,2.5,41,0.00,,---,0.00,VWS V14.01,2013-02-22 22:31:00,
2013-02-22 17:32:00,77.9,52.3,29.97,SSW,202,2.2,2.5,41,0.00,,---,0.00,VWS V14.01,2013-02-22 22:32:00,
2013-02-22 17:33:00,77.9,52.3,29.97,South,180,2.0,2.2,41,0.00,,---,0.00,VWS V14.01,2013-02-22 22:33:00,
2013-02-22 17:34:00,77.9,52.3,29.97,South,180,0.0,2.0,41,0.00,,---,0.00,VWS V14.01,2013-02-22 22:34:00,
2013-02-22 17:35:00,77.7,52.8,29.97,South,180,2.0,2.9,42,0.00,,---,0.00,VWS V14.01,2013-02-22 22:35:00,
2013-02-22 17:36:00,77.9,52.3,29.97,WNW,292,3.8,3.8,41,0.00,,---,0.00,VWS V14.01,2013-02-22 22:36:00,
2013-02-22 17:37:00,77.9,52.3,29.97,SSW,202,2.2,3.8,41,0.00,,---,0.00,VWS V14.01,2013-02-22 22:37:00,
2013-02-22 17:38:00,77.9,53.0,29.97,SSE,158,3.8,3.8,42,0.00,,---,0.00,VWS V14.01,2013-02-22 22:38:00,
2013-02-22 17:39:00,77.9,53.0,29.97,South,180,2.5,5.6,42,0.00,,---,0.00,VWS V14.01,2013-02-22 22:39:00,
2013-02-22 17:40:00,77.7,52.8,29.97,South,180,4.0,4.0,42,0.00,,---,0.00,VWS V14.01,2013-02-22 22:40:00,
2013-02-22 17:41:00,77.9,53.0,29.97,South,180,1.3,4.0,42,0.00,,---,0.00,VWS V14.01,2013-02-22 22:41:00,
2013-02-22 17:42:00,77.9,53.0,29.97,ESE,112,4.0,4.0,42,0.00,,---,0.00,VWS V14.01,2013-02-22 22:42:00,
2013-02-22 17:43:00,77.9,52.3,29.97,SSW,202,1.1,4.0,41,0.00,,---,0.00,VWS V14.01,2013-02-22 22:43:00,
2013-02-22 17:44:00,77.7,52.8,29.97,SSW,202,2.9,2.9,42,0.00,,---,0.00,VWS V14.01,2013-02-22 22:44:00,
2013-02-22 17:45:00,77.2,52.3,29.97,SSE,158,2.0,7.4,42,0.00,,---,0.00,VWS V14.01,2013-02-22 22:45:00,
2013-02-22 17:46:00,77.9,53.0,29.97,SSW,202,1.6,1.6,42,0.00,,---,0.00,VWS V14.01,2013-02-22 22:46:00,
2013-02-22 17:47:00,77.9,53.0,29.97,SSW,202,1.3,1.6,42,0.00,,---,0.00,VWS V14.01,2013-02-22 22:47:00,
2013-02-22 17:48:00,77.7,52.8,29.97,SSW,202,2.0,2.9,42,0.00,,---,0.00,VWS V14.01,2013-02-22 22:48:00,
2013-02-22 17:49:00,77.7,52.8,29.97,SSW,202,0.9,2.0,42,0.00,,---,0.00,VWS V14.01,2013-02-22 22:49:00,
2013-02-22 17:50:00,76.8,52.7,29.94,SSE,158,3.4,4.7,43,0.00,,---,0.00,VWS V14.01,2013-02-22 22:50:00,
2013-02-22 17:51:00,77.4,52.5,29.97,SSE,158,3.6,6.0,42,0.00,,---,0.00,VWS V14.01,2013-02-22 22:51:00,
2013-02-22 17:52:00,77.4,52.5,29.97,SSE,158,3.4,3.6,42,0.00,,---,0.00,VWS V14.01,2013-02-22 22:52:00,
2013-02-22 17:53:00,77.2,52.3,29.97,NW,315,2.7,3.4,42,0.00,,---,0.00,VWS V14.01,2013-02-22 22:53:00,
2013-02-22 17:54:00,77.2,52.3,29.97,SSE,158,7.4,7.4,42,0.00,,---,0.00,VWS V14.01,2013-02-22 22:54:00,
2013-02-22 17:55:00,76.6,52.5,29.94,SSW,202,0.0,0.0,43,0.00,,---,0.00,VWS V14.01,2013-02-22 22:55:00,
2013-02-22 17:56:00,77.2,52.3,29.97,SW,225,0.0,1.6,42,0.00,,---,0.00,VWS V14.01,2013-02-22 22:56:00,
2013-02-22 17:57:00,77.0,52.2,29.97,SW,225,0.0,0.0,42,0.00,,---,0.00,VWS V14.01,2013-02-22 22:57:00,
2013-02-22 17:58:00,77.0,52.8,29.94,SW,225,0.0,0.0,43,0.00,,---,0.00,VWS V14.01,2013-02-22 22:58:00,
2013-02-22 17:59:00,76.8,52.7,29.94,SW,225,2.9,2.9,43,0.00,,---,0.00,VWS V14.01,2013-02-22 22:59:00,
2013-02-22 18:00:00,76.1,52.6,29.94,SSW,202,2.9,2.9,44,0.00,,---,0.00,VWS V14.01,2013-02-22 23:00:00,
2013-02-22 18:01:00,76.6,52.5,29.94,SW,225,0.0,5.4,43,0.00,,---,0.00,VWS V14.01,2013-02-22 23:01:00,
2013-02-22 18:02:00,76.6,52.5,29.94,SW,225,0.0,0.0,43,0.00,,---,0.00,VWS V14.01,2013-02-22 23:02:00,
2013-02-22 18:03:00,76.6,52.5,29.94,SW,225,1.6,1.6,43,0.00,,---,0.00,VWS V14.01,2013-02-22 23:03:00,
2013-02-22 18:04:00,76.6,52.5,29.94,SSW,202,0.0,1.6,43,0.00,,---,0.00,VWS V14.01,2013-02-22 23:04:00,
2013-02-22 18:05:00,75.7,52.9,29.94,SSE,158,1.1,1.1,45,0.00,,---,0.00,VWS V14.01,2013-02-22 23:05:00,
2013-02-22 18:06:00,76.5,53.0,29.94,SSW,202,1.3,1.6,44,0.00,,---,0.00,VWS V14.01,2013-02-22 23:06:00,
2013-02-22 18:07:00,76.3,52.8,29.94,SE,135,2.5,2.5,44,0.00,,---,0.00,VWS V14.01,2013-02-22 23:07:00,
2013-02-22 18:08:00,76.3,52.8,29.94,South,180,2.9,2.9,44,0.00,,---,0.00,VWS V14.01,2013-02-22 23:08:00,
2013-02-22 18:09:00,76.3,52.8,29.94,SW,225,2.7,3.1,44,0.00,,---,0.00,VWS V14.01,2013-02-22 23:09:00,
2013-02-22 18:10:00,75.6,53.3,29.94,SSW,202,0.0,0.0,46,0.00,,---,0.00,VWS V14.01,2013-02-22 23:10:00,
2013-02-22 18:11:00,76.1,52.6,29.94,WSW,248,1.6,2.9,44,0.00,,---,0.00,VWS V14.01,2013-02-22 23:11:00,
2013-02-22 18:12:00,76.1,52.6,29.94,SSE,158,2.5,3.1,44,0.00,,---,0.00,VWS V14.01,2013-02-22 23:12:00,
2013-02-22 18:13:00,75.9,53.1,29.94,WSW,248,0.9,2.5,45,0.00,,---,0.00,VWS V14.01,2013-02-22 23:13:00,
2013-02-22 18:14:00,75.9,53.1,29.94,SSE,158,1.1,2.2,45,0.00,,---,0.00,VWS V14.01,2013-02-22 23:14:00,
2013-02-22 18:15:00,75.2,53.0,29.94,ESE,112,2.0,2.0,46,0.00,,---,0.00,VWS V14.01,2013-02-22 23:15:00,
2013-02-22 18:16:00,75.7,52.9,29.94,West,270,0.0,1.1,45,0.00,,---,0.00,VWS V14.01,2013-02-22 23:16:00,
2013-02-22 18:17:00,75.7,52.9,29.94,West,270,0.0,0.0,45,0.00,,---,0.00,VWS V14.01,2013-02-22 23:17:00,
2013-02-22 18:18:00,75.7,52.9,29.94,SSW,202,0.0,0.0,45,0.00,,---,0.00,VWS V14.01,2013-02-22 23:18:00,
2013-02-22 18:19:00,75.6,52.8,29.94,SSW,202,0.0,0.0,45,0.00,,---,0.00,VWS V14.01,2013-02-22 23:19:00,
2013-02-22 18:20:00,74.8,53.8,29.97,South,180,0.0,3.8,48,0.00,,---,0.00,VWS V14.01,2013-02-22 23:20:00,
2013-02-22 18:21:00,75.4,53.2,29.94,SSW,202,0.0,0.0,46,0.00,,---,0.00,VWS V14.01,2013-02-22 23:21:00,
2013-02-22 18:22:00,75.4,53.2,29.94,SSW,202,1.3,1.3,46,0.00,,---,0.00,VWS V14.01,2013-02-22 23:22:00,
2013-02-22 18:23:00,75.4,53.2,29.94,SSW,202,1.3,1.3,46,0.00,,---,0.00,VWS V14.01,2013-02-22 23:23:00,
2013-02-22 18:24:00,75.2,53.0,29.94,WSW,248,1.3,1.3,46,0.00,,---,0.00,VWS V14.01,2013-02-22 23:24:00,
2013-02-22 18:25:00,74.7,53.7,29.97,South,180,0.0,1.1,48,0.00,,---,0.00,VWS V14.01,2013-02-22 23:25:00,
2013-02-22 18:26:00,75.2,53.0,29.94,SW,225,1.3,2.0,46,0.00,,---,0.00,VWS V14.01,2013-02-22 23:26:00,
2013-02-22 18:27:00,75.2,53.0,29.94,WSW,248,1.1,1.3,46,0.00,,---,0.00,VWS V14.01,2013-02-22 23:27:00,
2013-02-22 18:28:00,75.0,53.4,29.97,WSW,248,2.5,2.7,47,0.00,,---,0.00,VWS V14.01,2013-02-22 23:28:00,
2013-02-22 18:29:00,75.0,54.0,29.97,WSW,248,2.5,2.5,48,0.00,,---,0.00,VWS V14.01,2013-02-22 23:29:00,
2013-02-22 18:30:00,74.5,54.6,29.97,SSW,202,0.0,0.0,50,0.00,,---,0.00,VWS V14.01,2013-02-22 23:30:00,
2013-02-22 18:31:00,74.8,53.8,29.97,SSW,202,0.0,0.0,48,0.00,,---,0.00,VWS V14.01,2013-02-22 23:31:00,
2013-02-22 18:32:00,74.8,53.8,29.97,SSW,202,0.9,2.7,48,0.00,,---,0.00,VWS V14.01,2013-02-22 23:32:00,
2013-02-22 18:33:00,74.8,53.8,29.97,South,180,1.3,2.0,48,0.00,,---,0.00,VWS V14.01,2013-02-22 23:33:00,
2013-02-22 18:34:00,74.8,53.8,29.97,SSW,202,1.1,1.3,48,0.00,,---,0.00,VWS V14.01,2013-02-22 23:34:00,
2013-02-22 18:35:00,74.3,54.5,29.97,South,180,0.0,0.0,50,0.00,,---,0.00,VWS V14.01,2013-02-22 23:35:00,
2013-02-22 18:36:00,74.7,54.2,29.97,SSE,158,0.0,0.0,49,0.00,,---,0.00,VWS V14.01,2013-02-22 23:36:00,
2013-02-22 18:37:00,74.5,54.6,29.97,SW,225,3.6,3.6,50,0.00,,---,0.00,VWS V14.01,2013-02-22 23:37:00,
2013-02-22 18:38:00,74.5,54.6,29.97,SW,225,3.6,3.6,50,0.00,,---,0.00,VWS V14.01,2013-02-22 23:38:00,
2013-02-22 18:39:00,74.5,54.6,29.97,SSW,202,0.0,3.6,50,0.00,,---,0.00,VWS V14.01,2013-02-22 23:39:00,
2013-02-22 18:40:00,73.9,54.7,29.97,SSE,158,0.0,0.0,51,0.00,,---,0.00,VWS V14.01,2013-02-22 23:40:00,
2013-02-22 18:41:00,74.3,53.9,29.97,SSW,202,0.0,0.0,49,0.00,,---,0.00,VWS V14.01,2013-02-22 23:41:00,
2013-02-22 18:42:00,74.3,54.5,29.97,SSW,202,4.0,4.0,50,0.00,,---,0.00,VWS V14.01,2013-02-22 23:42:00,
2013-02-22 18:43:00,74.3,54.5,29.97,SSW,202,2.5,4.0,50,0.00,,---,0.00,VWS V14.01,2013-02-22 23:43:00,
2013-02-22 18:44:00,74.3,54.5,29.97,SW,225,0.0,2.5,50,0.00,,---,0.00,VWS V14.01,2013-02-22 23:44:00,
2013-02-22 18:45:00,73.8,55.1,29.97,SW,225,0.0,0.0,52,0.00,,---,0.00,VWS V14.01,2013-02-22 23:45:00,
2013-02-22 18:46:00,74.1,54.9,29.97,South,180,0.0,1.6,51,0.00,,---,0.00,VWS V14.01,2013-02-22 23:46:00,
2013-02-22 18:47:00,74.1,54.9,29.97,ESE,112,2.5,2.5,51,0.00,,---,0.00,VWS V14.01,2013-02-22 23:47:00,
2013-02-22 18:48:00,74.1,54.9,29.97,SSE,158,2.7,2.7,51,0.00,,---,0.00,VWS V14.01,2013-02-22 23:48:00,
2013-02-22 18:49:00,73.9,54.7,29.97,SSE,158,0.0,2.7,51,0.00,,---,0.00,VWS V14.01,2013-02-22 23:49:00,
2013-02-22 18:50:00,73.4,55.2,29.97,SSE,158,0.0,2.2,53,0.00,,---,0.00,VWS V14.01,2013-02-22 23:50:00,
2013-02-22 18:51:00,73.9,54.7,29.97,South,180,0.0,0.0,51,0.00,,---,0.00,VWS V14.01,2013-02-22 23:51:00,
2013-02-22 18:52:00,73.9,54.7,29.97,SSW,202,2.5,2.5,51,0.00,,---,0.00,VWS V14.01,2013-02-22 23:52:00,
2013-02-22 18:53:00,73.8,55.1,29.97,SSE,158,1.1,2.5,52,0.00,,---,0.00,VWS V14.01,2013-02-22 23:53:00,
2013-02-22 18:54:00,73.8,55.1,29.97,SSW,202,0.0,1.1,52,0.00,,---,0.00,VWS V14.01,2013-02-22 23:54:00,
2013-02-22 18:55:00,73.2,55.6,29.97,South,180,2.7,2.7,54,0.00,,---,0.00,VWS V14.01,2013-02-22 23:55:00,
2013-02-22 18:56:00,73.8,55.1,29.97,South,180,0.0,2.2,52,0.00,,---,0.00,VWS V14.01,2013-02-22 23:56:00,
2013-02-22 18:57:00,73.8,55.1,29.97,SSW,202,0.0,0.0,52,0.00,,---,0.00,VWS V14.01,2013-02-22 23:57:00,
2013-02-22 18:58:00,73.8,55.1,29.97,SSW,202,0.0,0.0,52,0.00,,---,0.00,VWS V14.01,2013-02-22 23:58:00,
2013-02-22 18:59:00,73.8,55.1,29.97,SSE,158,2.2,2.2,52,0.00,,---,0.00,VWS V14.01,2013-02-22 23:59:00,
2013-02-22 19:00:00,73.0,55.4,29.97,SSE,158,0.0,0.9,54,0.00,,---,0.00,VWS V14.01,2013-02-23 00:00:00,
2013-02-22 19:01:00,73.4,55.2,29.97,SSE,158,2.9,2.9,53,0.00,,---,0.00,VWS V14.01,2013-02-23 00:01:00,
2013-02-22 19:02:00,73.4,55.2,29.97,South,180,0.0,2.9,53,0.00,,---,0.00,VWS V14.01,2013-02-23 00:02:00,
2013-02-22 19:03:00,73.2,55.1,29.97,South,180,0.0,0.0,53,0.00,,---,0.00,VWS V14.01,2013-02-23 00:03:00,
2013-02-22 19:04:00,73.2,56.1,29.97,SSW,202,2.5,2.5,55,0.00,,---,0.00,VWS V14.01,2013-02-23 00:04:00,
2013-02-22 19:05:00,72.9,55.3,30.00,SSW,202,0.0,0.9,54,0.00,,---,0.00,VWS V14.01,2013-02-23 00:05:00,
2013-02-22 19:06:00,73.2,55.6,29.97,ESE,112,0.0,0.0,54,0.00,,---,0.00,VWS V14.01,2013-02-23 00:06:00,
2013-02-22 19:07:00,73.2,55.6,29.97,ESE,112,0.0,0.9,54,0.00,,---,0.00,VWS V14.01,2013-02-23 00:07:00,
2013-02-22 19:08:00,73.0,55.4,29.97,SSE,158,0.0,0.9,54,0.00,,---,0.00,VWS V14.01,2013-02-23 00:08:00,
2013-02-22 19:09:00,73.0,55.4,29.97,SSE,158,0.9,0.9,54,0.00,,---,0.00,VWS V14.01,2013-02-23 00:09:00,
2013-02-22 19:10:00,72.7,55.6,30.00,SSE,158,0.0,0.0,55,0.00,,---,0.00,VWS V14.01,2013-02-23 00:10:00,
2013-02-22 19:11:00,73.0,55.4,29.97,WSW,248,0.0,1.3,54,0.00,,---,0.00,VWS V14.01,2013-02-23 00:11:00,
2013-02-22 19:12:00,73.0,55.4,29.97,East,90,0.0,0.0,54,0.00,,---,0.00,VWS V14.01,2013-02-23 00:12:00,
2013-02-22 19:13:00,72.9,55.8,29.97,South,180,0.0,0.0,55,0.00,,---,0.00,VWS V14.01,2013-02-23 00:13:00,
2013-02-22 19:14:00,72.9,55.3,30.00,SSE,158,0.0,1.1,54,0.00,,---,0.00,VWS V14.01,2013-02-23 00:14:00,
2013-02-22 19:15:00,72.5,55.9,30.00,SE,135,4.7,4.7,56,0.00,,---,0.00,VWS V14.01,2013-02-23 00:15:00,
2013-02-22 19:16:00,72.9,55.3,30.00,SSW,202,1.1,1.1,54,0.00,,---,0.00,VWS V14.01,2013-02-23 00:16:00,
2013-02-22 19:17:00,72.7,55.6,30.00,SSE,158,1.1,1.1,55,0.00,,---,0.00,VWS V14.01,2013-02-23 00:17:00,
2013-02-22 19:18:00,72.7,55.1,30.00,SSE,158,0.0,1.1,54,0.00,,---,0.00,VWS V14.01,2013-02-23 00:18:00,
2013-02-22 19:19:00,72.7,55.6,30.00,SSE,158,0.0,0.0,55,0.00,,---,0.00,VWS V14.01,2013-02-23 00:19:00,
2013-02-22 19:20:00,72.5,55.9,29.97,SSE,158,0.0,0.0,56,0.00,,---,0.00,VWS V14.01,2013-02-23 00:20:00,
2013-02-22 19:21:00,72.7,55.6,30.00,South,180,2.0,2.0,55,0.00,,---,0.00,VWS V14.01,2013-02-23 00:21:00,
2013-02-22 19:22:00,72.7,55.6,30.00,WSW,248,0.0,2.0,55,0.00,,---,0.00,VWS V14.01,2013-02-23 00:22:00,
2013-02-22 19:23:00,72.5,55.4,30.00,WSW,248,0.0,0.0,55,0.00,,---,0.00,VWS V14.01,2013-02-23 00:23:00,
2013-02-22 19:24:00,72.5,55.4,30.00,WSW,248,0.0,0.0,55,0.00,,---,0.00,VWS V14.01,2013-02-23 00:24:00,
2013-02-22 19:25:00,72.1,55.1,29.97,South,180,0.0,0.0,55,0.00,,---,0.00,VWS V14.01,2013-02-23 00:25:00,
2013-02-22 19:26:00,72.5,55.9,30.00,SSE,158,0.0,4.7,56,0.00,,---,0.00,VWS V14.01,2013-02-23 00:26:00,
2013-02-22 19:27:00,72.5,55.9,30.00,SSE,158,0.0,0.0,56,0.00,,---,0.00,VWS V14.01,2013-02-23 00:27:00,
2013-02-22 19:28:00,72.5,55.9,29.97,SSE,158,0.0,0.0,56,0.00,,---,0.00,VWS V14.01,2013-02-23 00:28:00,
2013-02-22 19:29:00,72.5,55.9,29.97,SSE,158,0.0,0.0,56,0.00,,---,0.00,VWS V14.01,2013-02-23 00:29:00,
2013-02-22 19:30:00,72.0,55.4,29.97,SE,135,0.0,0.0,56,0.00,,---,0.00,VWS V14.01,2013-02-23 00:30:00,
2013-02-22 19:31:00,72.3,55.8,29.97,SSE,158,0.0,0.0,56,0.00,,---,0.00,VWS V14.01,2013-02-23 00:31:00,
2013-02-22 19:32:00,72.3,55.8,29.97,SW,225,0.0,0.0,56,0.00,,---,0.00,VWS V14.01,2013-02-23 00:32:00,
2013-02-22 19:33:00,72.3,55.8,29.97,SW,225,0.0,0.0,56,0.00,,---,0.00,VWS V14.01,2013-02-23 00:33:00,
2013-02-22 19:34:00,72.1,55.6,29.97,SW,225,0.0,0.0,56,0.00,,---,0.00,VWS V14.01,2013-02-23 00:34:00,
2013-02-22 19:35:00,72.0,56.4,29.97,SSE,158,0.0,0.0,58,0.00,,---,0.00,VWS V14.01,2013-02-23 00:35:00,
2013-02-22 19:36:00,72.1,55.6,29.97,SE,135,0.0,2.2,56,0.00,,---,0.00,VWS V14.01,2013-02-23 00:36:00,
2013-02-22 19:37:00,72.1,55.6,29.97,SE,135,0.0,0.0,56,0.00,,---,0.00,VWS V14.01,2013-02-23 00:37:00,
2013-02-22 19:38:00,72.1,55.6,29.97,SE,135,0.0,0.0,56,0.00,,---,0.00,VWS V14.01,2013-02-23 00:38:00,
2013-02-22 19:39:00,72.0,55.4,29.97,SE,135,0.0,0.0,56,0.00,,---,0.00,VWS V14.01,2013-02-23 00:39:00,
2013-02-22 19:40:00,72.0,56.9,29.97,SSW,202,0.0,2.0,59,0.00,,---,0.00,VWS V14.01,2013-02-23 00:40:00,
2013-02-22 19:41:00,72.1,56.6,29.97,SE,135,0.9,0.9,58,0.00,,---,0.00,VWS V14.01,2013-02-23 00:41:00,
2013-02-22 19:42:00,72.0,56.4,29.97,SE,135,0.0,0.9,58,0.00,,---,0.00,VWS V14.01,2013-02-23 00:42:00,
2013-02-22 19:43:00,72.0,55.9,29.97,SE,135,0.0,0.0,57,0.00,,---,0.00,VWS V14.01,2013-02-23 00:43:00,
2013-02-22 19:44:00,72.0,56.4,29.97,SE,135,0.0,0.0,58,0.00,,---,0.00,VWS V14.01,2013-02-23 00:44:00,
2013-02-22 19:45:00,71.8,56.2,29.97,SSW,202,0.0,0.0,58,0.00,,---,0.00,VWS V14.01,2013-02-23 00:45:00,
2013-02-22 19:46:00,72.0,56.4,29.97,SSE,158,0.0,0.0,58,0.00,,---,0.00,VWS V14.01,2013-02-23 00:46:00,
2013-02-22 19:47:00,72.0,56.4,29.97,SSW,202,0.0,0.0,58,0.00,,---,0.00,VWS V14.01,2013-02-23 00:47:00,
2013-02-22 19:48:00,72.0,56.4,29.97,SSE,158,1.3,1.3,58,0.00,,---,0.00,VWS V14.01,2013-02-23 00:48:00,
2013-02-22 19:49:00,72.0,56.9,29.97,SSE,158,1.1,1.3,59,0.00,,---,0.00,VWS V14.01,2013-02-23 00:49:00,
2013-02-22 19:50:00,71.8,57.2,30.00,SSE,158,2.9,3.4,60,0.00,,---,0.00,VWS V14.01,2013-02-23 00:50:00,
2013-02-22 19:51:00,72.0,56.9,29.97,WSW,248,0.0,0.9,59,0.00,,---,0.00,VWS V14.01,2013-02-23 00:51:00,
2013-02-22 19:52:00,72.0,56.4,29.97,WSW,248,0.0,0.0,58,0.00,,---,0.00,VWS V14.01,2013-02-23 00:52:00,
2013-02-22 19:53:00,72.0,56.4,29.97,WSW,248,0.0,0.0,58,0.00,,---,0.00,VWS V14.01,2013-02-23 00:53:00,
2013-02-22 19:54:00,71.8,56.2,29.97,SSW,202,0.0,1.6,58,0.00,,---,0.00,VWS V14.01,2013-02-23 00:54:00,
2013-02-22 19:55:00,71.8,56.7,30.00,WNW,292,0.0,0.0,59,0.00,,---,0.00,VWS V14.01,2013-02-23 00:55:00,
2013-02-22 19:56:00,71.8,56.2,29.97,SSE,158,0.0,0.0,58,0.00,,---,0.00,VWS V14.01,2013-02-23 00:56:00,
2013-02-22 19:57:00,71.8,56.2,29.97,SW,225,0.0,0.0,58,0.00,,---,0.00,VWS V14.01,2013-02-23 00:57:00,
2013-02-22 19:58:00,71.8,56.2,30.00,WSW,248,0.0,1.6,58,0.00,,---,0.00,VWS V14.01,2013-02-23 00:58:00,
2013-02-22 19:59:00,71.8,56.2,30.00,SE,135,3.4,3.4,58,0.00,,---,0.00,VWS V14.01,2013-02-23 00:59:00,
2013-02-22 20:00:00,71.4,56.8,30.00,South,180,0.0,0.0,60,0.00,,---,0.00,VWS V14.01,2013-02-23 01:00:00,
2013-02-22 20:01:00,71.8,56.7,30.00,SSE,158,0.0,1.6,59,0.00,,---,0.00,VWS V14.01,2013-02-23 01:01:00,
2013-02-22 20:02:00,71.8,57.2,30.00,SSE,158,1.1,3.4,60,0.00,,---,0.00,VWS V14.01,2013-02-23 01:02:00,
2013-02-22 20:03:00,71.8,57.2,30.00,WNW,292,0.0,1.1,60,0.00,,---,0.00,VWS V14.01,2013-02-23 01:03:00,
2013-02-22 20:04:00,71.8,57.2,30.00,WNW,292,0.0,0.0,60,0.00,,---,0.00,VWS V14.01,2013-02-23 01:04:00,
2013-02-22 20:05:00,71.4,56.8,30.03,WSW,248,0.0,0.9,60,0.00,,---,0.00,VWS V14.01,2013-02-23 01:05:00,
2013-02-22 20:06:00,71.6,56.5,30.00,WNW,292,0.0,0.0,59,0.00,,---,0.00,VWS V14.01,2013-02-23 01:06:00,
2013-02-22 20:07:00,71.6,56.5,30.00,WNW,292,0.0,0.0,59,0.00,,---,0.00,VWS V14.01,2013-02-23 01:07:00,
2013-02-22 20:08:00,71.6,56.5,30.00,WNW,292,0.0,0.0,59,0.00,,---,0.00,VWS V14.01,2013-02-23 01:08:00,
2013-02-22 20:09:00,71.6,56.5,30.00,WNW,292,0.0,0.0,59,0.00,,---,0.00,VWS V14.01,2013-02-23 01:09:00,
2013-02-22 20:10:00,71.2,56.7,30.03,WSW,248,0.0,0.0,60,0.00,,---,0.00,VWS V14.01,2013-02-23 01:10:00,
2013-02-22 20:11:00,71.4,56.8,30.00,SW,225,0.0,0.0,60,0.00,,---,0.00,VWS V14.01,2013-02-23 01:11:00,
2013-02-22 20:12:00,71.4,56.8,30.00,SE,135,0.0,1.3,60,0.00,,---,0.00,VWS V14.01,2013-02-23 01:12:00,
2013-02-22 20:13:00,71.4,56.8,30.03,SE,135,0.0,1.1,60,0.00,,---,0.00,VWS V14.01,2013-02-23 01:13:00,
2013-02-22 20:14:00,71.4,56.8,30.03,SE,135,0.0,0.0,60,0.00,,---,0.00,VWS V14.01,2013-02-23 01:14:00,
2013-02-22 20:15:00,71.1,56.5,30.03,SSE,158,0.0,0.0,60,0.00,,---,0.00,VWS V14.01,2013-02-23 01:15:00,
2013-02-22 20:16:00,71.4,56.8,30.03,WSW,248,0.0,0.0,60,0.00,,---,0.00,VWS V14.01,2013-02-23 01:16:00,
2013-02-22 20:17:00,71.4,56.8,30.03,WSW,248,0.0,0.0,60,0.00,,---,0.00,VWS V14.01,2013-02-23 01:17:00,
2013-02-22 20:18:00,71.2,56.7,30.03,WSW,248,0.0,0.0,60,0.00,,---,0.00,VWS V14.01,2013-02-23 01:18:00,
2013-02-22 20:19:00,71.2,56.7,30.03,WSW,248,0.0,0.0,60,0.00,,---,0.00,VWS V14.01,2013-02-23 01:19:00,
2013-02-22 20:20:00,70.9,56.8,30.03,South,180,0.0,0.0,61,0.00,,---,0.00,VWS V14.01,2013-02-23 01:20:00,
2013-02-22 20:21:00,71.1,56.5,30.03,SSE,158,0.0,0.0,60,0.00,,---,0.00,VWS V14.01,2013-02-23 01:21:00,
2013-02-22 20:22:00,71.1,56.5,30.03,SSE,158,0.0,0.0,60,0.00,,---,0.00,VWS V14.01,2013-02-23 01:22:00,
2013-02-22 20:23:00,71.1,56.5,30.03,SSE,158,0.0,0.0,60,0.00,,---,0.00,VWS V14.01,2013-02-23 01:23:00,
2013-02-22 20:24:00,70.9,56.3,30.03,SSE,158,0.0,0.0,60,0.00,,---,0.00,VWS V14.01,2013-02-23 01:24:00,
2013-02-22 20:25:00,70.7,56.6,30.03,SSE,158,0.9,0.9,61,0.00,,---,0.00,VWS V14.01,2013-02-23 01:25:00,
2013-02-22 20:26:00,71.1,56.5,30.03,South,180,0.0,1.1,60,0.00,,---,0.00,VWS V14.01,2013-02-23 01:26:00,
2013-02-22 20:27:00,71.1,56.5,30.03,SSW,202,0.0,0.0,60,0.00,,---,0.00,VWS V14.01,2013-02-23 01:27:00,
2013-02-22 20:28:00,71.1,57.0,30.03,SE,135,0.0,0.0,61,0.00,,---,0.00,VWS V14.01,2013-02-23 01:28:00,
2013-02-22 20:29:00,70.9,56.8,30.03,SSW,202,0.0,0.0,61,0.00,,---,0.00,VWS V14.01,2013-02-23 01:29:00,
2013-02-22 20:30:00,70.7,57.1,30.03,SSE,158,0.0,0.0,62,0.00,,---,0.00,VWS V14.01,2013-02-23 01:30:00,
2013-02-22 20:31:00,70.9,56.8,30.03,South,180,0.0,0.0,61,0.00,,---,0.00,VWS V14.01,2013-02-23 01:31:00,
2013-02-22 20:32:00,70.9,56.8,30.03,South,180,0.0,0.0,61,0.00,,---,0.00,VWS V14.01,2013-02-23 01:32:00,
2013-02-22 20:33:00,70.9,56.8,30.03,SSW,202,0.0,0.0,61,0.00,,---,0.00,VWS V14.01,2013-02-23 01:33:00,
2013-02-22 20:34:00,70.7,56.6,30.03,SSW,202,0.0,0.0,61,0.00,,---,0.00,VWS V14.01,2013-02-23 01:34:00,
2013-02-22 20:35:00,70.5,56.9,30.00,SSE,158,0.0,0.0,62,0.00,,---,0.00,VWS V14.01,2013-02-23 01:35:00,
2013-02-22 20:36:00,70.9,57.2,30.03,SSE,158,0.0,2.2,62,0.00,,---,0.00,VWS V14.01,2013-02-23 01:36:00,
2013-02-22 20:37:00,70.9,57.2,30.03,SSE,158,0.0,0.0,62,0.00,,---,0.00,VWS V14.01,2013-02-23 01:37:00,
2013-02-22 20:38:00,70.7,57.1,30.03,SSE,158,0.0,0.0,62,0.00,,---,0.00,VWS V14.01,2013-02-23 01:38:00,
2013-02-22 20:39:00,70.7,57.1,30.03,SSE,158,0.0,0.0,62,0.00,,---,0.00,VWS V14.01,2013-02-23 01:39:00,
2013-02-22 20:40:00,70.3,57.2,30.00,SSE,158,0.0,0.0,63,0.00,,---,0.00,VWS V14.01,2013-02-23 01:40:00,
2013-02-22 20:41:00,70.7,57.1,30.03,SSE,158,0.0,0.0,62,0.00,,---,0.00,VWS V14.01,2013-02-23 01:41:00,
2013-02-22 20:42:00,70.5,56.9,30.03,SSE,158,0.0,0.0,62,0.00,,---,0.00,VWS V14.01,2013-02-23 01:42:00,
2013-02-22 20:43:00,70.5,56.9,30.00,SSE,158,0.0,0.0,62,0.00,,---,0.00,VWS V14.01,2013-02-23 01:43:00,
2013-02-22 20:44:00,70.5,56.9,30.00,SSE,158,0.0,0.0,62,0.00,,---,0.00,VWS V14.01,2013-02-23 01:44:00,
2013-02-22 20:45:00,70.2,57.0,30.00,SSE,158,0.0,0.0,63,0.00,,---,0.00,VWS V14.01,2013-02-23 01:45:00,
2013-02-22 20:46:00,70.5,56.9,30.00,SSE,158,0.0,0.0,62,0.00,,---,0.00,VWS V14.01,2013-02-23 01:46:00,
2013-02-22 20:47:00,70.5,57.3,30.00,SSE,158,0.0,2.7,63,0.00,,---,0.00,VWS V14.01,2013-02-23 01:47:00,
2013-02-22 20:48:00,70.5,57.3,30.00,SSE,158,0.0,0.0,63,0.00,,---,0.00,VWS V14.01,2013-02-23 01:48:00,
2013-02-22 20:49:00,70.5,57.3,30.00,SSE,158,0.0,0.0,63,0.00,,---,0.00,VWS V14.01,2013-02-23 01:49:00,
2013-02-22 20:50:00,70.0,56.8,30.03,SSE,158,0.0,0.0,63,0.00,,---,0.00,VWS V14.01,2013-02-23 01:50:00,
2013-02-22 20:51:00,70.3,57.2,30.00,SSE,158,0.0,0.0,63,0.00,,---,0.00,VWS V14.01,2013-02-23 01:51:00,
2013-02-22 20:52:00,70.3,57.2,30.00,SSE,158,0.0,0.0,63,0.00,,---,0.00,VWS V14.01,2013-02-23 01:52:00,
2013-02-22 20:53:00,70.3,57.2,30.00,SSE,158,0.0,0.0,63,0.00,,---,0.00,VWS V14.01,2013-02-23 01:53:00,
2013-02-22 20:54:00,70.3,57.2,30.00,SSE,158,0.0,0.0,63,0.00,,---,0.00,VWS V14.01,2013-02-23 01:54:00,
2013-02-22 20:55:00,69.6,56.9,30.03,SSE,158,0.0,0.0,64,0.00,,---,0.00,VWS V14.01,2013-02-23 01:55:00,
2013-02-22 20:56:00,70.2,57.0,30.00,SSE,158,0.0,0.0,63,0.00,,---,0.00,VWS V14.01,2013-02-23 01:56:00,
2013-02-22 20:57:00,70.2,57.0,30.00,SSE,158,0.0,0.0,63,0.00,,---,0.00,VWS V14.01,2013-02-23 01:57:00,
2013-02-22 20:58:00,70.2,57.0,30.03,SSE,158,0.0,0.0,63,0.00,,---,0.00,VWS V14.01,2013-02-23 01:58:00,
2013-02-22 20:59:00,70.0,56.8,30.03,SSE,158,0.0,0.0,63,0.00,,---,0.00,VWS V14.01,2013-02-23 01:59:00,
2013-02-22 21:00:00,69.6,56.9,30.03,SSE,158,0.0,0.0,64,0.00,,---,0.00,VWS V14.01,2013-02-23 02:00:00,
2013-02-22 21:01:00,69.8,56.7,30.03,SSE,158,0.0,0.0,63,0.00,,---,0.00,VWS V14.01,2013-02-23 02:01:00,
2013-02-22 21:02:00,69.8,56.7,30.03,SSE,158,0.0,0.0,63,0.00,,---,0.00,VWS V14.01,2013-02-23 02:02:00,
2013-02-22 21:03:00,69.8,56.7,30.03,SSE,158,0.0,0.0,63,0.00,,---,0.00,VWS V14.01,2013-02-23 02:03:00,
2013-02-22 21:04:00,69.6,56.9,30.03,SSE,158,0.0,0.0,64,0.00,,---,0.00,VWS V14.01,2013-02-23 02:04:00,
2013-02-22 21:05:00,69.4,57.2,30.03,SSE,158,0.0,0.0,65,0.00,,---,0.00,VWS V14.01,2013-02-23 02:05:00,
2013-02-22 21:06:00,69.8,56.7,30.03,SSE,158,0.0,0.0,63,0.00,,---,0.00,VWS V14.01,2013-02-23 02:06:00,
2013-02-22 21:07:00,69.8,56.7,30.03,SSE,158,0.0,0.0,63,0.00,,---,0.00,VWS V14.01,2013-02-23 02:07:00,
2013-02-22 21:08:00,69.8,57.1,30.03,SSE,158,0.0,0.0,64,0.00,,---,0.00,VWS V14.01,2013-02-23 02:08:00,
2013-02-22 21:09:00,69.6,56.9,30.03,SSE,158,0.0,0.0,64,0.00,,---,0.00,VWS V14.01,2013-02-23 02:09:00,
2013-02-22 21:10:00,69.3,57.0,30.03,SSE,158,0.0,0.0,65,0.00,,---,0.00,VWS V14.01,2013-02-23 02:10:00,
2013-02-22 21:11:00,69.6,57.3,30.03,SSE,158,0.0,0.0,65,0.00,,---,0.00,VWS V14.01,2013-02-23 02:11:00,
2013-02-22 21:12:00,69.6,57.3,30.03,SSE,158,0.0,0.0,65,0.00,,---,0.00,VWS V14.01,2013-02-23 02:12:00,
2013-02-22 21:13:00,69.6,57.3,30.03,SSE,158,0.0,0.0,65,0.00,,---,0.00,VWS V14.01,2013-02-23 02:13:00,
2013-02-22 21:14:00,69.4,57.2,30.03,SSE,158,0.0,0.0,65,0.00,,---,0.00,VWS V14.01,2013-02-23 02:14:00,
2013-02-22 21:15:00,69.1,56.8,30.03,SSE,158,0.0,0.0,65,0.00,,---,0.00,VWS V14.01,2013-02-23 02:15:00,
2013-02-22 21:16:00,69.3,57.0,30.03,SSE,158,0.0,0.0,65,0.00,,---,0.00,VWS V14.01,2013-02-23 02:16:00,
2013-02-22 21:17:00,69.3,57.0,30.03,SSE,158,0.0,0.0,65,0.00,,---,0.00,VWS V14.01,2013-02-23 02:17:00,
2013-02-22 21:18:00,69.3,57.0,30.03,SSE,158,0.0,0.0,65,0.00,,---,0.00,VWS V14.01,2013-02-23 02:18:00,
2013-02-22 21:19:00,69.3,57.0,30.03,SSE,158,0.0,0.0,65,0.00,,---,0.00,VWS V14.01,2013-02-23 02:19:00,
2013-02-22 21:20:00,69.1,57.3,30.03,SSE,158,0.0,0.0,66,0.00,,---,0.00,VWS V14.01,2013-02-23 02:20:00,
2013-02-22 21:21:00,69.3,57.0,30.03,SSE,158,0.0,0.0,65,0.00,,---,0.00,VWS V14.01,2013-02-23 02:21:00,
2013-02-22 21:22:00,69.1,56.8,30.03,SSE,158,0.0,0.0,65,0.00,,---,0.00,VWS V14.01,2013-02-23 02:22:00,
2013-02-22 21:23:00,69.1,56.8,30.03,SSE,158,0.0,0.0,65,0.00,,---,0.00,VWS V14.01,2013-02-23 02:23:00,
2013-02-22 21:24:00,69.1,56.8,30.03,SSE,158,0.0,0.0,65,0.00,,---,0.00,VWS V14.01,2013-02-23 02:24:00,
2013-02-22 21:25:00,69.1,57.7,30.03,SSE,158,0.0,0.0,67,0.00,,---,0.00,VWS V14.01,2013-02-23 02:25:00,
2013-02-22 21:26:00,69.1,56.8,30.03,SSE,158,0.0,0.0,65,0.00,,---,0.00,VWS V14.01,2013-02-23 02:26:00,
2013-02-22 21:27:00,69.1,56.8,30.03,SSE,158,0.0,0.0,65,0.00,,---,0.00,VWS V14.01,2013-02-23 02:27:00,
2013-02-22 21:28:00,69.1,57.3,30.03,SSE,158,0.0,0.0,66,0.00,,---,0.00,VWS V14.01,2013-02-23 02:28:00,
2013-02-22 21:29:00,69.1,57.3,30.03,SSE,158,0.0,0.0,66,0.00,,---,0.00,VWS V14.01,2013-02-23 02:29:00,
2013-02-22 21:30:00,69.1,57.7,30.03,SSE,158,0.0,0.0,67,0.00,,---,0.00,VWS V14.01,2013-02-23 02:30:00,
2013-02-22 21:31:00,69.1,57.3,30.03,SSE,158,0.0,0.0,66,0.00,,---,0.00,VWS V14.01,2013-02-23 02:31:00,
2013-02-22 21:32:00,69.1,57.3,30.03,SSE,158,0.0,0.0,66,0.00,,---,0.00,VWS V14.01,2013-02-23 02:32:00,
2013-02-22 21:33:00,69.1,57.3,30.03,SSE,158,0.0,0.0,66,0.00,,---,0.00,VWS V14.01,2013-02-23 02:33:00,
2013-02-22 21:34:00,69.1,57.7,30.03,SSE,158,0.0,0.0,67,0.00,,---,0.00,VWS V14.01,2013-02-23 02:34:00,
2013-02-22 21:35:00,68.9,57.9,30.03,SSE,158,0.0,0.0,68,0.00,,---,0.00,VWS V14.01,2013-02-23 02:35:00,
2013-02-22 21:36:00,69.1,57.7,30.03,SSE,158,0.0,0.0,67,0.00,,---,0.00,VWS V14.01,2013-02-23 02:36:00,
2013-02-22 21:37:00,69.1,57.7,30.03,SSE,158,0.0,0.0,67,0.00,,---,0.00,VWS V14.01,2013-02-23 02:37:00,
2013-02-22 21:38:00,69.1,57.7,30.03,SSE,158,0.0,0.0,67,0.00,,---,0.00,VWS V14.01,2013-02-23 02:38:00,
2013-02-22 21:39:00,69.1,57.7,30.03,SSE,158,0.0,0.0,67,0.00,,---,0.00,VWS V14.01,2013-02-23 02:39:00,
2013-02-22 21:40:00,68.7,57.7,30.03,SSE,158,0.0,0.0,68,0.00,,---,0.00,VWS V14.01,2013-02-23 02:40:00,
2013-02-22 21:41:00,68.9,57.5,30.03,SSE,158,0.0,0.0,67,0.00,,---,0.00,VWS V14.01,2013-02-23 02:41:00,
2013-02-22 21:42:00,68.9,57.5,30.03,SSE,158,0.0,0.0,67,0.00,,---,0.00,VWS V14.01,2013-02-23 02:42:00,
2013-02-22 21:43:00,68.9,57.5,30.03,SSE,158,0.0,0.0,67,0.00,,---,0.00,VWS V14.01,2013-02-23 02:43:00,
2013-02-22 21:44:00,68.9,57.5,30.03,SSE,158,0.0,0.0,67,0.00,,---,0.00,VWS V14.01,2013-02-23 02:44:00,
2013-02-22 21:45:00,68.5,57.6,30.03,SSE,158,0.0,0.0,68,0.00,,---,0.00,VWS V14.01,2013-02-23 02:45:00,
2013-02-22 21:46:00,68.7,57.7,30.03,SSE,158,0.0,0.0,68,0.00,,---,0.00,VWS V14.01,2013-02-23 02:46:00,
2013-02-22 21:47:00,68.7,57.7,30.03,SSE,158,0.0,0.0,68,0.00,,---,0.00,VWS V14.01,2013-02-23 02:47:00,
2013-02-22 21:48:00,68.7,57.7,30.03,SSE,158,0.0,0.0,68,0.00,,---,0.00,VWS V14.01,2013-02-23 02:48:00,
2013-02-22 21:49:00,68.7,57.7,30.03,SSE,158,0.0,0.0,68,0.00,,---,0.00,VWS V14.01,2013-02-23 02:49:00,
2013-02-22 21:50:00,68.7,58.2,30.03,SSE,158,0.0,0.0,69,0.00,,---,0.00,VWS V14.01,2013-02-23 02:50:00,
2013-02-22 21:51:00,68.5,57.6,30.03,SSE,158,0.0,0.0,68,0.00,,---,0.00,VWS V14.01,2013-02-23 02:51:00,
2013-02-22 21:52:00,68.5,57.6,30.03,SSE,158,0.0,0.0,68,0.00,,---,0.00,VWS V14.01,2013-02-23 02:52:00,
2013-02-22 21:53:00,68.5,57.6,30.03,SSE,158,0.0,0.0,68,0.00,,---,0.00,VWS V14.01,2013-02-23 02:53:00,
2013-02-22 21:54:00,68.5,57.6,30.03,SSE,158,0.0,0.0,68,0.00,,---,0.00,VWS V14.01,2013-02-23 02:54:00,
2013-02-22 21:55:00,68.5,58.0,30.03,SSE,158,0.0,0.0,69,0.00,,---,0.00,VWS V14.01,2013-02-23 02:55:00,
2013-02-22 21:56:00,68.5,57.6,30.03,SSE,158,0.0,0.0,68,0.00,,---,0.00,VWS V14.01,2013-02-23 02:56:00,
2013-02-22 21:57:00,68.5,57.6,30.03,SSE,158,0.0,0.0,68,0.00,,---,0.00,VWS V14.01,2013-02-23 02:57:00,
2013-02-22 21:58:00,68.5,57.6,30.03,SSE,158,0.0,0.0,68,0.00,,---,0.00,VWS V14.01,2013-02-23 02:58:00,
2013-02-22 21:59:00,68.5,58.0,30.03,SSE,158,0.0,0.0,69,0.00,,---,0.00,VWS V14.01,2013-02-23 02:59:00,
2013-02-22 22:00:00,68.4,58.2,30.03,SSE,158,0.0,0.0,70,0.00,,---,0.00,VWS V14.01,2013-02-23 03:00:00,
2013-02-22 22:01:00,68.7,58.2,30.03,SSE,158,0.0,0.0,69,0.00,,---,0.00,VWS V14.01,2013-02-23 03:01:00,
2013-02-22 22:02:00,68.7,58.2,30.03,SSE,158,0.0,0.0,69,0.00,,---,0.00,VWS V14.01,2013-02-23 03:02:00,
2013-02-22 22:03:00,68.5,58.0,30.03,SSE,158,0.0,0.0,69,0.00,,---,0.00,VWS V14.01,2013-02-23 03:03:00,
2013-02-22 22:04:00,68.5,58.0,30.03,SSE,158,0.0,0.0,69,0.00,,---,0.00,VWS V14.01,2013-02-23 03:04:00,
2013-02-22 22:05:00,68.4,58.2,30.03,SSE,158,0.0,0.0,70,0.00,,---,0.00,VWS V14.01,2013-02-23 03:05:00,
2013-02-22 22:06:00,68.5,58.0,30.03,SSE,158,0.0,0.0,69,0.00,,---,0.00,VWS V14.01,2013-02-23 03:06:00,
2013-02-22 22:07:00,68.4,57.8,30.03,SSE,158,0.0,0.0,69,0.00,,---,0.00,VWS V14.01,2013-02-23 03:07:00,
2013-02-22 22:08:00,68.4,57.8,30.03,SSE,158,0.0,0.0,69,0.00,,---,0.00,VWS V14.01,2013-02-23 03:08:00,
2013-02-22 22:09:00,68.4,58.2,30.03,SSE,158,0.0,0.0,70,0.00,,---,0.00,VWS V14.01,2013-02-23 03:09:00,
2013-02-22 22:10:00,68.5,59.2,30.03,SE,135,0.0,0.0,72,0.00,,---,0.00,VWS V14.01,2013-02-23 03:10:00,
2013-02-22 22:11:00,68.2,57.6,30.03,SSE,158,0.0,0.0,69,0.00,,---,0.00,VWS V14.01,2013-02-23 03:11:00,
2013-02-22 22:12:00,68.2,58.0,30.03,SSE,158,0.0,0.0,70,0.00,,---,0.00,VWS V14.01,2013-02-23 03:12:00,
2013-02-22 22:13:00,68.4,58.2,30.03,SSE,158,0.0,0.0,70,0.00,,---,0.00,VWS V14.01,2013-02-23 03:13:00,
2013-02-22 22:14:00,68.4,58.2,30.03,SSE,158,0.0,0.0,70,0.00,,---,0.00,VWS V14.01,2013-02-23 03:14:00,
2013-02-22 22:15:00,68.4,59.0,30.03,SE,135,0.0,0.0,72,0.00,,---,0.00,VWS V14.01,2013-02-23 03:15:00,
2013-02-22 22:16:00,68.5,58.8,30.03,SE,135,2.2,2.2,71,0.00,,---,0.00,VWS V14.01,2013-02-23 03:16:00,
2013-02-22 22:17:00,68.5,58.8,30.03,SE,135,0.0,2.2,71,0.00,,---,0.00,VWS V14.01,2013-02-23 03:17:00,
2013-02-22 22:18:00,68.5,58.8,30.03,SE,135,0.0,0.0,71,0.00,,---,0.00,VWS V14.01,2013-02-23 03:18:00,
2013-02-22 22:19:00,68.5,59.2,30.03,SE,135,0.0,0.0,72,0.00,,---,0.00,VWS V14.01,2013-02-23 03:19:00,
2013-02-22 22:20:00,68.4,59.0,30.00,SE,135,0.0,0.0,72,0.00,,---,0.00,VWS V14.01,2013-02-23 03:20:00,
2013-02-22 22:21:00,68.5,59.2,30.03,SE,135,0.0,0.0,72,0.00,,---,0.00,VWS V14.01,2013-02-23 03:21:00,
2013-02-22 22:22:00,68.5,59.2,30.03,SE,135,0.0,0.0,72,0.00,,---,0.00,VWS V14.01,2013-02-23 03:22:00,
2013-02-22 22:23:00,68.5,59.2,30.03,SE,135,0.0,0.0,72,0.00,,---,0.00,VWS V14.01,2013-02-23 03:23:00,
2013-02-22 22:24:00,68.5,59.2,30.03,SE,135,0.0,0.0,72,0.00,,---,0.00,VWS V14.01,2013-02-23 03:24:00,
2013-02-22 22:25:00,68.5,59.9,30.00,SE,135,0.0,0.0,74,0.00,,---,0.00,VWS V14.01,2013-02-23 03:25:00,
2013-02-22 22:26:00,68.5,59.2,30.03,SE,135,0.0,0.0,72,0.00,,---,0.00,VWS V14.01,2013-02-23 03:26:00,
2013-02-22 22:27:00,68.5,59.2,30.03,SE,135,0.0,0.0,72,0.00,,---,0.00,VWS V14.01,2013-02-23 03:27:00,
2013-02-22 22:28:00,68.5,59.2,30.00,SE,135,0.0,0.0,72,0.00,,---,0.00,VWS V14.01,2013-02-23 03:28:00,
2013-02-22 22:29:00,68.5,59.2,30.00,SE,135,0.0,0.0,72,0.00,,---,0.00,VWS V14.01,2013-02-23 03:29:00,
2013-02-22 22:30:00,68.7,60.5,30.00,SE,135,0.0,0.0,75,0.00,,---,0.00,VWS V14.01,2013-02-23 03:30:00,
2013-02-22 22:31:00,68.4,59.0,30.00,SE,135,0.0,0.0,72,0.00,,---,0.00,VWS V14.01,2013-02-23 03:31:00,
2013-02-22 22:32:00,68.4,59.0,30.00,SE,135,0.0,2.2,72,0.00,,---,0.00,VWS V14.01,2013-02-23 03:32:00,
2013-02-22 22:33:00,68.4,59.8,30.00,SE,135,0.0,0.0,74,0.00,,---,0.00,VWS V14.01,2013-02-23 03:33:00,
2013-02-22 22:34:00,68.4,59.4,30.00,SE,135,0.0,0.0,73,0.00,,---,0.00,VWS V14.01,2013-02-23 03:34:00,
2013-02-22 22:35:00,68.7,60.5,30.00,SE,135,0.0,0.0,75,0.00,,---,0.00,VWS V14.01,2013-02-23 03:35:00,
2013-02-22 22:36:00,68.5,59.9,30.00,SE,135,0.0,0.0,74,0.00,,---,0.00,VWS V14.01,2013-02-23 03:36:00,
2013-02-22 22:37:00,68.5,59.9,30.00,SSE,158,1.3,1.3,74,0.00,,---,0.00,VWS V14.01,2013-02-23 03:37:00,
2013-02-22 22:38:00,68.7,60.1,30.00,South,180,0.0,2.0,74,0.00,,---,0.00,VWS V14.01,2013-02-23 03:38:00,
2013-02-22 22:39:00,68.7,60.5,30.00,South,180,0.0,0.0,75,0.00,,---,0.00,VWS V14.01,2013-02-23 03:39:00,
2013-02-22 22:40:00,68.7,60.9,30.00,SE,135,0.0,0.0,76,0.00,,---,0.00,VWS V14.01,2013-02-23 03:40:00,
2013-02-22 22:41:00,68.7,60.5,30.00,SSE,158,0.0,0.0,75,0.00,,---,0.00,VWS V14.01,2013-02-23 03:41:00,
2013-02-22 22:42:00,68.7,60.5,30.00,SSE,158,0.0,0.0,75,0.00,,---,0.00,VWS V14.01,2013-02-23 03:42:00,
2013-02-22 22:43:00,68.5,60.3,30.00,SSE,158,0.0,0.0,75,0.00,,---,0.00,VWS V14.01,2013-02-23 03:43:00,
2013-02-22 22:44:00,68.5,60.3,30.00,SE,135,0.0,0.0,75,0.00,,---,0.00,VWS V14.01,2013-02-23 03:44:00,
2013-02-22 22:45:00,68.5,60.7,30.00,SE,135,0.0,0.0,76,0.00,,---,0.00,VWS V14.01,2013-02-23 03:45:00,
2013-02-22 22:46:00,68.7,60.9,30.00,SE,135,0.0,0.0,76,0.00,,---,0.00,VWS V14.01,2013-02-23 03:46:00,
2013-02-22 22:47:00,68.7,60.9,30.00,SE,135,1.1,1.1,76,0.00,,---,0.00,VWS V14.01,2013-02-23 03:47:00,
2013-02-22 22:48:00,68.7,60.9,30.00,SE,135,0.0,1.1,76,0.00,,---,0.00,VWS V14.01,2013-02-23 03:48:00,
2013-02-22 22:49:00,68.7,60.9,30.00,SE,135,0.0,0.0,76,0.00,,---,0.00,VWS V14.01,2013-02-23 03:49:00,
2013-02-22 22:50:00,68.4,60.5,30.00,SE,135,0.0,0.0,76,0.00,,---,0.00,VWS V14.01,2013-02-23 03:50:00,
2013-02-22 22:51:00,68.5,60.7,30.00,SE,135,0.0,0.0,76,0.00,,---,0.00,VWS V14.01,2013-02-23 03:51:00,
2013-02-22 22:52:00,68.5,60.7,30.00,SE,135,0.0,0.0,76,0.00,,---,0.00,VWS V14.01,2013-02-23 03:52:00,
2013-02-22 22:53:00,68.5,60.7,30.00,SE,135,0.0,0.0,76,0.00,,---,0.00,VWS V14.01,2013-02-23 03:53:00,
2013-02-22 22:54:00,68.5,60.7,30.00,SE,135,0.0,0.0,76,0.00,,---,0.00,VWS V14.01,2013-02-23 03:54:00,
2013-02-22 22:55:00,68.4,60.5,30.00,SE,135,0.0,0.0,76,0.00,,---,0.00,VWS V14.01,2013-02-23 03:55:00,
2013-02-22 22:56:00,68.4,60.5,30.00,SE,135,0.0,0.0,76,0.00,,---,0.00,VWS V14.01,2013-02-23 03:56:00,
2013-02-22 22:57:00,68.4,60.5,30.00,SE,135,0.0,0.0,76,0.00,,---,0.00,VWS V14.01,2013-02-23 03:57:00,
2013-02-22 22:58:00,68.4,60.5,30.00,SE,135,0.0,0.0,76,0.00,,---,0.00,VWS V14.01,2013-02-23 03:58:00,
2013-02-22 22:59:00,68.4,60.5,30.00,SE,135,0.0,0.0,76,0.00,,---,0.00,VWS V14.01,2013-02-23 03:59:00,
2013-02-22 23:00:00,68.0,60.2,30.00,SE,135,0.0,0.0,76,0.00,,---,0.00,VWS V14.01,2013-02-23 04:00:00,
2013-02-22 23:01:00,68.4,60.5,30.00,SE,135,0.0,0.0,76,0.00,,---,0.00,VWS V14.01,2013-02-23 04:01:00,
2013-02-22 23:02:00,68.4,60.5,30.00,SE,135,0.0,0.0,76,0.00,,---,0.00,VWS V14.01,2013-02-23 04:02:00,
2013-02-22 23:03:00,68.4,60.5,30.00,SE,135,0.0,0.0,76,0.00,,---,0.00,VWS V14.01,2013-02-23 04:03:00,
2013-02-22 23:04:00,68.4,60.5,30.00,SE,135,0.0,0.0,76,0.00,,---,0.00,VWS V14.01,2013-02-23 04:04:00,
2013-02-22 23:05:00,67.6,59.8,30.03,SE,135,0.0,0.0,76,0.00,,---,0.00,VWS V14.01,2013-02-23 04:05:00,
2013-02-22 23:06:00,68.2,60.3,30.00,SE,135,0.0,0.0,76,0.00,,---,0.00,VWS V14.01,2013-02-23 04:06:00,
2013-02-22 23:07:00,68.2,60.3,30.00,SE,135,0.0,0.0,76,0.00,,---,0.00,VWS V14.01,2013-02-23 04:07:00,
2013-02-22 23:08:00,68.2,60.3,30.00,SE,135,0.0,0.0,76,0.00,,---,0.00,VWS V14.01,2013-02-23 04:08:00,
2013-02-22 23:09:00,68.0,60.2,30.00,SE,135,0.0,0.0,76,0.00,,---,0.00,VWS V14.01,2013-02-23 04:09:00,
2013-02-22 23:10:00,68.0,60.2,30.00,SE,135,0.0,0.0,76,0.00,,---,0.00,VWS V14.01,2013-02-23 04:10:00,
2013-02-22 23:11:00,67.3,59.5,30.03,SE,135,0.0,0.0,76,0.00,,---,0.00,VWS V14.01,2013-02-23 04:11:00,
2013-02-22 23:12:00,67.8,60.0,30.00,SE,135,0.0,0.0,76,0.00,,---,0.00,VWS V14.01,2013-02-23 04:12:00,
2013-02-22 23:13:00,67.6,59.8,30.03,SE,135,0.0,0.0,76,0.00,,---,0.00,VWS V14.01,2013-02-23 04:13:00,
2013-02-22 23:14:00,67.6,59.8,30.03,SE,135,0.0,0.0,76,0.00,,---,0.00,VWS V14.01,2013-02-23 04:14:00,
2013-02-22 23:15:00,67.6,59.8,30.03,SE,135,0.0,0.0,76,0.00,,---,0.00,VWS V14.01,2013-02-23 04:15:00,
2013-02-22 23:16:00,67.1,59.7,30.03,SE,135,0.0,0.0,77,0.00,,---,0.00,VWS V14.01,2013-02-23 04:16:00,
2013-02-22 23:17:00,67.5,59.6,30.03,SE,135,0.0,0.0,76,0.00,,---,0.00,VWS V14.01,2013-02-23 04:17:00,
2013-02-22 23:18:00,67.5,59.6,30.03,SE,135,0.0,0.0,76,0.00,,---,0.00,VWS V14.01,2013-02-23 04:18:00,
2013-02-22 23:19:00,67.3,59.5,30.03,SE,135,0.0,0.0,76,0.00,,---,0.00,VWS V14.01,2013-02-23 04:19:00,
2013-02-22 23:20:00,67.3,59.5,30.03,SE,135,0.0,0.0,76,0.00,,---,0.00,VWS V14.01,2013-02-23 04:20:00,
2013-02-22 23:21:00,66.9,59.5,30.03,SE,135,0.0,0.0,77,0.00,,---,0.00,VWS V14.01,2013-02-23 04:21:00,
2013-02-22 23:22:00,67.3,59.5,30.03,SE,135,0.0,0.0,76,0.00,,---,0.00,VWS V14.01,2013-02-23 04:22:00,
2013-02-22 23:23:00,67.3,59.5,30.03,SE,135,0.0,0.0,76,0.00,,---,0.00,VWS V14.01,2013-02-23 04:23:00,
2013-02-22 23:24:00,67.1,59.7,30.03,SE,135,0.0,0.0,77,0.00,,---,0.00,VWS V14.01,2013-02-23 04:24:00,
2013-02-22 23:25:00,66.7,59.3,30.03,SE,135,0.0,0.0,77,0.00,,---,0.00,VWS V14.01,2013-02-23 04:25:00,
2013-02-22 23:26:00,67.1,59.7,30.03,SE,135,0.0,0.0,77,0.00,,---,0.00,VWS V14.01,2013-02-23 04:26:00,
2013-02-22 23:27:00,67.1,59.7,30.03,SE,135,0.0,0.0,77,0.00,,---,0.00,VWS V14.01,2013-02-23 04:27:00,
2013-02-22 23:28:00,66.9,59.5,30.03,SE,135,0.0,0.0,77,0.00,,---,0.00,VWS V14.01,2013-02-23 04:28:00,
2013-02-22 23:29:00,66.9,59.5,30.03,SE,135,0.0,0.0,77,0.00,,---,0.00,VWS V14.01,2013-02-23 04:29:00,
2013-02-22 23:30:00,66.6,59.5,30.03,SE,135,0.0,0.0,78,0.00,,---,0.00,VWS V14.01,2013-02-23 04:30:00,
2013-02-22 23:31:00,66.9,59.5,30.03,SE,135,0.0,0.0,77,0.00,,---,0.00,VWS V14.01,2013-02-23 04:31:00,
2013-02-22 23:32:00,66.9,59.5,30.03,SE,135,0.0,0.0,77,0.00,,---,0.00,VWS V14.01,2013-02-23 04:32:00,
2013-02-22 23:33:00,66.7,59.3,30.03,SE,135,0.0,0.0,77,0.00,,---,0.00,VWS V14.01,2013-02-23 04:33:00,
2013-02-22 23:34:00,66.7,59.3,30.03,SE,135,0.0,0.0,77,0.00,,---,0.00,VWS V14.01,2013-02-23 04:34:00,
2013-02-22 23:35:00,66.7,59.7,30.03,SE,135,0.0,0.0,78,0.00,,---,0.00,VWS V14.01,2013-02-23 04:35:00,
2013-02-22 23:36:00,66.7,59.3,30.03,SE,135,0.0,0.0,77,0.00,,---,0.00,VWS V14.01,2013-02-23 04:36:00,
2013-02-22 23:37:00,66.7,59.3,30.03,SE,135,0.0,0.0,77,0.00,,---,0.00,VWS V14.01,2013-02-23 04:37:00,
2013-02-22 23:38:00,66.6,59.1,30.03,SE,135,0.0,0.0,77,0.00,,---,0.00,VWS V14.01,2013-02-23 04:38:00,
2013-02-22 23:39:00,66.6,59.5,30.03,SE,135,0.0,0.0,78,0.00,,---,0.00,VWS V14.01,2013-02-23 04:39:00,
2013-02-22 23:40:00,67.1,60.4,30.03,SSE,158,0.0,0.0,79,0.00,,---,0.00,VWS V14.01,2013-02-23 04:40:00,
2013-02-22 23:41:00,66.6,59.5,30.03,SE,135,0.0,0.0,78,0.00,,---,0.00,VWS V14.01,2013-02-23 04:41:00,
2013-02-22 23:42:00,66.6,59.5,30.03,SE,135,0.0,0.0,78,0.00,,---,0.00,VWS V14.01,2013-02-23 04:42:00,
2013-02-22 23:43:00,66.6,59.5,30.03,SE,135,0.0,0.0,78,0.00,,---,0.00,VWS V14.01,2013-02-23 04:43:00,
2013-02-22 23:44:00,66.6,59.5,30.03,SE,135,0.0,0.0,78,0.00,,---,0.00,VWS V14.01,2013-02-23 04:44:00,
2013-02-22 23:45:00,67.3,60.9,30.03,SSE,158,0.0,0.0,80,0.00,,---,0.00,VWS V14.01,2013-02-23 04:45:00,
2013-02-22 23:46:00,66.7,59.7,30.03,SE,135,0.0,0.0,78,0.00,,---,0.00,VWS V14.01,2013-02-23 04:46:00,
2013-02-22 23:47:00,66.9,59.8,30.03,SE,135,0.0,0.0,78,0.00,,---,0.00,VWS V14.01,2013-02-23 04:47:00,
2013-02-22 23:48:00,67.1,60.0,30.03,SE,135,0.0,0.0,78,0.00,,---,0.00,VWS V14.01,2013-02-23 04:48:00,
2013-02-22 23:49:00,67.1,60.0,30.03,SE,135,0.0,0.0,78,0.00,,---,0.00,VWS V14.01,2013-02-23 04:49:00,
2013-02-22 23:50:00,67.3,60.9,30.00,SSE,158,0.0,0.0,80,0.00,,---,0.00,VWS V14.01,2013-02-23 04:50:00,
2013-02-22 23:51:00,67.1,60.4,30.03,SSE,158,0.0,0.0,79,0.00,,---,0.00,VWS V14.01,2013-02-23 04:51:00,
2013-02-22 23:52:00,67.1,60.4,30.03,SSE,158,0.0,0.0,79,0.00,,---,0.00,VWS V14.01,2013-02-23 04:52:00,
2013-02-22 23:53:00,67.3,60.5,30.03,SSE,158,0.0,0.0,79,0.00,,---,0.00,VWS V14.01,2013-02-23 04:53:00,
2013-02-22 23:54:00,67.3,60.5,30.03,SSE,158,0.0,0.0,79,0.00,,---,0.00,VWS V14.01,2013-02-23 04:54:00,
2013-02-22 23:55:00,67.5,61.4,30.00,SSE,158,0.0,0.0,81,0.00,,---,0.00,VWS V14.01,2013-02-23 04:55:00,
2013-02-22 23:56:00,67.3,60.9,30.03,SSE,158,0.0,0.0,80,0.00,,---,0.00,VWS V14.01,2013-02-23 04:56:00,
2013-02-22 23:57:00,67.3,60.9,30.03,SSE,158,0.0,0.0,80,0.00,,---,0.00,VWS V14.01,2013-02-23 04:57:00,
2013-02-22 23:58:00,67.3,60.9,30.00,SSE,158,0.0,0.0,80,0.00,,---,0.00,VWS V14.01,2013-02-23 04:58:00,
2013-02-22 23:59:00,67.3,60.9,30.00,SSE,158,0.0,0.0,80,0.00,,---,0.00,VWS V14.01,2013-02-23 04:59:00,